<?xml version="1.0" encoding="UTF-8" standalone="no" ?>
<gpx xmlns="http://www.topografix.com/GPX/1/1" xmlns:xsi="http://www.w3.org/2001/XMLSchema-instance" xsi:schemaLocation="http://www.topografix.com/GPX/1/1 http://www.topografix.com/GPX/1/1/gpx.xsd" version="1.1" creator="VisuGPX - https://www.visugpx.com">
  <metadata>
    <name>Haux - Saint Genes de Lombaud</name>
    <desc><![CDATA[Randonnée VTT]]></desc>
  </metadata>
  <trk>
    <name><![CDATA[Haux st genes lombaud]]></name>
    <trkseg>
      <trkpt lat="44.73458" lon="-0.35972">
        <ele>90</ele>
        <time>2013-07-07T12:17:18Z</time>
      </trkpt>
      <trkpt lat="44.73428" lon="-0.35984">
        <ele>89</ele>
        <time>2013-07-07T12:17:29Z</time>
      </trkpt>
      <trkpt lat="44.7341" lon="-0.35991">
        <ele>89</ele>
        <time>2013-07-07T12:17:35Z</time>
      </trkpt>
      <trkpt lat="44.73383" lon="-0.36001">
        <ele>89</ele>
        <time>2013-07-07T12:17:43Z</time>
      </trkpt>
      <trkpt lat="44.73353" lon="-0.36018">
        <ele>88</ele>
        <time>2013-07-07T12:17:52Z</time>
      </trkpt>
      <trkpt lat="44.73349" lon="-0.36033">
        <ele>87</ele>
        <time>2013-07-07T12:17:55Z</time>
      </trkpt>
      <trkpt lat="44.7335" lon="-0.36077">
        <ele>86</ele>
        <time>2013-07-07T12:18:03Z</time>
      </trkpt>
      <trkpt lat="44.7336" lon="-0.36124">
        <ele>85</ele>
        <time>2013-07-07T12:18:13Z</time>
      </trkpt>
      <trkpt lat="44.73365" lon="-0.36146">
        <ele>85</ele>
        <time>2013-07-07T12:18:20Z</time>
      </trkpt>
      <trkpt lat="44.73371" lon="-0.3617">
        <ele>86</ele>
        <time>2013-07-07T12:18:27Z</time>
      </trkpt>
      <trkpt lat="44.73377" lon="-0.36207">
        <ele>86</ele>
        <time>2013-07-07T12:18:36Z</time>
      </trkpt>
      <trkpt lat="44.73382" lon="-0.36243">
        <ele>85</ele>
        <time>2013-07-07T12:18:45Z</time>
      </trkpt>
      <trkpt lat="44.73386" lon="-0.36275">
        <ele>85</ele>
        <time>2013-07-07T12:18:53Z</time>
      </trkpt>
      <trkpt lat="44.73385" lon="-0.3628">
        <ele>85</ele>
        <time>2013-07-07T12:18:55Z</time>
      </trkpt>
      <trkpt lat="44.73384" lon="-0.36281">
        <ele>85</ele>
        <time>2013-07-07T12:18:56Z</time>
      </trkpt>
      <trkpt lat="44.73383" lon="-0.36282">
        <ele>85</ele>
        <time>2013-07-07T12:18:57Z</time>
      </trkpt>
      <trkpt lat="44.73379" lon="-0.36282">
        <ele>84</ele>
        <time>2013-07-07T12:19:01Z</time>
      </trkpt>
      <trkpt lat="44.73378" lon="-0.36281">
        <ele>84</ele>
        <time>2013-07-07T12:19:02Z</time>
      </trkpt>
      <trkpt lat="44.73377" lon="-0.36278">
        <ele>84</ele>
        <time>2013-07-07T12:19:03Z</time>
      </trkpt>
      <trkpt lat="44.73377" lon="-0.36275">
        <ele>84</ele>
        <time>2013-07-07T12:19:04Z</time>
      </trkpt>
      <trkpt lat="44.73377" lon="-0.36271">
        <ele>84</ele>
        <time>2013-07-07T12:19:05Z</time>
      </trkpt>
      <trkpt lat="44.73373" lon="-0.36242">
        <ele>85</ele>
        <time>2013-07-07T12:19:13Z</time>
      </trkpt>
      <trkpt lat="44.73367" lon="-0.36202">
        <ele>84</ele>
        <time>2013-07-07T12:19:22Z</time>
      </trkpt>
      <trkpt lat="44.73361" lon="-0.36169">
        <ele>84</ele>
        <time>2013-07-07T12:19:30Z</time>
      </trkpt>
      <trkpt lat="44.73357" lon="-0.36147">
        <ele>84</ele>
        <time>2013-07-07T12:19:38Z</time>
      </trkpt>
      <trkpt lat="44.73355" lon="-0.36144">
        <ele>84</ele>
        <time>2013-07-07T12:19:39Z</time>
      </trkpt>
      <trkpt lat="44.73353" lon="-0.36143">
        <ele>84</ele>
        <time>2013-07-07T12:19:40Z</time>
      </trkpt>
      <trkpt lat="44.73351" lon="-0.36143">
        <ele>84</ele>
        <time>2013-07-07T12:19:41Z</time>
      </trkpt>
      <trkpt lat="44.73331" lon="-0.36143">
        <ele>81</ele>
        <time>2013-07-07T12:19:48Z</time>
      </trkpt>
      <trkpt lat="44.73306" lon="-0.36149">
        <ele>81</ele>
        <time>2013-07-07T12:19:55Z</time>
      </trkpt>
      <trkpt lat="44.7328" lon="-0.36155">
        <ele>80</ele>
        <time>2013-07-07T12:20:04Z</time>
      </trkpt>
      <trkpt lat="44.73258" lon="-0.36159">
        <ele>83</ele>
        <time>2013-07-07T12:20:12Z</time>
      </trkpt>
      <trkpt lat="44.73241" lon="-0.36164">
        <ele>85</ele>
        <time>2013-07-07T12:20:19Z</time>
      </trkpt>
      <trkpt lat="44.73223" lon="-0.36179">
        <ele>85</ele>
        <time>2013-07-07T12:20:27Z</time>
      </trkpt>
      <trkpt lat="44.73206" lon="-0.36196">
        <ele>85</ele>
        <time>2013-07-07T12:20:35Z</time>
      </trkpt>
      <trkpt lat="44.732" lon="-0.36219">
        <ele>84</ele>
        <time>2013-07-07T12:20:42Z</time>
      </trkpt>
      <trkpt lat="44.73188" lon="-0.36232">
        <ele>83</ele>
        <time>2013-07-07T12:20:47Z</time>
      </trkpt>
      <trkpt lat="44.73161" lon="-0.3624">
        <ele>85</ele>
        <time>2013-07-07T12:20:56Z</time>
      </trkpt>
      <trkpt lat="44.73131" lon="-0.36247">
        <ele>88</ele>
        <time>2013-07-07T12:21:05Z</time>
      </trkpt>
      <trkpt lat="44.73114" lon="-0.36261">
        <ele>89</ele>
        <time>2013-07-07T12:21:11Z</time>
      </trkpt>
      <trkpt lat="44.73106" lon="-0.36282">
        <ele>89</ele>
        <time>2013-07-07T12:21:16Z</time>
      </trkpt>
      <trkpt lat="44.73108" lon="-0.36323">
        <ele>89</ele>
        <time>2013-07-07T12:21:25Z</time>
      </trkpt>
      <trkpt lat="44.73115" lon="-0.36361">
        <ele>88</ele>
        <time>2013-07-07T12:21:34Z</time>
      </trkpt>
      <trkpt lat="44.73114" lon="-0.36384">
        <ele>88</ele>
        <time>2013-07-07T12:21:40Z</time>
      </trkpt>
      <trkpt lat="44.73113" lon="-0.36387">
        <ele>88</ele>
        <time>2013-07-07T12:21:41Z</time>
      </trkpt>
      <trkpt lat="44.73113" lon="-0.3641">
        <ele>88</ele>
        <time>2013-07-07T12:21:48Z</time>
      </trkpt>
      <trkpt lat="44.7311" lon="-0.36432">
        <ele>88</ele>
        <time>2013-07-07T12:21:54Z</time>
      </trkpt>
      <trkpt lat="44.73097" lon="-0.36451">
        <ele>88</ele>
        <time>2013-07-07T12:21:59Z</time>
      </trkpt>
      <trkpt lat="44.73091" lon="-0.36472">
        <ele>87</ele>
        <time>2013-07-07T12:22:05Z</time>
      </trkpt>
      <trkpt lat="44.7309" lon="-0.36475">
        <ele>86</ele>
        <time>2013-07-07T12:22:07Z</time>
      </trkpt>
      <trkpt lat="44.73095" lon="-0.36494">
        <ele>84</ele>
        <time>2013-07-07T12:22:14Z</time>
      </trkpt>
      <trkpt lat="44.73111" lon="-0.36503">
        <ele>82</ele>
        <time>2013-07-07T12:22:21Z</time>
      </trkpt>
      <trkpt lat="44.73117" lon="-0.36504">
        <ele>81</ele>
        <time>2013-07-07T12:22:24Z</time>
      </trkpt>
      <trkpt lat="44.73135" lon="-0.36489">
        <ele>82</ele>
        <time>2013-07-07T12:22:35Z</time>
      </trkpt>
      <trkpt lat="44.73148" lon="-0.36483">
        <ele>82</ele>
        <time>2013-07-07T12:22:44Z</time>
      </trkpt>
      <trkpt lat="44.73155" lon="-0.36482">
        <ele>81</ele>
        <time>2013-07-07T12:22:54Z</time>
      </trkpt>
      <trkpt lat="44.73159" lon="-0.36478">
        <ele>81</ele>
        <time>2013-07-07T12:23:05Z</time>
      </trkpt>
      <trkpt lat="44.73159" lon="-0.36478">
        <ele>81</ele>
        <time>2013-07-07T12:23:20Z</time>
      </trkpt>
      <trkpt lat="44.7316" lon="-0.36477">
        <ele>81</ele>
        <time>2013-07-07T12:23:32Z</time>
      </trkpt>
      <trkpt lat="44.73166" lon="-0.36474">
        <ele>80</ele>
        <time>2013-07-07T12:23:37Z</time>
      </trkpt>
      <trkpt lat="44.73184" lon="-0.36493">
        <ele>75</ele>
        <time>2013-07-07T12:23:45Z</time>
      </trkpt>
      <trkpt lat="44.73194" lon="-0.36521">
        <ele>69</ele>
        <time>2013-07-07T12:23:53Z</time>
      </trkpt>
      <trkpt lat="44.73194" lon="-0.36525">
        <ele>69</ele>
        <time>2013-07-07T12:23:54Z</time>
      </trkpt>
      <trkpt lat="44.73183" lon="-0.36534">
        <ele>70</ele>
        <time>2013-07-07T12:23:58Z</time>
      </trkpt>
      <trkpt lat="44.73167" lon="-0.36552">
        <ele>70</ele>
        <time>2013-07-07T12:24:05Z</time>
      </trkpt>
      <trkpt lat="44.73166" lon="-0.3658">
        <ele>66</ele>
        <time>2013-07-07T12:24:13Z</time>
      </trkpt>
      <trkpt lat="44.73167" lon="-0.36583">
        <ele>65</ele>
        <time>2013-07-07T12:24:14Z</time>
      </trkpt>
      <trkpt lat="44.73165" lon="-0.36594">
        <ele>64</ele>
        <time>2013-07-07T12:24:18Z</time>
      </trkpt>
      <trkpt lat="44.73152" lon="-0.36611">
        <ele>64</ele>
        <time>2013-07-07T12:24:26Z</time>
      </trkpt>
      <trkpt lat="44.73137" lon="-0.36621">
        <ele>64</ele>
        <time>2013-07-07T12:24:33Z</time>
      </trkpt>
      <trkpt lat="44.73129" lon="-0.36627">
        <ele>65</ele>
        <time>2013-07-07T12:24:37Z</time>
      </trkpt>
      <trkpt lat="44.73124" lon="-0.36635">
        <ele>64</ele>
        <time>2013-07-07T12:24:45Z</time>
      </trkpt>
      <trkpt lat="44.73123" lon="-0.36636">
        <ele>64</ele>
        <time>2013-07-07T12:24:58Z</time>
      </trkpt>
      <trkpt lat="44.73123" lon="-0.36635">
        <ele>64</ele>
        <time>2013-07-07T12:25:13Z</time>
      </trkpt>
      <trkpt lat="44.73123" lon="-0.36635">
        <ele>64</ele>
        <time>2013-07-07T12:25:24Z</time>
      </trkpt>
      <trkpt lat="44.73123" lon="-0.36635">
        <ele>64</ele>
        <time>2013-07-07T12:25:25Z</time>
      </trkpt>
      <trkpt lat="44.73121" lon="-0.36639">
        <ele>64</ele>
        <time>2013-07-07T12:25:28Z</time>
      </trkpt>
      <trkpt lat="44.73119" lon="-0.36642">
        <ele>64</ele>
        <time>2013-07-07T12:25:30Z</time>
      </trkpt>
      <trkpt lat="44.73112" lon="-0.36643">
        <ele>65</ele>
        <time>2013-07-07T12:25:33Z</time>
      </trkpt>
      <trkpt lat="44.73088" lon="-0.36657">
        <ele>66</ele>
        <time>2013-07-07T12:25:42Z</time>
      </trkpt>
      <trkpt lat="44.7308" lon="-0.36669">
        <ele>65</ele>
        <time>2013-07-07T12:25:50Z</time>
      </trkpt>
      <trkpt lat="44.73084" lon="-0.36682">
        <ele>64</ele>
        <time>2013-07-07T12:25:56Z</time>
      </trkpt>
      <trkpt lat="44.73096" lon="-0.36695">
        <ele>62</ele>
        <time>2013-07-07T12:26:03Z</time>
      </trkpt>
      <trkpt lat="44.73095" lon="-0.36709">
        <ele>61</ele>
        <time>2013-07-07T12:26:10Z</time>
      </trkpt>
      <trkpt lat="44.73093" lon="-0.36712">
        <ele>61</ele>
        <time>2013-07-07T12:26:11Z</time>
      </trkpt>
      <trkpt lat="44.73069" lon="-0.36729">
        <ele>61</ele>
        <time>2013-07-07T12:26:21Z</time>
      </trkpt>
      <trkpt lat="44.73044" lon="-0.36734">
        <ele>62</ele>
        <time>2013-07-07T12:26:28Z</time>
      </trkpt>
      <trkpt lat="44.73011" lon="-0.36726">
        <ele>60</ele>
        <time>2013-07-07T12:26:36Z</time>
      </trkpt>
      <trkpt lat="44.72972" lon="-0.36724">
        <ele>58</ele>
        <time>2013-07-07T12:26:44Z</time>
      </trkpt>
      <trkpt lat="44.7295" lon="-0.3673">
        <ele>57</ele>
        <time>2013-07-07T12:26:50Z</time>
      </trkpt>
      <trkpt lat="44.72948" lon="-0.36732">
        <ele>56</ele>
        <time>2013-07-07T12:26:51Z</time>
      </trkpt>
      <trkpt lat="44.72949" lon="-0.36748">
        <ele>54</ele>
        <time>2013-07-07T12:26:56Z</time>
      </trkpt>
      <trkpt lat="44.72955" lon="-0.36788">
        <ele>50</ele>
        <time>2013-07-07T12:27:04Z</time>
      </trkpt>
      <trkpt lat="44.72972" lon="-0.36814">
        <ele>49</ele>
        <time>2013-07-07T12:27:12Z</time>
      </trkpt>
      <trkpt lat="44.72988" lon="-0.36824">
        <ele>48</ele>
        <time>2013-07-07T12:27:20Z</time>
      </trkpt>
      <trkpt lat="44.72994" lon="-0.36829">
        <ele>48</ele>
        <time>2013-07-07T12:27:29Z</time>
      </trkpt>
      <trkpt lat="44.72991" lon="-0.3683">
        <ele>48</ele>
        <time>2013-07-07T12:27:40Z</time>
      </trkpt>
      <trkpt lat="44.7299" lon="-0.36834">
        <ele>47</ele>
        <time>2013-07-07T12:28:01Z</time>
      </trkpt>
      <trkpt lat="44.72991" lon="-0.36833">
        <ele>47</ele>
        <time>2013-07-07T12:28:18Z</time>
      </trkpt>
      <trkpt lat="44.72991" lon="-0.36833">
        <ele>47</ele>
        <time>2013-07-07T12:28:29Z</time>
      </trkpt>
      <trkpt lat="44.72993" lon="-0.36836">
        <ele>47</ele>
        <time>2013-07-07T12:28:40Z</time>
      </trkpt>
      <trkpt lat="44.72997" lon="-0.36838">
        <ele>47</ele>
        <time>2013-07-07T12:28:43Z</time>
      </trkpt>
      <trkpt lat="44.73008" lon="-0.36843">
        <ele>46</ele>
        <time>2013-07-07T12:28:47Z</time>
      </trkpt>
      <trkpt lat="44.73034" lon="-0.36838">
        <ele>48</ele>
        <time>2013-07-07T12:28:56Z</time>
      </trkpt>
      <trkpt lat="44.73037" lon="-0.36838">
        <ele>48</ele>
        <time>2013-07-07T12:28:57Z</time>
      </trkpt>
      <trkpt lat="44.73056" lon="-0.36838">
        <ele>48</ele>
        <time>2013-07-07T12:29:06Z</time>
      </trkpt>
      <trkpt lat="44.7307" lon="-0.36831">
        <ele>49</ele>
        <time>2013-07-07T12:29:14Z</time>
      </trkpt>
      <trkpt lat="44.7308" lon="-0.36834">
        <ele>49</ele>
        <time>2013-07-07T12:29:20Z</time>
      </trkpt>
      <trkpt lat="44.73088" lon="-0.36859">
        <ele>46</ele>
        <time>2013-07-07T12:29:29Z</time>
      </trkpt>
      <trkpt lat="44.73088" lon="-0.36862">
        <ele>45</ele>
        <time>2013-07-07T12:29:44Z</time>
      </trkpt>
      <trkpt lat="44.73087" lon="-0.36863">
        <ele>45</ele>
        <time>2013-07-07T12:29:57Z</time>
      </trkpt>
      <trkpt lat="44.73089" lon="-0.36867">
        <ele>45</ele>
        <time>2013-07-07T12:30:08Z</time>
      </trkpt>
      <trkpt lat="44.73089" lon="-0.3687">
        <ele>45</ele>
        <time>2013-07-07T12:30:18Z</time>
      </trkpt>
      <trkpt lat="44.73087" lon="-0.36879">
        <ele>44</ele>
        <time>2013-07-07T12:30:28Z</time>
      </trkpt>
      <trkpt lat="44.73088" lon="-0.3689">
        <ele>42</ele>
        <time>2013-07-07T12:30:36Z</time>
      </trkpt>
      <trkpt lat="44.73088" lon="-0.36897">
        <ele>42</ele>
        <time>2013-07-07T12:30:44Z</time>
      </trkpt>
      <trkpt lat="44.73088" lon="-0.36902">
        <ele>41</ele>
        <time>2013-07-07T12:30:56Z</time>
      </trkpt>
      <trkpt lat="44.73089" lon="-0.36903">
        <ele>41</ele>
        <time>2013-07-07T12:31:12Z</time>
      </trkpt>
      <trkpt lat="44.73088" lon="-0.36904">
        <ele>41</ele>
        <time>2013-07-07T12:31:28Z</time>
      </trkpt>
      <trkpt lat="44.73089" lon="-0.36907">
        <ele>40</ele>
        <time>2013-07-07T12:31:39Z</time>
      </trkpt>
      <trkpt lat="44.73091" lon="-0.36913">
        <ele>40</ele>
        <time>2013-07-07T12:31:44Z</time>
      </trkpt>
      <trkpt lat="44.73095" lon="-0.36926">
        <ele>41</ele>
        <time>2013-07-07T12:31:51Z</time>
      </trkpt>
      <trkpt lat="44.73095" lon="-0.36944">
        <ele>42</ele>
        <time>2013-07-07T12:31:56Z</time>
      </trkpt>
      <trkpt lat="44.73096" lon="-0.36961">
        <ele>42</ele>
        <time>2013-07-07T12:32:01Z</time>
      </trkpt>
      <trkpt lat="44.73113" lon="-0.37009">
        <ele>41</ele>
        <time>2013-07-07T12:32:13Z</time>
      </trkpt>
      <trkpt lat="44.73115" lon="-0.37044">
        <ele>40</ele>
        <time>2013-07-07T12:32:22Z</time>
      </trkpt>
      <trkpt lat="44.73116" lon="-0.37067">
        <ele>39</ele>
        <time>2013-07-07T12:32:30Z</time>
      </trkpt>
      <trkpt lat="44.73114" lon="-0.3709">
        <ele>38</ele>
        <time>2013-07-07T12:32:37Z</time>
      </trkpt>
      <trkpt lat="44.73115" lon="-0.37093">
        <ele>38</ele>
        <time>2013-07-07T12:32:46Z</time>
      </trkpt>
      <trkpt lat="44.73113" lon="-0.37101">
        <ele>38</ele>
        <time>2013-07-07T12:32:53Z</time>
      </trkpt>
      <trkpt lat="44.73114" lon="-0.37102">
        <ele>38</ele>
        <time>2013-07-07T12:33:08Z</time>
      </trkpt>
      <trkpt lat="44.73107" lon="-0.37103">
        <ele>39</ele>
        <time>2013-07-07T12:33:16Z</time>
      </trkpt>
      <trkpt lat="44.73095" lon="-0.37098">
        <ele>42</ele>
        <time>2013-07-07T12:33:26Z</time>
      </trkpt>
      <trkpt lat="44.73085" lon="-0.37096">
        <ele>44</ele>
        <time>2013-07-07T12:33:37Z</time>
      </trkpt>
      <trkpt lat="44.73083" lon="-0.37097">
        <ele>44</ele>
        <time>2013-07-07T12:33:45Z</time>
      </trkpt>
      <trkpt lat="44.73083" lon="-0.37097">
        <ele>44</ele>
        <time>2013-07-07T12:33:56Z</time>
      </trkpt>
      <trkpt lat="44.7308" lon="-0.37098">
        <ele>45</ele>
        <time>2013-07-07T12:34:05Z</time>
      </trkpt>
      <trkpt lat="44.73079" lon="-0.37098">
        <ele>45</ele>
        <time>2013-07-07T12:34:15Z</time>
      </trkpt>
      <trkpt lat="44.73064" lon="-0.37096">
        <ele>48</ele>
        <time>2013-07-07T12:34:25Z</time>
      </trkpt>
      <trkpt lat="44.73057" lon="-0.37097">
        <ele>49</ele>
        <time>2013-07-07T12:34:34Z</time>
      </trkpt>
      <trkpt lat="44.73052" lon="-0.37099">
        <ele>50</ele>
        <time>2013-07-07T12:34:38Z</time>
      </trkpt>
      <trkpt lat="44.73037" lon="-0.37098">
        <ele>52</ele>
        <time>2013-07-07T12:34:44Z</time>
      </trkpt>
      <trkpt lat="44.73011" lon="-0.37104">
        <ele>53</ele>
        <time>2013-07-07T12:34:54Z</time>
      </trkpt>
      <trkpt lat="44.72988" lon="-0.37112">
        <ele>54</ele>
        <time>2013-07-07T12:35:03Z</time>
      </trkpt>
      <trkpt lat="44.72986" lon="-0.37112">
        <ele>54</ele>
        <time>2013-07-07T12:35:04Z</time>
      </trkpt>
      <trkpt lat="44.72971" lon="-0.37114">
        <ele>55</ele>
        <time>2013-07-07T12:35:10Z</time>
      </trkpt>
      <trkpt lat="44.72948" lon="-0.37122">
        <ele>55</ele>
        <time>2013-07-07T12:35:20Z</time>
      </trkpt>
      <trkpt lat="44.72942" lon="-0.37129">
        <ele>55</ele>
        <time>2013-07-07T12:35:24Z</time>
      </trkpt>
      <trkpt lat="44.72919" lon="-0.37143">
        <ele>56</ele>
        <time>2013-07-07T12:35:32Z</time>
      </trkpt>
      <trkpt lat="44.72897" lon="-0.37168">
        <ele>56</ele>
        <time>2013-07-07T12:35:41Z</time>
      </trkpt>
      <trkpt lat="44.72881" lon="-0.37179">
        <ele>57</ele>
        <time>2013-07-07T12:35:48Z</time>
      </trkpt>
      <trkpt lat="44.72858" lon="-0.37184">
        <ele>59</ele>
        <time>2013-07-07T12:35:57Z</time>
      </trkpt>
      <trkpt lat="44.72849" lon="-0.3718">
        <ele>60</ele>
        <time>2013-07-07T12:36:02Z</time>
      </trkpt>
      <trkpt lat="44.72847" lon="-0.37165">
        <ele>61</ele>
        <time>2013-07-07T12:36:09Z</time>
      </trkpt>
      <trkpt lat="44.72841" lon="-0.37143">
        <ele>64</ele>
        <time>2013-07-07T12:36:19Z</time>
      </trkpt>
      <trkpt lat="44.72836" lon="-0.37129">
        <ele>65</ele>
        <time>2013-07-07T12:36:27Z</time>
      </trkpt>
      <trkpt lat="44.72834" lon="-0.37126">
        <ele>66</ele>
        <time>2013-07-07T12:36:29Z</time>
      </trkpt>
      <trkpt lat="44.72832" lon="-0.37106">
        <ele>68</ele>
        <time>2013-07-07T12:36:41Z</time>
      </trkpt>
      <trkpt lat="44.72831" lon="-0.37102">
        <ele>68</ele>
        <time>2013-07-07T12:36:43Z</time>
      </trkpt>
      <trkpt lat="44.72825" lon="-0.3708">
        <ele>71</ele>
        <time>2013-07-07T12:36:56Z</time>
      </trkpt>
      <trkpt lat="44.72823" lon="-0.37067">
        <ele>72</ele>
        <time>2013-07-07T12:37:04Z</time>
      </trkpt>
      <trkpt lat="44.72821" lon="-0.37053">
        <ele>73</ele>
        <time>2013-07-07T12:37:11Z</time>
      </trkpt>
      <trkpt lat="44.72822" lon="-0.37047">
        <ele>73</ele>
        <time>2013-07-07T12:37:14Z</time>
      </trkpt>
      <trkpt lat="44.72828" lon="-0.37042">
        <ele>73</ele>
        <time>2013-07-07T12:37:18Z</time>
      </trkpt>
      <trkpt lat="44.72847" lon="-0.3704">
        <ele>71</ele>
        <time>2013-07-07T12:37:23Z</time>
      </trkpt>
      <trkpt lat="44.72885" lon="-0.37038">
        <ele>68</ele>
        <time>2013-07-07T12:37:30Z</time>
      </trkpt>
      <trkpt lat="44.729" lon="-0.37037">
        <ele>68</ele>
        <time>2013-07-07T12:37:33Z</time>
      </trkpt>
      <trkpt lat="44.72926" lon="-0.37035">
        <ele>65</ele>
        <time>2013-07-07T12:37:39Z</time>
      </trkpt>
      <trkpt lat="44.7293" lon="-0.37022">
        <ele>65</ele>
        <time>2013-07-07T12:37:43Z</time>
      </trkpt>
      <trkpt lat="44.72923" lon="-0.3697">
        <ele>67</ele>
        <time>2013-07-07T12:37:53Z</time>
      </trkpt>
      <trkpt lat="44.72916" lon="-0.3692">
        <ele>65</ele>
        <time>2013-07-07T12:38:02Z</time>
      </trkpt>
      <trkpt lat="44.72915" lon="-0.36915">
        <ele>65</ele>
        <time>2013-07-07T12:38:03Z</time>
      </trkpt>
      <trkpt lat="44.72903" lon="-0.36909">
        <ele>66</ele>
        <time>2013-07-07T12:38:07Z</time>
      </trkpt>
      <trkpt lat="44.72881" lon="-0.36906">
        <ele>68</ele>
        <time>2013-07-07T12:38:15Z</time>
      </trkpt>
      <trkpt lat="44.72871" lon="-0.36883">
        <ele>65</ele>
        <time>2013-07-07T12:38:20Z</time>
      </trkpt>
      <trkpt lat="44.72868" lon="-0.36876">
        <ele>64</ele>
        <time>2013-07-07T12:38:21Z</time>
      </trkpt>
      <trkpt lat="44.72847" lon="-0.36857">
        <ele>63</ele>
        <time>2013-07-07T12:38:26Z</time>
      </trkpt>
      <trkpt lat="44.72825" lon="-0.36853">
        <ele>63</ele>
        <time>2013-07-07T12:38:33Z</time>
      </trkpt>
      <trkpt lat="44.72813" lon="-0.36829">
        <ele>62</ele>
        <time>2013-07-07T12:38:40Z</time>
      </trkpt>
      <trkpt lat="44.72809" lon="-0.36799">
        <ele>62</ele>
        <time>2013-07-07T12:38:47Z</time>
      </trkpt>
      <trkpt lat="44.72814" lon="-0.36783">
        <ele>62</ele>
        <time>2013-07-07T12:38:52Z</time>
      </trkpt>
      <trkpt lat="44.7283" lon="-0.36772">
        <ele>60</ele>
        <time>2013-07-07T12:39:00Z</time>
      </trkpt>
      <trkpt lat="44.72828" lon="-0.36762">
        <ele>61</ele>
        <time>2013-07-07T12:39:05Z</time>
      </trkpt>
      <trkpt lat="44.72826" lon="-0.36762">
        <ele>61</ele>
        <time>2013-07-07T12:39:06Z</time>
      </trkpt>
      <trkpt lat="44.7281" lon="-0.36761">
        <ele>63</ele>
        <time>2013-07-07T12:39:13Z</time>
      </trkpt>
      <trkpt lat="44.72793" lon="-0.36758">
        <ele>64</ele>
        <time>2013-07-07T12:39:21Z</time>
      </trkpt>
      <trkpt lat="44.72774" lon="-0.36755">
        <ele>66</ele>
        <time>2013-07-07T12:39:30Z</time>
      </trkpt>
      <trkpt lat="44.72759" lon="-0.36745">
        <ele>68</ele>
        <time>2013-07-07T12:39:38Z</time>
      </trkpt>
      <trkpt lat="44.72752" lon="-0.36724">
        <ele>70</ele>
        <time>2013-07-07T12:39:47Z</time>
      </trkpt>
      <trkpt lat="44.72752" lon="-0.36704">
        <ele>71</ele>
        <time>2013-07-07T12:39:54Z</time>
      </trkpt>
      <trkpt lat="44.7275" lon="-0.36678">
        <ele>72</ele>
        <time>2013-07-07T12:40:04Z</time>
      </trkpt>
      <trkpt lat="44.72748" lon="-0.36658">
        <ele>72</ele>
        <time>2013-07-07T12:40:12Z</time>
      </trkpt>
      <trkpt lat="44.72746" lon="-0.36636">
        <ele>73</ele>
        <time>2013-07-07T12:40:20Z</time>
      </trkpt>
      <trkpt lat="44.72744" lon="-0.36608">
        <ele>73</ele>
        <time>2013-07-07T12:40:30Z</time>
      </trkpt>
      <trkpt lat="44.7274" lon="-0.36587">
        <ele>74</ele>
        <time>2013-07-07T12:40:38Z</time>
      </trkpt>
      <trkpt lat="44.72731" lon="-0.36577">
        <ele>75</ele>
        <time>2013-07-07T12:40:45Z</time>
      </trkpt>
      <trkpt lat="44.72716" lon="-0.36571">
        <ele>77</ele>
        <time>2013-07-07T12:40:54Z</time>
      </trkpt>
      <trkpt lat="44.72699" lon="-0.36563">
        <ele>78</ele>
        <time>2013-07-07T12:41:04Z</time>
      </trkpt>
      <trkpt lat="44.7268" lon="-0.36556">
        <ele>79</ele>
        <time>2013-07-07T12:41:14Z</time>
      </trkpt>
      <trkpt lat="44.7266" lon="-0.36546">
        <ele>80</ele>
        <time>2013-07-07T12:41:25Z</time>
      </trkpt>
      <trkpt lat="44.72643" lon="-0.36542">
        <ele>80</ele>
        <time>2013-07-07T12:41:33Z</time>
      </trkpt>
      <trkpt lat="44.72633" lon="-0.36537">
        <ele>79</ele>
        <time>2013-07-07T12:41:39Z</time>
      </trkpt>
      <trkpt lat="44.7263" lon="-0.36533">
        <ele>79</ele>
        <time>2013-07-07T12:41:41Z</time>
      </trkpt>
      <trkpt lat="44.72621" lon="-0.36532">
        <ele>79</ele>
        <time>2013-07-07T12:41:47Z</time>
      </trkpt>
      <trkpt lat="44.7262" lon="-0.36533">
        <ele>79</ele>
        <time>2013-07-07T12:41:53Z</time>
      </trkpt>
      <trkpt lat="44.7262" lon="-0.36533">
        <ele>79</ele>
        <time>2013-07-07T12:42:02Z</time>
      </trkpt>
      <trkpt lat="44.72621" lon="-0.36532">
        <ele>79</ele>
        <time>2013-07-07T12:42:19Z</time>
      </trkpt>
      <trkpt lat="44.72621" lon="-0.36527">
        <ele>78</ele>
        <time>2013-07-07T12:42:26Z</time>
      </trkpt>
      <trkpt lat="44.72621" lon="-0.36527">
        <ele>79</ele>
        <time>2013-07-07T12:42:42Z</time>
      </trkpt>
      <trkpt lat="44.72622" lon="-0.36527">
        <ele>79</ele>
        <time>2013-07-07T12:42:54Z</time>
      </trkpt>
      <trkpt lat="44.72622" lon="-0.36527">
        <ele>79</ele>
        <time>2013-07-07T12:43:06Z</time>
      </trkpt>
      <trkpt lat="44.72622" lon="-0.36527">
        <ele>79</ele>
        <time>2013-07-07T12:43:15Z</time>
      </trkpt>
      <trkpt lat="44.72623" lon="-0.36527">
        <ele>79</ele>
        <time>2013-07-07T12:43:19Z</time>
      </trkpt>
      <trkpt lat="44.72628" lon="-0.36518">
        <ele>79</ele>
        <time>2013-07-07T12:43:24Z</time>
      </trkpt>
      <trkpt lat="44.7264" lon="-0.36481">
        <ele>78</ele>
        <time>2013-07-07T12:43:33Z</time>
      </trkpt>
      <trkpt lat="44.72655" lon="-0.36449">
        <ele>77</ele>
        <time>2013-07-07T12:43:40Z</time>
      </trkpt>
      <trkpt lat="44.72653" lon="-0.36444">
        <ele>77</ele>
        <time>2013-07-07T12:43:41Z</time>
      </trkpt>
      <trkpt lat="44.72651" lon="-0.36441">
        <ele>77</ele>
        <time>2013-07-07T12:43:42Z</time>
      </trkpt>
      <trkpt lat="44.72647" lon="-0.36438">
        <ele>76</ele>
        <time>2013-07-07T12:43:43Z</time>
      </trkpt>
      <trkpt lat="44.72643" lon="-0.36437">
        <ele>76</ele>
        <time>2013-07-07T12:43:44Z</time>
      </trkpt>
      <trkpt lat="44.72637" lon="-0.36436">
        <ele>75</ele>
        <time>2013-07-07T12:43:45Z</time>
      </trkpt>
      <trkpt lat="44.72631" lon="-0.36436">
        <ele>75</ele>
        <time>2013-07-07T12:43:46Z</time>
      </trkpt>
      <trkpt lat="44.72624" lon="-0.36437">
        <ele>75</ele>
        <time>2013-07-07T12:43:47Z</time>
      </trkpt>
      <trkpt lat="44.72588" lon="-0.36443">
        <ele>72</ele>
        <time>2013-07-07T12:43:52Z</time>
      </trkpt>
      <trkpt lat="44.7258" lon="-0.36447">
        <ele>71</ele>
        <time>2013-07-07T12:43:53Z</time>
      </trkpt>
      <trkpt lat="44.72572" lon="-0.36451">
        <ele>71</ele>
        <time>2013-07-07T12:43:54Z</time>
      </trkpt>
      <trkpt lat="44.72524" lon="-0.36484">
        <ele>67</ele>
        <time>2013-07-07T12:44:01Z</time>
      </trkpt>
      <trkpt lat="44.72496" lon="-0.36495">
        <ele>63</ele>
        <time>2013-07-07T12:44:05Z</time>
      </trkpt>
      <trkpt lat="44.72489" lon="-0.36495">
        <ele>62</ele>
        <time>2013-07-07T12:44:06Z</time>
      </trkpt>
      <trkpt lat="44.72482" lon="-0.36493">
        <ele>61</ele>
        <time>2013-07-07T12:44:07Z</time>
      </trkpt>
      <trkpt lat="44.72475" lon="-0.3649">
        <ele>60</ele>
        <time>2013-07-07T12:44:08Z</time>
      </trkpt>
      <trkpt lat="44.7247" lon="-0.36487">
        <ele>60</ele>
        <time>2013-07-07T12:44:09Z</time>
      </trkpt>
      <trkpt lat="44.72466" lon="-0.36484">
        <ele>59</ele>
        <time>2013-07-07T12:44:10Z</time>
      </trkpt>
      <trkpt lat="44.72465" lon="-0.36479">
        <ele>59</ele>
        <time>2013-07-07T12:44:11Z</time>
      </trkpt>
      <trkpt lat="44.72467" lon="-0.36472">
        <ele>60</ele>
        <time>2013-07-07T12:44:13Z</time>
      </trkpt>
      <trkpt lat="44.72477" lon="-0.36434">
        <ele>61</ele>
        <time>2013-07-07T12:44:22Z</time>
      </trkpt>
      <trkpt lat="44.72485" lon="-0.36397">
        <ele>61</ele>
        <time>2013-07-07T12:44:31Z</time>
      </trkpt>
      <trkpt lat="44.72492" lon="-0.36356">
        <ele>61</ele>
        <time>2013-07-07T12:44:40Z</time>
      </trkpt>
      <trkpt lat="44.72493" lon="-0.3635">
        <ele>60</ele>
        <time>2013-07-07T12:44:41Z</time>
      </trkpt>
      <trkpt lat="44.72501" lon="-0.36305">
        <ele>60</ele>
        <time>2013-07-07T12:44:50Z</time>
      </trkpt>
      <trkpt lat="44.725" lon="-0.36294">
        <ele>60</ele>
        <time>2013-07-07T12:44:53Z</time>
      </trkpt>
      <trkpt lat="44.72476" lon="-0.36285">
        <ele>59</ele>
        <time>2013-07-07T12:45:02Z</time>
      </trkpt>
      <trkpt lat="44.72437" lon="-0.36266">
        <ele>57</ele>
        <time>2013-07-07T12:45:12Z</time>
      </trkpt>
      <trkpt lat="44.72415" lon="-0.36254">
        <ele>56</ele>
        <time>2013-07-07T12:45:18Z</time>
      </trkpt>
      <trkpt lat="44.72401" lon="-0.36268">
        <ele>56</ele>
        <time>2013-07-07T12:45:25Z</time>
      </trkpt>
      <trkpt lat="44.72392" lon="-0.36273">
        <ele>55</ele>
        <time>2013-07-07T12:45:29Z</time>
      </trkpt>
      <trkpt lat="44.72358" lon="-0.36255">
        <ele>54</ele>
        <time>2013-07-07T12:45:40Z</time>
      </trkpt>
      <trkpt lat="44.72335" lon="-0.36243">
        <ele>53</ele>
        <time>2013-07-07T12:45:48Z</time>
      </trkpt>
      <trkpt lat="44.72315" lon="-0.36228">
        <ele>52</ele>
        <time>2013-07-07T12:45:56Z</time>
      </trkpt>
      <trkpt lat="44.7229" lon="-0.36217">
        <ele>51</ele>
        <time>2013-07-07T12:46:05Z</time>
      </trkpt>
      <trkpt lat="44.72282" lon="-0.36214">
        <ele>51</ele>
        <time>2013-07-07T12:46:07Z</time>
      </trkpt>
      <trkpt lat="44.72271" lon="-0.36206">
        <ele>50</ele>
        <time>2013-07-07T12:46:10Z</time>
      </trkpt>
      <trkpt lat="44.72263" lon="-0.36202">
        <ele>50</ele>
        <time>2013-07-07T12:46:12Z</time>
      </trkpt>
      <trkpt lat="44.72234" lon="-0.3619">
        <ele>48</ele>
        <time>2013-07-07T12:46:20Z</time>
      </trkpt>
      <trkpt lat="44.72232" lon="-0.3619">
        <ele>48</ele>
        <time>2013-07-07T12:46:21Z</time>
      </trkpt>
      <trkpt lat="44.72222" lon="-0.36199">
        <ele>47</ele>
        <time>2013-07-07T12:46:26Z</time>
      </trkpt>
      <trkpt lat="44.72199" lon="-0.36203">
        <ele>45</ele>
        <time>2013-07-07T12:46:34Z</time>
      </trkpt>
      <trkpt lat="44.72175" lon="-0.36204">
        <ele>42</ele>
        <time>2013-07-07T12:46:41Z</time>
      </trkpt>
      <trkpt lat="44.72141" lon="-0.36207">
        <ele>38</ele>
        <time>2013-07-07T12:46:47Z</time>
      </trkpt>
      <trkpt lat="44.721" lon="-0.36211">
        <ele>32</ele>
        <time>2013-07-07T12:46:54Z</time>
      </trkpt>
      <trkpt lat="44.72088" lon="-0.36214">
        <ele>30</ele>
        <time>2013-07-07T12:46:57Z</time>
      </trkpt>
      <trkpt lat="44.72088" lon="-0.3623">
        <ele>29</ele>
        <time>2013-07-07T12:47:02Z</time>
      </trkpt>
      <trkpt lat="44.72089" lon="-0.36235">
        <ele>29</ele>
        <time>2013-07-07T12:47:04Z</time>
      </trkpt>
      <trkpt lat="44.72098" lon="-0.36265">
        <ele>30</ele>
        <time>2013-07-07T12:47:11Z</time>
      </trkpt>
      <trkpt lat="44.72096" lon="-0.36291">
        <ele>28</ele>
        <time>2013-07-07T12:47:17Z</time>
      </trkpt>
      <trkpt lat="44.72087" lon="-0.36317">
        <ele>28</ele>
        <time>2013-07-07T12:47:23Z</time>
      </trkpt>
      <trkpt lat="44.72079" lon="-0.36336">
        <ele>28</ele>
        <time>2013-07-07T12:47:29Z</time>
      </trkpt>
      <trkpt lat="44.72066" lon="-0.36364">
        <ele>28</ele>
        <time>2013-07-07T12:47:36Z</time>
      </trkpt>
      <trkpt lat="44.72049" lon="-0.36403">
        <ele>26</ele>
        <time>2013-07-07T12:47:44Z</time>
      </trkpt>
      <trkpt lat="44.72039" lon="-0.36426">
        <ele>25</ele>
        <time>2013-07-07T12:47:49Z</time>
      </trkpt>
      <trkpt lat="44.72039" lon="-0.3643">
        <ele>25</ele>
        <time>2013-07-07T12:47:50Z</time>
      </trkpt>
      <trkpt lat="44.72041" lon="-0.36433">
        <ele>26</ele>
        <time>2013-07-07T12:47:51Z</time>
      </trkpt>
      <trkpt lat="44.72043" lon="-0.36434">
        <ele>26</ele>
        <time>2013-07-07T12:47:52Z</time>
      </trkpt>
      <trkpt lat="44.72045" lon="-0.36435">
        <ele>26</ele>
        <time>2013-07-07T12:47:53Z</time>
      </trkpt>
      <trkpt lat="44.72047" lon="-0.36436">
        <ele>27</ele>
        <time>2013-07-07T12:47:54Z</time>
      </trkpt>
      <trkpt lat="44.72049" lon="-0.36436">
        <ele>27</ele>
        <time>2013-07-07T12:47:55Z</time>
      </trkpt>
      <trkpt lat="44.7205" lon="-0.36437">
        <ele>27</ele>
        <time>2013-07-07T12:47:56Z</time>
      </trkpt>
      <trkpt lat="44.72066" lon="-0.36442">
        <ele>30</ele>
        <time>2013-07-07T12:48:04Z</time>
      </trkpt>
      <trkpt lat="44.72074" lon="-0.36445">
        <ele>31</ele>
        <time>2013-07-07T12:48:11Z</time>
      </trkpt>
      <trkpt lat="44.72075" lon="-0.36447">
        <ele>31</ele>
        <time>2013-07-07T12:48:12Z</time>
      </trkpt>
      <trkpt lat="44.72075" lon="-0.36449">
        <ele>31</ele>
        <time>2013-07-07T12:48:13Z</time>
      </trkpt>
      <trkpt lat="44.72075" lon="-0.36452">
        <ele>31</ele>
        <time>2013-07-07T12:48:14Z</time>
      </trkpt>
      <trkpt lat="44.72074" lon="-0.36455">
        <ele>31</ele>
        <time>2013-07-07T12:48:15Z</time>
      </trkpt>
      <trkpt lat="44.72074" lon="-0.36458">
        <ele>31</ele>
        <time>2013-07-07T12:48:16Z</time>
      </trkpt>
      <trkpt lat="44.72073" lon="-0.3646">
        <ele>31</ele>
        <time>2013-07-07T12:48:17Z</time>
      </trkpt>
      <trkpt lat="44.72068" lon="-0.36488">
        <ele>31</ele>
        <time>2013-07-07T12:48:26Z</time>
      </trkpt>
      <trkpt lat="44.72063" lon="-0.36514">
        <ele>31</ele>
        <time>2013-07-07T12:48:35Z</time>
      </trkpt>
      <trkpt lat="44.72059" lon="-0.36545">
        <ele>31</ele>
        <time>2013-07-07T12:48:45Z</time>
      </trkpt>
      <trkpt lat="44.7206" lon="-0.36571">
        <ele>32</ele>
        <time>2013-07-07T12:48:53Z</time>
      </trkpt>
      <trkpt lat="44.72054" lon="-0.36593">
        <ele>30</ele>
        <time>2013-07-07T12:48:59Z</time>
      </trkpt>
      <trkpt lat="44.72047" lon="-0.36614">
        <ele>30</ele>
        <time>2013-07-07T12:49:06Z</time>
      </trkpt>
      <trkpt lat="44.72043" lon="-0.36634">
        <ele>30</ele>
        <time>2013-07-07T12:49:12Z</time>
      </trkpt>
      <trkpt lat="44.72045" lon="-0.36659">
        <ele>33</ele>
        <time>2013-07-07T12:49:21Z</time>
      </trkpt>
      <trkpt lat="44.72038" lon="-0.36684">
        <ele>33</ele>
        <time>2013-07-07T12:49:29Z</time>
      </trkpt>
      <trkpt lat="44.72037" lon="-0.36719">
        <ele>35</ele>
        <time>2013-07-07T12:49:38Z</time>
      </trkpt>
      <trkpt lat="44.72039" lon="-0.36742">
        <ele>36</ele>
        <time>2013-07-07T12:49:45Z</time>
      </trkpt>
      <trkpt lat="44.72037" lon="-0.36768">
        <ele>37</ele>
        <time>2013-07-07T12:49:53Z</time>
      </trkpt>
      <trkpt lat="44.72039" lon="-0.36799">
        <ele>39</ele>
        <time>2013-07-07T12:50:01Z</time>
      </trkpt>
      <trkpt lat="44.72039" lon="-0.3682">
        <ele>40</ele>
        <time>2013-07-07T12:50:08Z</time>
      </trkpt>
      <trkpt lat="44.72038" lon="-0.36825">
        <ele>40</ele>
        <time>2013-07-07T12:50:10Z</time>
      </trkpt>
      <trkpt lat="44.72029" lon="-0.36837">
        <ele>39</ele>
        <time>2013-07-07T12:50:14Z</time>
      </trkpt>
      <trkpt lat="44.72011" lon="-0.36858">
        <ele>36</ele>
        <time>2013-07-07T12:50:23Z</time>
      </trkpt>
      <trkpt lat="44.71993" lon="-0.36873">
        <ele>33</ele>
        <time>2013-07-07T12:50:31Z</time>
      </trkpt>
      <trkpt lat="44.71992" lon="-0.36875">
        <ele>33</ele>
        <time>2013-07-07T12:50:32Z</time>
      </trkpt>
      <trkpt lat="44.71992" lon="-0.36892">
        <ele>34</ele>
        <time>2013-07-07T12:50:37Z</time>
      </trkpt>
      <trkpt lat="44.71996" lon="-0.36904">
        <ele>36</ele>
        <time>2013-07-07T12:50:41Z</time>
      </trkpt>
      <trkpt lat="44.71997" lon="-0.36913">
        <ele>37</ele>
        <time>2013-07-07T12:50:44Z</time>
      </trkpt>
      <trkpt lat="44.7199" lon="-0.36947">
        <ele>36</ele>
        <time>2013-07-07T12:50:53Z</time>
      </trkpt>
      <trkpt lat="44.71988" lon="-0.36959">
        <ele>36</ele>
        <time>2013-07-07T12:50:57Z</time>
      </trkpt>
      <trkpt lat="44.7198" lon="-0.36981">
        <ele>34</ele>
        <time>2013-07-07T12:51:05Z</time>
      </trkpt>
      <trkpt lat="44.71977" lon="-0.37003">
        <ele>33</ele>
        <time>2013-07-07T12:51:12Z</time>
      </trkpt>
      <trkpt lat="44.71977" lon="-0.37006">
        <ele>33</ele>
        <time>2013-07-07T12:51:13Z</time>
      </trkpt>
      <trkpt lat="44.71976" lon="-0.37026">
        <ele>32</ele>
        <time>2013-07-07T12:51:19Z</time>
      </trkpt>
      <trkpt lat="44.71983" lon="-0.37066">
        <ele>33</ele>
        <time>2013-07-07T12:51:28Z</time>
      </trkpt>
      <trkpt lat="44.71987" lon="-0.37109">
        <ele>33</ele>
        <time>2013-07-07T12:51:36Z</time>
      </trkpt>
      <trkpt lat="44.71995" lon="-0.37127">
        <ele>35</ele>
        <time>2013-07-07T12:51:42Z</time>
      </trkpt>
      <trkpt lat="44.72008" lon="-0.37146">
        <ele>38</ele>
        <time>2013-07-07T12:51:50Z</time>
      </trkpt>
      <trkpt lat="44.72013" lon="-0.37149">
        <ele>38</ele>
        <time>2013-07-07T12:51:58Z</time>
      </trkpt>
      <trkpt lat="44.72017" lon="-0.37146">
        <ele>39</ele>
        <time>2013-07-07T12:52:05Z</time>
      </trkpt>
      <trkpt lat="44.72018" lon="-0.37144">
        <ele>40</ele>
        <time>2013-07-07T12:52:13Z</time>
      </trkpt>
      <trkpt lat="44.72018" lon="-0.37144">
        <ele>40</ele>
        <time>2013-07-07T12:52:22Z</time>
      </trkpt>
      <trkpt lat="44.72018" lon="-0.37141">
        <ele>40</ele>
        <time>2013-07-07T12:52:30Z</time>
      </trkpt>
      <trkpt lat="44.72017" lon="-0.37142">
        <ele>40</ele>
        <time>2013-07-07T12:52:44Z</time>
      </trkpt>
      <trkpt lat="44.72018" lon="-0.37141">
        <ele>40</ele>
        <time>2013-07-07T12:52:53Z</time>
      </trkpt>
      <trkpt lat="44.72017" lon="-0.37142">
        <ele>40</ele>
        <time>2013-07-07T12:53:06Z</time>
      </trkpt>
      <trkpt lat="44.72017" lon="-0.37142">
        <ele>40</ele>
        <time>2013-07-07T12:53:18Z</time>
      </trkpt>
      <trkpt lat="44.72018" lon="-0.37142">
        <ele>40</ele>
        <time>2013-07-07T12:53:34Z</time>
      </trkpt>
      <trkpt lat="44.72018" lon="-0.37142">
        <ele>40</ele>
        <time>2013-07-07T12:53:48Z</time>
      </trkpt>
      <trkpt lat="44.72018" lon="-0.37141">
        <ele>40</ele>
        <time>2013-07-07T12:53:53Z</time>
      </trkpt>
      <trkpt lat="44.72019" lon="-0.37137">
        <ele>40</ele>
        <time>2013-07-07T12:53:59Z</time>
      </trkpt>
      <trkpt lat="44.72019" lon="-0.37136">
        <ele>40</ele>
        <time>2013-07-07T12:54:04Z</time>
      </trkpt>
      <trkpt lat="44.7202" lon="-0.37134">
        <ele>41</ele>
        <time>2013-07-07T12:54:19Z</time>
      </trkpt>
      <trkpt lat="44.72017" lon="-0.37132">
        <ele>40</ele>
        <time>2013-07-07T12:54:26Z</time>
      </trkpt>
      <trkpt lat="44.72017" lon="-0.37132">
        <ele>40</ele>
        <time>2013-07-07T12:54:38Z</time>
      </trkpt>
      <trkpt lat="44.72017" lon="-0.37131">
        <ele>40</ele>
        <time>2013-07-07T12:54:48Z</time>
      </trkpt>
      <trkpt lat="44.72015" lon="-0.3713">
        <ele>40</ele>
        <time>2013-07-07T12:54:55Z</time>
      </trkpt>
      <trkpt lat="44.72015" lon="-0.37128">
        <ele>40</ele>
        <time>2013-07-07T12:55:01Z</time>
      </trkpt>
      <trkpt lat="44.72013" lon="-0.37113">
        <ele>41</ele>
        <time>2013-07-07T12:55:09Z</time>
      </trkpt>
      <trkpt lat="44.72013" lon="-0.37111">
        <ele>41</ele>
        <time>2013-07-07T12:55:10Z</time>
      </trkpt>
      <trkpt lat="44.72012" lon="-0.37101">
        <ele>41</ele>
        <time>2013-07-07T12:55:14Z</time>
      </trkpt>
      <trkpt lat="44.72009" lon="-0.37075">
        <ele>42</ele>
        <time>2013-07-07T12:55:23Z</time>
      </trkpt>
      <trkpt lat="44.72006" lon="-0.37052">
        <ele>42</ele>
        <time>2013-07-07T12:55:30Z</time>
      </trkpt>
      <trkpt lat="44.72001" lon="-0.37022">
        <ele>40</ele>
        <time>2013-07-07T12:55:38Z</time>
      </trkpt>
      <trkpt lat="44.72001" lon="-0.36993">
        <ele>40</ele>
        <time>2013-07-07T12:55:46Z</time>
      </trkpt>
      <trkpt lat="44.72002" lon="-0.36964">
        <ele>40</ele>
        <time>2013-07-07T12:55:52Z</time>
      </trkpt>
      <trkpt lat="44.72009" lon="-0.36929">
        <ele>40</ele>
        <time>2013-07-07T12:56:00Z</time>
      </trkpt>
      <trkpt lat="44.7202" lon="-0.36899">
        <ele>41</ele>
        <time>2013-07-07T12:56:08Z</time>
      </trkpt>
      <trkpt lat="44.72038" lon="-0.36885">
        <ele>44</ele>
        <time>2013-07-07T12:56:15Z</time>
      </trkpt>
      <trkpt lat="44.72052" lon="-0.3688">
        <ele>46</ele>
        <time>2013-07-07T12:56:22Z</time>
      </trkpt>
      <trkpt lat="44.72053" lon="-0.36879">
        <ele>46</ele>
        <time>2013-07-07T12:56:23Z</time>
      </trkpt>
      <trkpt lat="44.72056" lon="-0.36879">
        <ele>47</ele>
        <time>2013-07-07T12:56:25Z</time>
      </trkpt>
      <trkpt lat="44.72062" lon="-0.36878">
        <ele>48</ele>
        <time>2013-07-07T12:56:30Z</time>
      </trkpt>
      <trkpt lat="44.72066" lon="-0.36877">
        <ele>48</ele>
        <time>2013-07-07T12:56:33Z</time>
      </trkpt>
      <trkpt lat="44.72074" lon="-0.36875">
        <ele>50</ele>
        <time>2013-07-07T12:56:39Z</time>
      </trkpt>
      <trkpt lat="44.72086" lon="-0.36875">
        <ele>52</ele>
        <time>2013-07-07T12:56:48Z</time>
      </trkpt>
      <trkpt lat="44.72091" lon="-0.36875">
        <ele>53</ele>
        <time>2013-07-07T12:56:53Z</time>
      </trkpt>
      <trkpt lat="44.72101" lon="-0.36873">
        <ele>54</ele>
        <time>2013-07-07T12:57:03Z</time>
      </trkpt>
      <trkpt lat="44.72108" lon="-0.36872">
        <ele>55</ele>
        <time>2013-07-07T12:57:09Z</time>
      </trkpt>
      <trkpt lat="44.72111" lon="-0.36873">
        <ele>56</ele>
        <time>2013-07-07T12:57:12Z</time>
      </trkpt>
      <trkpt lat="44.72121" lon="-0.3687">
        <ele>57</ele>
        <time>2013-07-07T12:57:22Z</time>
      </trkpt>
      <trkpt lat="44.72132" lon="-0.3687">
        <ele>59</ele>
        <time>2013-07-07T12:57:32Z</time>
      </trkpt>
      <trkpt lat="44.72135" lon="-0.3687">
        <ele>59</ele>
        <time>2013-07-07T12:57:34Z</time>
      </trkpt>
      <trkpt lat="44.72146" lon="-0.36869">
        <ele>60</ele>
        <time>2013-07-07T12:57:43Z</time>
      </trkpt>
      <trkpt lat="44.72153" lon="-0.36869">
        <ele>61</ele>
        <time>2013-07-07T12:57:50Z</time>
      </trkpt>
      <trkpt lat="44.72154" lon="-0.36869">
        <ele>62</ele>
        <time>2013-07-07T12:57:52Z</time>
      </trkpt>
      <trkpt lat="44.72166" lon="-0.36866">
        <ele>63</ele>
        <time>2013-07-07T12:58:03Z</time>
      </trkpt>
      <trkpt lat="44.72174" lon="-0.36865">
        <ele>64</ele>
        <time>2013-07-07T12:58:11Z</time>
      </trkpt>
      <trkpt lat="44.72179" lon="-0.36866">
        <ele>65</ele>
        <time>2013-07-07T12:58:16Z</time>
      </trkpt>
      <trkpt lat="44.72185" lon="-0.36865">
        <ele>66</ele>
        <time>2013-07-07T12:58:22Z</time>
      </trkpt>
      <trkpt lat="44.72193" lon="-0.36866">
        <ele>67</ele>
        <time>2013-07-07T12:58:30Z</time>
      </trkpt>
      <trkpt lat="44.72196" lon="-0.36881">
        <ele>68</ele>
        <time>2013-07-07T12:58:39Z</time>
      </trkpt>
      <trkpt lat="44.72196" lon="-0.36892">
        <ele>68</ele>
        <time>2013-07-07T12:58:44Z</time>
      </trkpt>
      <trkpt lat="44.72198" lon="-0.36912">
        <ele>69</ele>
        <time>2013-07-07T12:58:54Z</time>
      </trkpt>
      <trkpt lat="44.72199" lon="-0.36934">
        <ele>69</ele>
        <time>2013-07-07T12:59:01Z</time>
      </trkpt>
      <trkpt lat="44.72202" lon="-0.36957">
        <ele>70</ele>
        <time>2013-07-07T12:59:09Z</time>
      </trkpt>
      <trkpt lat="44.72203" lon="-0.36987">
        <ele>71</ele>
        <time>2013-07-07T12:59:19Z</time>
      </trkpt>
      <trkpt lat="44.72205" lon="-0.37006">
        <ele>71</ele>
        <time>2013-07-07T12:59:27Z</time>
      </trkpt>
      <trkpt lat="44.72207" lon="-0.37028">
        <ele>71</ele>
        <time>2013-07-07T12:59:35Z</time>
      </trkpt>
      <trkpt lat="44.72209" lon="-0.37049">
        <ele>71</ele>
        <time>2013-07-07T12:59:43Z</time>
      </trkpt>
      <trkpt lat="44.72212" lon="-0.37068">
        <ele>71</ele>
        <time>2013-07-07T12:59:49Z</time>
      </trkpt>
      <trkpt lat="44.72223" lon="-0.37067">
        <ele>72</ele>
        <time>2013-07-07T12:59:55Z</time>
      </trkpt>
      <trkpt lat="44.72231" lon="-0.37059">
        <ele>73</ele>
        <time>2013-07-07T13:00:00Z</time>
      </trkpt>
      <trkpt lat="44.72244" lon="-0.37049">
        <ele>74</ele>
        <time>2013-07-07T13:00:08Z</time>
      </trkpt>
      <trkpt lat="44.72253" lon="-0.3704">
        <ele>74</ele>
        <time>2013-07-07T13:00:15Z</time>
      </trkpt>
      <trkpt lat="44.72264" lon="-0.37031">
        <ele>75</ele>
        <time>2013-07-07T13:00:22Z</time>
      </trkpt>
      <trkpt lat="44.72276" lon="-0.3702">
        <ele>75</ele>
        <time>2013-07-07T13:00:30Z</time>
      </trkpt>
      <trkpt lat="44.72287" lon="-0.3701">
        <ele>76</ele>
        <time>2013-07-07T13:00:37Z</time>
      </trkpt>
      <trkpt lat="44.72301" lon="-0.36998">
        <ele>76</ele>
        <time>2013-07-07T13:00:45Z</time>
      </trkpt>
      <trkpt lat="44.72319" lon="-0.36983">
        <ele>76</ele>
        <time>2013-07-07T13:00:54Z</time>
      </trkpt>
      <trkpt lat="44.72334" lon="-0.36972">
        <ele>76</ele>
        <time>2013-07-07T13:01:01Z</time>
      </trkpt>
      <trkpt lat="44.72353" lon="-0.36959">
        <ele>76</ele>
        <time>2013-07-07T13:01:10Z</time>
      </trkpt>
      <trkpt lat="44.7237" lon="-0.36945">
        <ele>77</ele>
        <time>2013-07-07T13:01:16Z</time>
      </trkpt>
      <trkpt lat="44.72387" lon="-0.36931">
        <ele>77</ele>
        <time>2013-07-07T13:01:23Z</time>
      </trkpt>
      <trkpt lat="44.7241" lon="-0.36912">
        <ele>79</ele>
        <time>2013-07-07T13:01:31Z</time>
      </trkpt>
      <trkpt lat="44.72435" lon="-0.36888">
        <ele>79</ele>
        <time>2013-07-07T13:01:40Z</time>
      </trkpt>
      <trkpt lat="44.72454" lon="-0.36858">
        <ele>79</ele>
        <time>2013-07-07T13:01:48Z</time>
      </trkpt>
      <trkpt lat="44.72472" lon="-0.36835">
        <ele>79</ele>
        <time>2013-07-07T13:01:56Z</time>
      </trkpt>
      <trkpt lat="44.72492" lon="-0.36812">
        <ele>78</ele>
        <time>2013-07-07T13:02:03Z</time>
      </trkpt>
      <trkpt lat="44.72512" lon="-0.36803">
        <ele>77</ele>
        <time>2013-07-07T13:02:09Z</time>
      </trkpt>
      <trkpt lat="44.72517" lon="-0.36802">
        <ele>77</ele>
        <time>2013-07-07T13:02:10Z</time>
      </trkpt>
      <trkpt lat="44.72547" lon="-0.36803">
        <ele>76</ele>
        <time>2013-07-07T13:02:18Z</time>
      </trkpt>
      <trkpt lat="44.72551" lon="-0.36807">
        <ele>75</ele>
        <time>2013-07-07T13:02:21Z</time>
      </trkpt>
      <trkpt lat="44.72552" lon="-0.3681">
        <ele>75</ele>
        <time>2013-07-07T13:02:22Z</time>
      </trkpt>
      <trkpt lat="44.72551" lon="-0.36814">
        <ele>75</ele>
        <time>2013-07-07T13:02:23Z</time>
      </trkpt>
      <trkpt lat="44.7255" lon="-0.36817">
        <ele>74</ele>
        <time>2013-07-07T13:02:24Z</time>
      </trkpt>
      <trkpt lat="44.72548" lon="-0.3682">
        <ele>74</ele>
        <time>2013-07-07T13:02:25Z</time>
      </trkpt>
      <trkpt lat="44.72546" lon="-0.36822">
        <ele>74</ele>
        <time>2013-07-07T13:02:26Z</time>
      </trkpt>
      <trkpt lat="44.72546" lon="-0.36826">
        <ele>74</ele>
        <time>2013-07-07T13:02:27Z</time>
      </trkpt>
      <trkpt lat="44.72547" lon="-0.3683">
        <ele>73</ele>
        <time>2013-07-07T13:02:28Z</time>
      </trkpt>
      <trkpt lat="44.72549" lon="-0.36833">
        <ele>73</ele>
        <time>2013-07-07T13:02:29Z</time>
      </trkpt>
      <trkpt lat="44.72551" lon="-0.36835">
        <ele>73</ele>
        <time>2013-07-07T13:02:30Z</time>
      </trkpt>
      <trkpt lat="44.72553" lon="-0.36836">
        <ele>72</ele>
        <time>2013-07-07T13:02:31Z</time>
      </trkpt>
      <trkpt lat="44.72555" lon="-0.36837">
        <ele>72</ele>
        <time>2013-07-07T13:02:32Z</time>
      </trkpt>
      <trkpt lat="44.72558" lon="-0.36838">
        <ele>73</ele>
        <time>2013-07-07T13:02:33Z</time>
      </trkpt>
      <trkpt lat="44.72573" lon="-0.36844">
        <ele>73</ele>
        <time>2013-07-07T13:02:40Z</time>
      </trkpt>
      <trkpt lat="44.72574" lon="-0.36846">
        <ele>73</ele>
        <time>2013-07-07T13:02:41Z</time>
      </trkpt>
      <trkpt lat="44.72574" lon="-0.3685">
        <ele>72</ele>
        <time>2013-07-07T13:02:42Z</time>
      </trkpt>
      <trkpt lat="44.72574" lon="-0.36853">
        <ele>72</ele>
        <time>2013-07-07T13:02:43Z</time>
      </trkpt>
      <trkpt lat="44.72574" lon="-0.36856">
        <ele>72</ele>
        <time>2013-07-07T13:02:44Z</time>
      </trkpt>
      <trkpt lat="44.72575" lon="-0.36859">
        <ele>72</ele>
        <time>2013-07-07T13:02:45Z</time>
      </trkpt>
      <trkpt lat="44.72576" lon="-0.36861">
        <ele>71</ele>
        <time>2013-07-07T13:02:46Z</time>
      </trkpt>
      <trkpt lat="44.7258" lon="-0.36868">
        <ele>71</ele>
        <time>2013-07-07T13:02:50Z</time>
      </trkpt>
      <trkpt lat="44.7258" lon="-0.36871">
        <ele>71</ele>
        <time>2013-07-07T13:02:55Z</time>
      </trkpt>
      <trkpt lat="44.72579" lon="-0.36871">
        <ele>71</ele>
        <time>2013-07-07T13:02:56Z</time>
      </trkpt>
      <trkpt lat="44.72578" lon="-0.36871">
        <ele>71</ele>
        <time>2013-07-07T13:02:57Z</time>
      </trkpt>
      <trkpt lat="44.72576" lon="-0.36871">
        <ele>71</ele>
        <time>2013-07-07T13:02:58Z</time>
      </trkpt>
      <trkpt lat="44.72574" lon="-0.36871">
        <ele>70</ele>
        <time>2013-07-07T13:02:59Z</time>
      </trkpt>
      <trkpt lat="44.72573" lon="-0.36873">
        <ele>70</ele>
        <time>2013-07-07T13:03:00Z</time>
      </trkpt>
      <trkpt lat="44.72571" lon="-0.36876">
        <ele>70</ele>
        <time>2013-07-07T13:03:01Z</time>
      </trkpt>
      <trkpt lat="44.7257" lon="-0.3688">
        <ele>69</ele>
        <time>2013-07-07T13:03:02Z</time>
      </trkpt>
      <trkpt lat="44.72563" lon="-0.36908">
        <ele>67</ele>
        <time>2013-07-07T13:03:08Z</time>
      </trkpt>
      <trkpt lat="44.72559" lon="-0.36917">
        <ele>66</ele>
        <time>2013-07-07T13:03:10Z</time>
      </trkpt>
      <trkpt lat="44.72555" lon="-0.36921">
        <ele>65</ele>
        <time>2013-07-07T13:03:11Z</time>
      </trkpt>
      <trkpt lat="44.72551" lon="-0.36924">
        <ele>64</ele>
        <time>2013-07-07T13:03:12Z</time>
      </trkpt>
      <trkpt lat="44.72548" lon="-0.36927">
        <ele>64</ele>
        <time>2013-07-07T13:03:13Z</time>
      </trkpt>
      <trkpt lat="44.72546" lon="-0.36932">
        <ele>63</ele>
        <time>2013-07-07T13:03:14Z</time>
      </trkpt>
      <trkpt lat="44.72544" lon="-0.36938">
        <ele>63</ele>
        <time>2013-07-07T13:03:15Z</time>
      </trkpt>
      <trkpt lat="44.72543" lon="-0.36943">
        <ele>63</ele>
        <time>2013-07-07T13:03:16Z</time>
      </trkpt>
      <trkpt lat="44.72541" lon="-0.36949">
        <ele>62</ele>
        <time>2013-07-07T13:03:17Z</time>
      </trkpt>
      <trkpt lat="44.7254" lon="-0.36954">
        <ele>62</ele>
        <time>2013-07-07T13:03:18Z</time>
      </trkpt>
      <trkpt lat="44.72539" lon="-0.36959">
        <ele>62</ele>
        <time>2013-07-07T13:03:19Z</time>
      </trkpt>
      <trkpt lat="44.72537" lon="-0.36965">
        <ele>62</ele>
        <time>2013-07-07T13:03:20Z</time>
      </trkpt>
      <trkpt lat="44.72536" lon="-0.3697">
        <ele>61</ele>
        <time>2013-07-07T13:03:21Z</time>
      </trkpt>
      <trkpt lat="44.72532" lon="-0.36987">
        <ele>61</ele>
        <time>2013-07-07T13:03:24Z</time>
      </trkpt>
      <trkpt lat="44.72532" lon="-0.36993">
        <ele>60</ele>
        <time>2013-07-07T13:03:25Z</time>
      </trkpt>
      <trkpt lat="44.72532" lon="-0.37006">
        <ele>60</ele>
        <time>2013-07-07T13:03:27Z</time>
      </trkpt>
      <trkpt lat="44.72532" lon="-0.37013">
        <ele>59</ele>
        <time>2013-07-07T13:03:28Z</time>
      </trkpt>
      <trkpt lat="44.72527" lon="-0.37064">
        <ele>58</ele>
        <time>2013-07-07T13:03:34Z</time>
      </trkpt>
      <trkpt lat="44.72526" lon="-0.3708">
        <ele>57</ele>
        <time>2013-07-07T13:03:36Z</time>
      </trkpt>
      <trkpt lat="44.72527" lon="-0.37087">
        <ele>57</ele>
        <time>2013-07-07T13:03:37Z</time>
      </trkpt>
      <trkpt lat="44.72531" lon="-0.37099">
        <ele>57</ele>
        <time>2013-07-07T13:03:41Z</time>
      </trkpt>
      <trkpt lat="44.72531" lon="-0.37099">
        <ele>57</ele>
        <time>2013-07-07T13:03:43Z</time>
      </trkpt>
      <trkpt lat="44.72529" lon="-0.37115">
        <ele>57</ele>
        <time>2013-07-07T13:03:48Z</time>
      </trkpt>
      <trkpt lat="44.72523" lon="-0.37137">
        <ele>56</ele>
        <time>2013-07-07T13:03:54Z</time>
      </trkpt>
      <trkpt lat="44.72523" lon="-0.37165">
        <ele>56</ele>
        <time>2013-07-07T13:04:01Z</time>
      </trkpt>
      <trkpt lat="44.72535" lon="-0.37181">
        <ele>57</ele>
        <time>2013-07-07T13:04:08Z</time>
      </trkpt>
      <trkpt lat="44.72549" lon="-0.37199">
        <ele>59</ele>
        <time>2013-07-07T13:04:17Z</time>
      </trkpt>
      <trkpt lat="44.72562" lon="-0.37215">
        <ele>62</ele>
        <time>2013-07-07T13:04:27Z</time>
      </trkpt>
      <trkpt lat="44.7257" lon="-0.37224">
        <ele>64</ele>
        <time>2013-07-07T13:04:34Z</time>
      </trkpt>
      <trkpt lat="44.72579" lon="-0.37233">
        <ele>66</ele>
        <time>2013-07-07T13:04:43Z</time>
      </trkpt>
      <trkpt lat="44.72581" lon="-0.37236">
        <ele>67</ele>
        <time>2013-07-07T13:04:45Z</time>
      </trkpt>
      <trkpt lat="44.72587" lon="-0.37249">
        <ele>68</ele>
        <time>2013-07-07T13:04:55Z</time>
      </trkpt>
      <trkpt lat="44.72578" lon="-0.37268">
        <ele>68</ele>
        <time>2013-07-07T13:05:07Z</time>
      </trkpt>
      <trkpt lat="44.72568" lon="-0.37288">
        <ele>67</ele>
        <time>2013-07-07T13:05:16Z</time>
      </trkpt>
      <trkpt lat="44.72553" lon="-0.37314">
        <ele>65</ele>
        <time>2013-07-07T13:05:22Z</time>
      </trkpt>
      <trkpt lat="44.72531" lon="-0.37351">
        <ele>63</ele>
        <time>2013-07-07T13:05:29Z</time>
      </trkpt>
      <trkpt lat="44.72522" lon="-0.37365">
        <ele>63</ele>
        <time>2013-07-07T13:05:31Z</time>
      </trkpt>
      <trkpt lat="44.72502" lon="-0.37389">
        <ele>62</ele>
        <time>2013-07-07T13:05:36Z</time>
      </trkpt>
      <trkpt lat="44.72485" lon="-0.37409">
        <ele>62</ele>
        <time>2013-07-07T13:05:43Z</time>
      </trkpt>
      <trkpt lat="44.7247" lon="-0.37427">
        <ele>63</ele>
        <time>2013-07-07T13:05:50Z</time>
      </trkpt>
      <trkpt lat="44.7246" lon="-0.37437">
        <ele>63</ele>
        <time>2013-07-07T13:05:56Z</time>
      </trkpt>
      <trkpt lat="44.72455" lon="-0.37442">
        <ele>63</ele>
        <time>2013-07-07T13:06:00Z</time>
      </trkpt>
      <trkpt lat="44.72447" lon="-0.37448">
        <ele>63</ele>
        <time>2013-07-07T13:06:07Z</time>
      </trkpt>
      <trkpt lat="44.72449" lon="-0.37456">
        <ele>64</ele>
        <time>2013-07-07T13:06:12Z</time>
      </trkpt>
      <trkpt lat="44.7245" lon="-0.37458">
        <ele>64</ele>
        <time>2013-07-07T13:06:13Z</time>
      </trkpt>
      <trkpt lat="44.72456" lon="-0.37473">
        <ele>66</ele>
        <time>2013-07-07T13:06:22Z</time>
      </trkpt>
      <trkpt lat="44.72463" lon="-0.37488">
        <ele>68</ele>
        <time>2013-07-07T13:06:30Z</time>
      </trkpt>
      <trkpt lat="44.72471" lon="-0.37506">
        <ele>70</ele>
        <time>2013-07-07T13:06:39Z</time>
      </trkpt>
      <trkpt lat="44.72477" lon="-0.37519">
        <ele>71</ele>
        <time>2013-07-07T13:06:46Z</time>
      </trkpt>
      <trkpt lat="44.72486" lon="-0.37539">
        <ele>72</ele>
        <time>2013-07-07T13:06:56Z</time>
      </trkpt>
      <trkpt lat="44.72492" lon="-0.37552">
        <ele>73</ele>
        <time>2013-07-07T13:07:03Z</time>
      </trkpt>
      <trkpt lat="44.72499" lon="-0.37574">
        <ele>73</ele>
        <time>2013-07-07T13:07:13Z</time>
      </trkpt>
      <trkpt lat="44.72507" lon="-0.37589">
        <ele>73</ele>
        <time>2013-07-07T13:07:20Z</time>
      </trkpt>
      <trkpt lat="44.72515" lon="-0.37606">
        <ele>72</ele>
        <time>2013-07-07T13:07:28Z</time>
      </trkpt>
      <trkpt lat="44.7252" lon="-0.37612">
        <ele>72</ele>
        <time>2013-07-07T13:07:31Z</time>
      </trkpt>
      <trkpt lat="44.72531" lon="-0.37607">
        <ele>73</ele>
        <time>2013-07-07T13:07:38Z</time>
      </trkpt>
      <trkpt lat="44.72537" lon="-0.37602">
        <ele>73</ele>
        <time>2013-07-07T13:07:42Z</time>
      </trkpt>
      <trkpt lat="44.7255" lon="-0.37592">
        <ele>74</ele>
        <time>2013-07-07T13:07:50Z</time>
      </trkpt>
      <trkpt lat="44.72564" lon="-0.37579">
        <ele>76</ele>
        <time>2013-07-07T13:07:59Z</time>
      </trkpt>
      <trkpt lat="44.72578" lon="-0.37567">
        <ele>77</ele>
        <time>2013-07-07T13:08:07Z</time>
      </trkpt>
      <trkpt lat="44.72586" lon="-0.37559">
        <ele>77</ele>
        <time>2013-07-07T13:08:13Z</time>
      </trkpt>
      <trkpt lat="44.72598" lon="-0.37548">
        <ele>78</ele>
        <time>2013-07-07T13:08:20Z</time>
      </trkpt>
      <trkpt lat="44.72619" lon="-0.37534">
        <ele>80</ele>
        <time>2013-07-07T13:08:30Z</time>
      </trkpt>
      <trkpt lat="44.72637" lon="-0.37528">
        <ele>80</ele>
        <time>2013-07-07T13:08:38Z</time>
      </trkpt>
      <trkpt lat="44.72644" lon="-0.37529">
        <ele>80</ele>
        <time>2013-07-07T13:08:44Z</time>
      </trkpt>
      <trkpt lat="44.72644" lon="-0.37529">
        <ele>80</ele>
        <time>2013-07-07T13:08:59Z</time>
      </trkpt>
      <trkpt lat="44.72645" lon="-0.3753">
        <ele>80</ele>
        <time>2013-07-07T13:09:20Z</time>
      </trkpt>
      <trkpt lat="44.72645" lon="-0.3753">
        <ele>80</ele>
        <time>2013-07-07T13:09:32Z</time>
      </trkpt>
      <trkpt lat="44.72644" lon="-0.3753">
        <ele>80</ele>
        <time>2013-07-07T13:09:48Z</time>
      </trkpt>
      <trkpt lat="44.72644" lon="-0.3753">
        <ele>80</ele>
        <time>2013-07-07T13:10:03Z</time>
      </trkpt>
      <trkpt lat="44.72644" lon="-0.3753">
        <ele>80</ele>
        <time>2013-07-07T13:10:18Z</time>
      </trkpt>
      <trkpt lat="44.72643" lon="-0.3753">
        <ele>80</ele>
        <time>2013-07-07T13:10:36Z</time>
      </trkpt>
      <trkpt lat="44.72643" lon="-0.3753">
        <ele>80</ele>
        <time>2013-07-07T13:10:57Z</time>
      </trkpt>
      <trkpt lat="44.72643" lon="-0.3753">
        <ele>80</ele>
        <time>2013-07-07T13:11:12Z</time>
      </trkpt>
      <trkpt lat="44.72643" lon="-0.3753">
        <ele>80</ele>
        <time>2013-07-07T13:11:22Z</time>
      </trkpt>
      <trkpt lat="44.72642" lon="-0.37529">
        <ele>80</ele>
        <time>2013-07-07T13:11:31Z</time>
      </trkpt>
      <trkpt lat="44.72642" lon="-0.37528">
        <ele>81</ele>
        <time>2013-07-07T13:11:39Z</time>
      </trkpt>
      <trkpt lat="44.72641" lon="-0.37529">
        <ele>80</ele>
        <time>2013-07-07T13:11:53Z</time>
      </trkpt>
      <trkpt lat="44.72641" lon="-0.37529">
        <ele>80</ele>
        <time>2013-07-07T13:12:08Z</time>
      </trkpt>
      <trkpt lat="44.72638" lon="-0.37529">
        <ele>80</ele>
        <time>2013-07-07T13:12:16Z</time>
      </trkpt>
      <trkpt lat="44.72638" lon="-0.3753">
        <ele>80</ele>
        <time>2013-07-07T13:12:33Z</time>
      </trkpt>
      <trkpt lat="44.72638" lon="-0.37529">
        <ele>80</ele>
        <time>2013-07-07T13:12:44Z</time>
      </trkpt>
      <trkpt lat="44.72638" lon="-0.37529">
        <ele>80</ele>
        <time>2013-07-07T13:12:53Z</time>
      </trkpt>
      <trkpt lat="44.72639" lon="-0.37529">
        <ele>80</ele>
        <time>2013-07-07T13:13:06Z</time>
      </trkpt>
      <trkpt lat="44.72642" lon="-0.37528">
        <ele>81</ele>
        <time>2013-07-07T13:13:11Z</time>
      </trkpt>
      <trkpt lat="44.72647" lon="-0.3753">
        <ele>80</ele>
        <time>2013-07-07T13:13:18Z</time>
      </trkpt>
      <trkpt lat="44.72647" lon="-0.37529">
        <ele>80</ele>
        <time>2013-07-07T13:13:26Z</time>
      </trkpt>
      <trkpt lat="44.72647" lon="-0.37529">
        <ele>80</ele>
        <time>2013-07-07T13:13:36Z</time>
      </trkpt>
      <trkpt lat="44.72648" lon="-0.3753">
        <ele>80</ele>
        <time>2013-07-07T13:13:50Z</time>
      </trkpt>
      <trkpt lat="44.72648" lon="-0.3753">
        <ele>80</ele>
        <time>2013-07-07T13:14:07Z</time>
      </trkpt>
      <trkpt lat="44.72648" lon="-0.3753">
        <ele>80</ele>
        <time>2013-07-07T13:14:23Z</time>
      </trkpt>
      <trkpt lat="44.7265" lon="-0.3753">
        <ele>80</ele>
        <time>2013-07-07T13:14:35Z</time>
      </trkpt>
      <trkpt lat="44.72651" lon="-0.3753">
        <ele>80</ele>
        <time>2013-07-07T13:14:44Z</time>
      </trkpt>
      <trkpt lat="44.72651" lon="-0.3753">
        <ele>80</ele>
        <time>2013-07-07T13:14:58Z</time>
      </trkpt>
      <trkpt lat="44.72652" lon="-0.37531">
        <ele>80</ele>
        <time>2013-07-07T13:15:14Z</time>
      </trkpt>
      <trkpt lat="44.72652" lon="-0.37531">
        <ele>80</ele>
        <time>2013-07-07T13:15:29Z</time>
      </trkpt>
      <trkpt lat="44.72651" lon="-0.37531">
        <ele>80</ele>
        <time>2013-07-07T13:15:44Z</time>
      </trkpt>
      <trkpt lat="44.72652" lon="-0.37531">
        <ele>80</ele>
        <time>2013-07-07T13:15:58Z</time>
      </trkpt>
      <trkpt lat="44.72652" lon="-0.37531">
        <ele>80</ele>
        <time>2013-07-07T13:16:17Z</time>
      </trkpt>
      <trkpt lat="44.72652" lon="-0.37531">
        <ele>80</ele>
        <time>2013-07-07T13:16:31Z</time>
      </trkpt>
      <trkpt lat="44.72652" lon="-0.37532">
        <ele>80</ele>
        <time>2013-07-07T13:16:48Z</time>
      </trkpt>
      <trkpt lat="44.72652" lon="-0.37532">
        <ele>80</ele>
        <time>2013-07-07T13:17:01Z</time>
      </trkpt>
      <trkpt lat="44.72652" lon="-0.37532">
        <ele>80</ele>
        <time>2013-07-07T13:17:18Z</time>
      </trkpt>
      <trkpt lat="44.72652" lon="-0.37532">
        <ele>80</ele>
        <time>2013-07-07T13:17:29Z</time>
      </trkpt>
      <trkpt lat="44.72651" lon="-0.37531">
        <ele>80</ele>
        <time>2013-07-07T13:17:35Z</time>
      </trkpt>
      <trkpt lat="44.72648" lon="-0.37531">
        <ele>80</ele>
        <time>2013-07-07T13:17:43Z</time>
      </trkpt>
      <trkpt lat="44.72645" lon="-0.37532">
        <ele>80</ele>
        <time>2013-07-07T13:17:53Z</time>
      </trkpt>
      <trkpt lat="44.72644" lon="-0.37532">
        <ele>80</ele>
        <time>2013-07-07T13:18:04Z</time>
      </trkpt>
      <trkpt lat="44.72643" lon="-0.37532">
        <ele>80</ele>
        <time>2013-07-07T13:18:19Z</time>
      </trkpt>
      <trkpt lat="44.72643" lon="-0.37532">
        <ele>80</ele>
        <time>2013-07-07T13:18:33Z</time>
      </trkpt>
      <trkpt lat="44.72643" lon="-0.37532">
        <ele>80</ele>
        <time>2013-07-07T13:18:49Z</time>
      </trkpt>
      <trkpt lat="44.72643" lon="-0.37532">
        <ele>80</ele>
        <time>2013-07-07T13:18:56Z</time>
      </trkpt>
      <trkpt lat="44.72643" lon="-0.37531">
        <ele>80</ele>
        <time>2013-07-07T13:19:12Z</time>
      </trkpt>
      <trkpt lat="44.72643" lon="-0.37531">
        <ele>80</ele>
        <time>2013-07-07T13:19:22Z</time>
      </trkpt>
      <trkpt lat="44.72642" lon="-0.37531">
        <ele>80</ele>
        <time>2013-07-07T13:19:36Z</time>
      </trkpt>
      <trkpt lat="44.72642" lon="-0.3753">
        <ele>80</ele>
        <time>2013-07-07T13:19:45Z</time>
      </trkpt>
      <trkpt lat="44.72644" lon="-0.37531">
        <ele>80</ele>
        <time>2013-07-07T13:19:54Z</time>
      </trkpt>
      <trkpt lat="44.72645" lon="-0.37531">
        <ele>80</ele>
        <time>2013-07-07T13:20:00Z</time>
      </trkpt>
      <trkpt lat="44.72646" lon="-0.37531">
        <ele>80</ele>
        <time>2013-07-07T13:20:14Z</time>
      </trkpt>
      <trkpt lat="44.72646" lon="-0.37531">
        <ele>80</ele>
        <time>2013-07-07T13:20:29Z</time>
      </trkpt>
      <trkpt lat="44.72646" lon="-0.37531">
        <ele>80</ele>
        <time>2013-07-07T13:20:38Z</time>
      </trkpt>
      <trkpt lat="44.72646" lon="-0.37531">
        <ele>80</ele>
        <time>2013-07-07T13:20:48Z</time>
      </trkpt>
      <trkpt lat="44.72646" lon="-0.37531">
        <ele>80</ele>
        <time>2013-07-07T13:21:01Z</time>
      </trkpt>
      <trkpt lat="44.72648" lon="-0.37531">
        <ele>80</ele>
        <time>2013-07-07T13:21:09Z</time>
      </trkpt>
      <trkpt lat="44.72648" lon="-0.37531">
        <ele>80</ele>
        <time>2013-07-07T13:21:23Z</time>
      </trkpt>
      <trkpt lat="44.72648" lon="-0.37531">
        <ele>80</ele>
        <time>2013-07-07T13:21:43Z</time>
      </trkpt>
      <trkpt lat="44.72649" lon="-0.37531">
        <ele>80</ele>
        <time>2013-07-07T13:22:06Z</time>
      </trkpt>
      <trkpt lat="44.72649" lon="-0.37531">
        <ele>80</ele>
        <time>2013-07-07T13:22:29Z</time>
      </trkpt>
      <trkpt lat="44.72649" lon="-0.37532">
        <ele>80</ele>
        <time>2013-07-07T13:22:57Z</time>
      </trkpt>
      <trkpt lat="44.7265" lon="-0.37532">
        <ele>80</ele>
        <time>2013-07-07T13:23:21Z</time>
      </trkpt>
      <trkpt lat="44.7265" lon="-0.37533">
        <ele>80</ele>
        <time>2013-07-07T13:23:45Z</time>
      </trkpt>
      <trkpt lat="44.7265" lon="-0.37533">
        <ele>80</ele>
        <time>2013-07-07T13:24:08Z</time>
      </trkpt>
      <trkpt lat="44.7265" lon="-0.37532">
        <ele>80</ele>
        <time>2013-07-07T13:24:32Z</time>
      </trkpt>
      <trkpt lat="44.7265" lon="-0.37533">
        <ele>80</ele>
        <time>2013-07-07T13:24:53Z</time>
      </trkpt>
      <trkpt lat="44.72651" lon="-0.37533">
        <ele>80</ele>
        <time>2013-07-07T13:25:21Z</time>
      </trkpt>
      <trkpt lat="44.72651" lon="-0.37533">
        <ele>80</ele>
        <time>2013-07-07T13:25:46Z</time>
      </trkpt>
      <trkpt lat="44.72651" lon="-0.37533">
        <ele>80</ele>
        <time>2013-07-07T13:26:12Z</time>
      </trkpt>
      <trkpt lat="44.72651" lon="-0.37533">
        <ele>80</ele>
        <time>2013-07-07T13:26:37Z</time>
      </trkpt>
      <trkpt lat="44.72651" lon="-0.37532">
        <ele>80</ele>
        <time>2013-07-07T13:27:00Z</time>
      </trkpt>
      <trkpt lat="44.72652" lon="-0.37532">
        <ele>80</ele>
        <time>2013-07-07T13:27:21Z</time>
      </trkpt>
      <trkpt lat="44.72652" lon="-0.37532">
        <ele>80</ele>
        <time>2013-07-07T13:27:44Z</time>
      </trkpt>
      <trkpt lat="44.72652" lon="-0.37531">
        <ele>80</ele>
        <time>2013-07-07T13:28:07Z</time>
      </trkpt>
      <trkpt lat="44.72652" lon="-0.37531">
        <ele>80</ele>
        <time>2013-07-07T13:28:26Z</time>
      </trkpt>
      <trkpt lat="44.72652" lon="-0.37531">
        <ele>80</ele>
        <time>2013-07-07T13:28:53Z</time>
      </trkpt>
      <trkpt lat="44.72652" lon="-0.37532">
        <ele>80</ele>
        <time>2013-07-07T13:29:17Z</time>
      </trkpt>
      <trkpt lat="44.72652" lon="-0.37532">
        <ele>80</ele>
        <time>2013-07-07T13:29:41Z</time>
      </trkpt>
      <trkpt lat="44.72652" lon="-0.37533">
        <ele>80</ele>
        <time>2013-07-07T13:30:01Z</time>
      </trkpt>
      <trkpt lat="44.72652" lon="-0.37533">
        <ele>80</ele>
        <time>2013-07-07T13:30:24Z</time>
      </trkpt>
      <trkpt lat="44.72652" lon="-0.37533">
        <ele>80</ele>
        <time>2013-07-07T13:30:43Z</time>
      </trkpt>
      <trkpt lat="44.72652" lon="-0.37534">
        <ele>80</ele>
        <time>2013-07-07T13:31:03Z</time>
      </trkpt>
      <trkpt lat="44.72652" lon="-0.37534">
        <ele>80</ele>
        <time>2013-07-07T13:31:22Z</time>
      </trkpt>
      <trkpt lat="44.72652" lon="-0.37534">
        <ele>80</ele>
        <time>2013-07-07T13:31:42Z</time>
      </trkpt>
      <trkpt lat="44.72652" lon="-0.37534">
        <ele>80</ele>
        <time>2013-07-07T13:32:02Z</time>
      </trkpt>
      <trkpt lat="44.72652" lon="-0.37534">
        <ele>80</ele>
        <time>2013-07-07T13:32:23Z</time>
      </trkpt>
      <trkpt lat="44.72652" lon="-0.37534">
        <ele>80</ele>
        <time>2013-07-07T13:32:44Z</time>
      </trkpt>
      <trkpt lat="44.72652" lon="-0.37534">
        <ele>80</ele>
        <time>2013-07-07T13:33:02Z</time>
      </trkpt>
      <trkpt lat="44.72652" lon="-0.37534">
        <ele>80</ele>
        <time>2013-07-07T13:33:22Z</time>
      </trkpt>
      <trkpt lat="44.72652" lon="-0.37533">
        <ele>80</ele>
        <time>2013-07-07T13:33:43Z</time>
      </trkpt>
      <trkpt lat="44.72652" lon="-0.37533">
        <ele>80</ele>
        <time>2013-07-07T13:34:00Z</time>
      </trkpt>
      <trkpt lat="44.72652" lon="-0.37533">
        <ele>80</ele>
        <time>2013-07-07T13:34:17Z</time>
      </trkpt>
      <trkpt lat="44.72652" lon="-0.37533">
        <ele>80</ele>
        <time>2013-07-07T13:34:34Z</time>
      </trkpt>
      <trkpt lat="44.72652" lon="-0.37533">
        <ele>80</ele>
        <time>2013-07-07T13:34:53Z</time>
      </trkpt>
      <trkpt lat="44.72652" lon="-0.37533">
        <ele>80</ele>
        <time>2013-07-07T13:35:13Z</time>
      </trkpt>
      <trkpt lat="44.72652" lon="-0.37533">
        <ele>80</ele>
        <time>2013-07-07T13:35:31Z</time>
      </trkpt>
      <trkpt lat="44.72652" lon="-0.37533">
        <ele>80</ele>
        <time>2013-07-07T13:35:51Z</time>
      </trkpt>
      <trkpt lat="44.72652" lon="-0.37533">
        <ele>80</ele>
        <time>2013-07-07T13:36:08Z</time>
      </trkpt>
      <trkpt lat="44.72652" lon="-0.37533">
        <ele>80</ele>
        <time>2013-07-07T13:36:26Z</time>
      </trkpt>
      <trkpt lat="44.72652" lon="-0.37533">
        <ele>80</ele>
        <time>2013-07-07T13:36:40Z</time>
      </trkpt>
      <trkpt lat="44.72652" lon="-0.37532">
        <ele>80</ele>
        <time>2013-07-07T13:36:59Z</time>
      </trkpt>
      <trkpt lat="44.72652" lon="-0.37532">
        <ele>80</ele>
        <time>2013-07-07T13:37:19Z</time>
      </trkpt>
      <trkpt lat="44.72652" lon="-0.37532">
        <ele>80</ele>
        <time>2013-07-07T13:37:41Z</time>
      </trkpt>
      <trkpt lat="44.72651" lon="-0.37531">
        <ele>80</ele>
        <time>2013-07-07T13:38:03Z</time>
      </trkpt>
      <trkpt lat="44.72651" lon="-0.37531">
        <ele>80</ele>
        <time>2013-07-07T13:38:23Z</time>
      </trkpt>
      <trkpt lat="44.72651" lon="-0.37531">
        <ele>80</ele>
        <time>2013-07-07T13:38:42Z</time>
      </trkpt>
      <trkpt lat="44.72651" lon="-0.37531">
        <ele>80</ele>
        <time>2013-07-07T13:39:03Z</time>
      </trkpt>
      <trkpt lat="44.72651" lon="-0.37531">
        <ele>80</ele>
        <time>2013-07-07T13:39:26Z</time>
      </trkpt>
      <trkpt lat="44.72651" lon="-0.3753">
        <ele>80</ele>
        <time>2013-07-07T13:39:46Z</time>
      </trkpt>
      <trkpt lat="44.72651" lon="-0.3753">
        <ele>80</ele>
        <time>2013-07-07T13:40:11Z</time>
      </trkpt>
      <trkpt lat="44.72651" lon="-0.3753">
        <ele>80</ele>
        <time>2013-07-07T13:40:39Z</time>
      </trkpt>
      <trkpt lat="44.72651" lon="-0.3753">
        <ele>80</ele>
        <time>2013-07-07T13:41:06Z</time>
      </trkpt>
      <trkpt lat="44.72651" lon="-0.3753">
        <ele>80</ele>
        <time>2013-07-07T13:41:33Z</time>
      </trkpt>
      <trkpt lat="44.72651" lon="-0.37531">
        <ele>80</ele>
        <time>2013-07-07T13:41:59Z</time>
      </trkpt>
      <trkpt lat="44.72651" lon="-0.3753">
        <ele>80</ele>
        <time>2013-07-07T13:42:23Z</time>
      </trkpt>
      <trkpt lat="44.72651" lon="-0.37531">
        <ele>80</ele>
        <time>2013-07-07T13:42:42Z</time>
      </trkpt>
      <trkpt lat="44.72651" lon="-0.37531">
        <ele>80</ele>
        <time>2013-07-07T13:43:02Z</time>
      </trkpt>
      <trkpt lat="44.72652" lon="-0.37531">
        <ele>80</ele>
        <time>2013-07-07T13:43:23Z</time>
      </trkpt>
      <trkpt lat="44.72652" lon="-0.37531">
        <ele>80</ele>
        <time>2013-07-07T13:43:43Z</time>
      </trkpt>
      <trkpt lat="44.72652" lon="-0.37531">
        <ele>80</ele>
        <time>2013-07-07T13:44:06Z</time>
      </trkpt>
      <trkpt lat="44.72652" lon="-0.37531">
        <ele>80</ele>
        <time>2013-07-07T13:44:29Z</time>
      </trkpt>
      <trkpt lat="44.72652" lon="-0.37531">
        <ele>80</ele>
        <time>2013-07-07T13:44:49Z</time>
      </trkpt>
      <trkpt lat="44.72652" lon="-0.37532">
        <ele>80</ele>
        <time>2013-07-07T13:45:11Z</time>
      </trkpt>
      <trkpt lat="44.72652" lon="-0.37531">
        <ele>80</ele>
        <time>2013-07-07T13:45:19Z</time>
      </trkpt>
      <trkpt lat="44.72652" lon="-0.37529">
        <ele>81</ele>
        <time>2013-07-07T13:45:25Z</time>
      </trkpt>
      <trkpt lat="44.72655" lon="-0.37527">
        <ele>81</ele>
        <time>2013-07-07T13:45:31Z</time>
      </trkpt>
      <trkpt lat="44.72668" lon="-0.37526">
        <ele>81</ele>
        <time>2013-07-07T13:45:38Z</time>
      </trkpt>
      <trkpt lat="44.72689" lon="-0.37526">
        <ele>81</ele>
        <time>2013-07-07T13:45:46Z</time>
      </trkpt>
      <trkpt lat="44.72713" lon="-0.37531">
        <ele>80</ele>
        <time>2013-07-07T13:45:55Z</time>
      </trkpt>
      <trkpt lat="44.7273" lon="-0.37531">
        <ele>80</ele>
        <time>2013-07-07T13:46:02Z</time>
      </trkpt>
      <trkpt lat="44.7274" lon="-0.37523">
        <ele>80</ele>
        <time>2013-07-07T13:46:09Z</time>
      </trkpt>
      <trkpt lat="44.72748" lon="-0.37519">
        <ele>80</ele>
        <time>2013-07-07T13:46:16Z</time>
      </trkpt>
      <trkpt lat="44.72749" lon="-0.3752">
        <ele>80</ele>
        <time>2013-07-07T13:46:24Z</time>
      </trkpt>
      <trkpt lat="44.7275" lon="-0.3752">
        <ele>80</ele>
        <time>2013-07-07T13:46:34Z</time>
      </trkpt>
      <trkpt lat="44.7275" lon="-0.3752">
        <ele>80</ele>
        <time>2013-07-07T13:46:42Z</time>
      </trkpt>
      <trkpt lat="44.7275" lon="-0.37519">
        <ele>80</ele>
        <time>2013-07-07T13:46:53Z</time>
      </trkpt>
      <trkpt lat="44.7275" lon="-0.37519">
        <ele>80</ele>
        <time>2013-07-07T13:47:05Z</time>
      </trkpt>
      <trkpt lat="44.72751" lon="-0.37518">
        <ele>80</ele>
        <time>2013-07-07T13:47:12Z</time>
      </trkpt>
      <trkpt lat="44.7275" lon="-0.37518">
        <ele>80</ele>
        <time>2013-07-07T13:47:24Z</time>
      </trkpt>
      <trkpt lat="44.7275" lon="-0.37519">
        <ele>80</ele>
        <time>2013-07-07T13:47:35Z</time>
      </trkpt>
      <trkpt lat="44.7275" lon="-0.37518">
        <ele>80</ele>
        <time>2013-07-07T13:47:45Z</time>
      </trkpt>
      <trkpt lat="44.72751" lon="-0.37517">
        <ele>80</ele>
        <time>2013-07-07T13:47:59Z</time>
      </trkpt>
      <trkpt lat="44.72751" lon="-0.37516">
        <ele>80</ele>
        <time>2013-07-07T13:48:12Z</time>
      </trkpt>
      <trkpt lat="44.72751" lon="-0.37516">
        <ele>80</ele>
        <time>2013-07-07T13:48:25Z</time>
      </trkpt>
      <trkpt lat="44.72752" lon="-0.37516">
        <ele>80</ele>
        <time>2013-07-07T13:48:37Z</time>
      </trkpt>
      <trkpt lat="44.72751" lon="-0.37517">
        <ele>80</ele>
        <time>2013-07-07T13:48:46Z</time>
      </trkpt>
      <trkpt lat="44.7275" lon="-0.37518">
        <ele>80</ele>
        <time>2013-07-07T13:48:53Z</time>
      </trkpt>
      <trkpt lat="44.72749" lon="-0.37517">
        <ele>80</ele>
        <time>2013-07-07T13:49:09Z</time>
      </trkpt>
      <trkpt lat="44.72748" lon="-0.37517">
        <ele>80</ele>
        <time>2013-07-07T13:49:17Z</time>
      </trkpt>
      <trkpt lat="44.72747" lon="-0.37517">
        <ele>80</ele>
        <time>2013-07-07T13:49:26Z</time>
      </trkpt>
      <trkpt lat="44.7275" lon="-0.37515">
        <ele>80</ele>
        <time>2013-07-07T13:49:35Z</time>
      </trkpt>
      <trkpt lat="44.72756" lon="-0.37513">
        <ele>79</ele>
        <time>2013-07-07T13:49:42Z</time>
      </trkpt>
      <trkpt lat="44.72763" lon="-0.37509">
        <ele>79</ele>
        <time>2013-07-07T13:49:50Z</time>
      </trkpt>
      <trkpt lat="44.72764" lon="-0.37507">
        <ele>79</ele>
        <time>2013-07-07T13:49:51Z</time>
      </trkpt>
      <trkpt lat="44.7278" lon="-0.37496">
        <ele>79</ele>
        <time>2013-07-07T13:49:59Z</time>
      </trkpt>
      <trkpt lat="44.72805" lon="-0.37473">
        <ele>76</ele>
        <time>2013-07-07T13:50:05Z</time>
      </trkpt>
      <trkpt lat="44.72813" lon="-0.37464">
        <ele>75</ele>
        <time>2013-07-07T13:50:07Z</time>
      </trkpt>
      <trkpt lat="44.72816" lon="-0.37461">
        <ele>74</ele>
        <time>2013-07-07T13:50:08Z</time>
      </trkpt>
      <trkpt lat="44.72819" lon="-0.37458">
        <ele>74</ele>
        <time>2013-07-07T13:50:09Z</time>
      </trkpt>
      <trkpt lat="44.72821" lon="-0.37455">
        <ele>74</ele>
        <time>2013-07-07T13:50:10Z</time>
      </trkpt>
      <trkpt lat="44.72823" lon="-0.37452">
        <ele>73</ele>
        <time>2013-07-07T13:50:11Z</time>
      </trkpt>
      <trkpt lat="44.72825" lon="-0.37447">
        <ele>73</ele>
        <time>2013-07-07T13:50:12Z</time>
      </trkpt>
      <trkpt lat="44.72829" lon="-0.37442">
        <ele>72</ele>
        <time>2013-07-07T13:50:13Z</time>
      </trkpt>
      <trkpt lat="44.72833" lon="-0.37436">
        <ele>72</ele>
        <time>2013-07-07T13:50:14Z</time>
      </trkpt>
      <trkpt lat="44.72837" lon="-0.37431">
        <ele>71</ele>
        <time>2013-07-07T13:50:15Z</time>
      </trkpt>
      <trkpt lat="44.72875" lon="-0.37391">
        <ele>69</ele>
        <time>2013-07-07T13:50:22Z</time>
      </trkpt>
      <trkpt lat="44.72916" lon="-0.37356">
        <ele>64</ele>
        <time>2013-07-07T13:50:28Z</time>
      </trkpt>
      <trkpt lat="44.72966" lon="-0.37315">
        <ele>58</ele>
        <time>2013-07-07T13:50:34Z</time>
      </trkpt>
      <trkpt lat="44.72995" lon="-0.37285">
        <ele>55</ele>
        <time>2013-07-07T13:50:38Z</time>
      </trkpt>
      <trkpt lat="44.73042" lon="-0.37258">
        <ele>51</ele>
        <time>2013-07-07T13:50:44Z</time>
      </trkpt>
      <trkpt lat="44.73071" lon="-0.37247">
        <ele>49</ele>
        <time>2013-07-07T13:50:48Z</time>
      </trkpt>
      <trkpt lat="44.73078" lon="-0.37246">
        <ele>48</ele>
        <time>2013-07-07T13:50:49Z</time>
      </trkpt>
      <trkpt lat="44.7309" lon="-0.37245">
        <ele>47</ele>
        <time>2013-07-07T13:50:51Z</time>
      </trkpt>
      <trkpt lat="44.73117" lon="-0.37236">
        <ele>43</ele>
        <time>2013-07-07T13:50:56Z</time>
      </trkpt>
      <trkpt lat="44.73121" lon="-0.37233">
        <ele>42</ele>
        <time>2013-07-07T13:50:57Z</time>
      </trkpt>
      <trkpt lat="44.73125" lon="-0.3723">
        <ele>41</ele>
        <time>2013-07-07T13:50:58Z</time>
      </trkpt>
      <trkpt lat="44.73128" lon="-0.37225">
        <ele>40</ele>
        <time>2013-07-07T13:50:59Z</time>
      </trkpt>
      <trkpt lat="44.73129" lon="-0.3722">
        <ele>40</ele>
        <time>2013-07-07T13:51:00Z</time>
      </trkpt>
      <trkpt lat="44.7313" lon="-0.37214">
        <ele>40</ele>
        <time>2013-07-07T13:51:01Z</time>
      </trkpt>
      <trkpt lat="44.73129" lon="-0.37209">
        <ele>39</ele>
        <time>2013-07-07T13:51:02Z</time>
      </trkpt>
      <trkpt lat="44.7313" lon="-0.37203">
        <ele>39</ele>
        <time>2013-07-07T13:51:03Z</time>
      </trkpt>
      <trkpt lat="44.73131" lon="-0.372">
        <ele>38</ele>
        <time>2013-07-07T13:51:04Z</time>
      </trkpt>
      <trkpt lat="44.73134" lon="-0.37198">
        <ele>38</ele>
        <time>2013-07-07T13:51:05Z</time>
      </trkpt>
      <trkpt lat="44.73136" lon="-0.37197">
        <ele>38</ele>
        <time>2013-07-07T13:51:06Z</time>
      </trkpt>
      <trkpt lat="44.73138" lon="-0.37197">
        <ele>38</ele>
        <time>2013-07-07T13:51:07Z</time>
      </trkpt>
      <trkpt lat="44.7314" lon="-0.37197">
        <ele>38</ele>
        <time>2013-07-07T13:51:08Z</time>
      </trkpt>
      <trkpt lat="44.73145" lon="-0.37197">
        <ele>37</ele>
        <time>2013-07-07T13:51:09Z</time>
      </trkpt>
      <trkpt lat="44.73168" lon="-0.37189">
        <ele>36</ele>
        <time>2013-07-07T13:51:15Z</time>
      </trkpt>
      <trkpt lat="44.73177" lon="-0.37184">
        <ele>36</ele>
        <time>2013-07-07T13:51:19Z</time>
      </trkpt>
      <trkpt lat="44.73179" lon="-0.37182">
        <ele>36</ele>
        <time>2013-07-07T13:51:20Z</time>
      </trkpt>
      <trkpt lat="44.73182" lon="-0.3718">
        <ele>36</ele>
        <time>2013-07-07T13:51:21Z</time>
      </trkpt>
      <trkpt lat="44.73194" lon="-0.37167">
        <ele>38</ele>
        <time>2013-07-07T13:51:28Z</time>
      </trkpt>
      <trkpt lat="44.73199" lon="-0.37161">
        <ele>39</ele>
        <time>2013-07-07T13:51:33Z</time>
      </trkpt>
      <trkpt lat="44.73201" lon="-0.37159">
        <ele>39</ele>
        <time>2013-07-07T13:51:34Z</time>
      </trkpt>
      <trkpt lat="44.73203" lon="-0.37158">
        <ele>39</ele>
        <time>2013-07-07T13:51:35Z</time>
      </trkpt>
      <trkpt lat="44.73205" lon="-0.37156">
        <ele>40</ele>
        <time>2013-07-07T13:51:36Z</time>
      </trkpt>
      <trkpt lat="44.73208" lon="-0.37154">
        <ele>40</ele>
        <time>2013-07-07T13:51:38Z</time>
      </trkpt>
      <trkpt lat="44.7321" lon="-0.37153">
        <ele>41</ele>
        <time>2013-07-07T13:51:39Z</time>
      </trkpt>
      <trkpt lat="44.73219" lon="-0.37147">
        <ele>42</ele>
        <time>2013-07-07T13:51:46Z</time>
      </trkpt>
      <trkpt lat="44.7322" lon="-0.37146">
        <ele>43</ele>
        <time>2013-07-07T13:51:47Z</time>
      </trkpt>
      <trkpt lat="44.73228" lon="-0.37138">
        <ele>45</ele>
        <time>2013-07-07T13:51:53Z</time>
      </trkpt>
      <trkpt lat="44.73237" lon="-0.37129">
        <ele>47</ele>
        <time>2013-07-07T13:52:00Z</time>
      </trkpt>
      <trkpt lat="44.73244" lon="-0.3712">
        <ele>48</ele>
        <time>2013-07-07T13:52:06Z</time>
      </trkpt>
      <trkpt lat="44.73248" lon="-0.37115">
        <ele>49</ele>
        <time>2013-07-07T13:52:11Z</time>
      </trkpt>
      <trkpt lat="44.73252" lon="-0.37109">
        <ele>49</ele>
        <time>2013-07-07T13:52:17Z</time>
      </trkpt>
      <trkpt lat="44.7326" lon="-0.37102">
        <ele>50</ele>
        <time>2013-07-07T13:52:24Z</time>
      </trkpt>
      <trkpt lat="44.73261" lon="-0.37101">
        <ele>50</ele>
        <time>2013-07-07T13:52:25Z</time>
      </trkpt>
      <trkpt lat="44.73264" lon="-0.37097">
        <ele>51</ele>
        <time>2013-07-07T13:52:29Z</time>
      </trkpt>
      <trkpt lat="44.73265" lon="-0.37095">
        <ele>51</ele>
        <time>2013-07-07T13:52:30Z</time>
      </trkpt>
      <trkpt lat="44.7327" lon="-0.37086">
        <ele>52</ele>
        <time>2013-07-07T13:52:37Z</time>
      </trkpt>
      <trkpt lat="44.73274" lon="-0.3708">
        <ele>52</ele>
        <time>2013-07-07T13:52:43Z</time>
      </trkpt>
      <trkpt lat="44.73277" lon="-0.37071">
        <ele>53</ele>
        <time>2013-07-07T13:52:50Z</time>
      </trkpt>
      <trkpt lat="44.73281" lon="-0.3706">
        <ele>54</ele>
        <time>2013-07-07T13:52:57Z</time>
      </trkpt>
      <trkpt lat="44.73284" lon="-0.37051">
        <ele>54</ele>
        <time>2013-07-07T13:53:04Z</time>
      </trkpt>
      <trkpt lat="44.73286" lon="-0.37049">
        <ele>54</ele>
        <time>2013-07-07T13:53:07Z</time>
      </trkpt>
      <trkpt lat="44.73347" lon="-0.36912">
        <ele>70</ele>
        <time>2013-07-07T13:53:13Z</time>
      </trkpt>
      <trkpt lat="44.73354" lon="-0.36832">
        <ele>74</ele>
        <time>2013-07-07T13:53:14Z</time>
      </trkpt>
      <trkpt lat="44.73359" lon="-0.36793">
        <ele>76</ele>
        <time>2013-07-07T13:53:15Z</time>
      </trkpt>
      <trkpt lat="44.73393" lon="-0.36772">
        <ele>76</ele>
        <time>2013-07-07T13:53:16Z</time>
      </trkpt>
      <trkpt lat="44.73419" lon="-0.36735">
        <ele>76</ele>
        <time>2013-07-07T13:53:17Z</time>
      </trkpt>
      <trkpt lat="44.73471" lon="-0.36976">
        <ele>69</ele>
        <time>2013-07-07T13:53:24Z</time>
      </trkpt>
      <trkpt lat="44.73571" lon="-0.3715">
        <ele>66</ele>
        <time>2013-07-07T13:53:32Z</time>
      </trkpt>
      <trkpt lat="44.73526" lon="-0.37224">
        <ele>66</ele>
        <time>2013-07-07T13:53:34Z</time>
      </trkpt>
      <trkpt lat="44.73532" lon="-0.37262">
        <ele>63</ele>
        <time>2013-07-07T13:53:35Z</time>
      </trkpt>
      <trkpt lat="44.73554" lon="-0.37327">
        <ele>59</ele>
        <time>2013-07-07T13:53:36Z</time>
      </trkpt>
      <trkpt lat="44.73556" lon="-0.37412">
        <ele>56</ele>
        <time>2013-07-07T13:53:37Z</time>
      </trkpt>
      <trkpt lat="44.73575" lon="-0.37465">
        <ele>53</ele>
        <time>2013-07-07T13:53:38Z</time>
      </trkpt>
      <trkpt lat="44.7365" lon="-0.37612">
        <ele>36</ele>
        <time>2013-07-07T13:53:39Z</time>
      </trkpt>
      <trkpt lat="44.73491" lon="-0.37826">
        <ele>30</ele>
        <time>2013-07-07T14:20:15Z</time>
      </trkpt>
      <trkpt lat="44.73435" lon="-0.37904">
        <ele>25</ele>
        <time>2013-07-07T14:20:21Z</time>
      </trkpt>
      <trkpt lat="44.7327" lon="-0.37892">
        <ele>21</ele>
        <time>2013-07-07T14:20:23Z</time>
      </trkpt>
      <trkpt lat="44.73253" lon="-0.37902">
        <ele>20</ele>
        <time>2013-07-07T14:20:30Z</time>
      </trkpt>
      <trkpt lat="44.73227" lon="-0.37917">
        <ele>20</ele>
        <time>2013-07-07T14:20:40Z</time>
      </trkpt>
      <trkpt lat="44.73213" lon="-0.37927">
        <ele>19</ele>
        <time>2013-07-07T14:20:45Z</time>
      </trkpt>
      <trkpt lat="44.7318" lon="-0.37943">
        <ele>20</ele>
        <time>2013-07-07T14:20:53Z</time>
      </trkpt>
      <trkpt lat="44.7314" lon="-0.37961">
        <ele>20</ele>
        <time>2013-07-07T14:21:02Z</time>
      </trkpt>
      <trkpt lat="44.73094" lon="-0.37983">
        <ele>20</ele>
        <time>2013-07-07T14:21:12Z</time>
      </trkpt>
      <trkpt lat="44.73078" lon="-0.37992">
        <ele>20</ele>
        <time>2013-07-07T14:21:16Z</time>
      </trkpt>
      <trkpt lat="44.73061" lon="-0.38002">
        <ele>20</ele>
        <time>2013-07-07T14:21:20Z</time>
      </trkpt>
      <trkpt lat="44.73057" lon="-0.38005">
        <ele>20</ele>
        <time>2013-07-07T14:21:21Z</time>
      </trkpt>
      <trkpt lat="44.73052" lon="-0.38007">
        <ele>20</ele>
        <time>2013-07-07T14:21:22Z</time>
      </trkpt>
      <trkpt lat="44.73047" lon="-0.38009">
        <ele>20</ele>
        <time>2013-07-07T14:21:23Z</time>
      </trkpt>
      <trkpt lat="44.73043" lon="-0.38012">
        <ele>20</ele>
        <time>2013-07-07T14:21:24Z</time>
      </trkpt>
      <trkpt lat="44.73039" lon="-0.38014">
        <ele>20</ele>
        <time>2013-07-07T14:21:25Z</time>
      </trkpt>
      <trkpt lat="44.73035" lon="-0.38016">
        <ele>20</ele>
        <time>2013-07-07T14:21:26Z</time>
      </trkpt>
      <trkpt lat="44.7303" lon="-0.38018">
        <ele>20</ele>
        <time>2013-07-07T14:21:27Z</time>
      </trkpt>
      <trkpt lat="44.73026" lon="-0.3802">
        <ele>20</ele>
        <time>2013-07-07T14:21:28Z</time>
      </trkpt>
      <trkpt lat="44.73001" lon="-0.38031">
        <ele>20</ele>
        <time>2013-07-07T14:21:34Z</time>
      </trkpt>
      <trkpt lat="44.73" lon="-0.38035">
        <ele>19</ele>
        <time>2013-07-07T14:21:35Z</time>
      </trkpt>
      <trkpt lat="44.73" lon="-0.3804">
        <ele>19</ele>
        <time>2013-07-07T14:21:36Z</time>
      </trkpt>
      <trkpt lat="44.73002" lon="-0.38045">
        <ele>18</ele>
        <time>2013-07-07T14:21:37Z</time>
      </trkpt>
      <trkpt lat="44.73003" lon="-0.3805">
        <ele>18</ele>
        <time>2013-07-07T14:21:38Z</time>
      </trkpt>
      <trkpt lat="44.73013" lon="-0.38081">
        <ele>17</ele>
        <time>2013-07-07T14:21:45Z</time>
      </trkpt>
      <trkpt lat="44.73022" lon="-0.38108">
        <ele>16</ele>
        <time>2013-07-07T14:21:52Z</time>
      </trkpt>
      <trkpt lat="44.73032" lon="-0.38121">
        <ele>17</ele>
        <time>2013-07-07T14:21:58Z</time>
      </trkpt>
      <trkpt lat="44.73038" lon="-0.38145">
        <ele>17</ele>
        <time>2013-07-07T14:22:05Z</time>
      </trkpt>
      <trkpt lat="44.73051" lon="-0.38168">
        <ele>19</ele>
        <time>2013-07-07T14:22:13Z</time>
      </trkpt>
      <trkpt lat="44.7306" lon="-0.38188">
        <ele>20</ele>
        <time>2013-07-07T14:22:22Z</time>
      </trkpt>
      <trkpt lat="44.7306" lon="-0.3819">
        <ele>21</ele>
        <time>2013-07-07T14:22:23Z</time>
      </trkpt>
      <trkpt lat="44.73061" lon="-0.38192">
        <ele>21</ele>
        <time>2013-07-07T14:22:24Z</time>
      </trkpt>
      <trkpt lat="44.73062" lon="-0.38194">
        <ele>21</ele>
        <time>2013-07-07T14:22:25Z</time>
      </trkpt>
      <trkpt lat="44.73065" lon="-0.38206">
        <ele>23</ele>
        <time>2013-07-07T14:22:31Z</time>
      </trkpt>
      <trkpt lat="44.73069" lon="-0.38213">
        <ele>24</ele>
        <time>2013-07-07T14:22:36Z</time>
      </trkpt>
      <trkpt lat="44.73072" lon="-0.3822">
        <ele>25</ele>
        <time>2013-07-07T14:22:40Z</time>
      </trkpt>
      <trkpt lat="44.73073" lon="-0.38232">
        <ele>27</ele>
        <time>2013-07-07T14:22:46Z</time>
      </trkpt>
      <trkpt lat="44.73074" lon="-0.38241">
        <ele>28</ele>
        <time>2013-07-07T14:22:50Z</time>
      </trkpt>
      <trkpt lat="44.73078" lon="-0.38245">
        <ele>29</ele>
        <time>2013-07-07T14:22:53Z</time>
      </trkpt>
      <trkpt lat="44.7308" lon="-0.38255">
        <ele>30</ele>
        <time>2013-07-07T14:23:00Z</time>
      </trkpt>
      <trkpt lat="44.73084" lon="-0.3826">
        <ele>31</ele>
        <time>2013-07-07T14:23:07Z</time>
      </trkpt>
      <trkpt lat="44.73087" lon="-0.38265">
        <ele>32</ele>
        <time>2013-07-07T14:23:14Z</time>
      </trkpt>
      <trkpt lat="44.73084" lon="-0.3827">
        <ele>32</ele>
        <time>2013-07-07T14:23:23Z</time>
      </trkpt>
      <trkpt lat="44.73078" lon="-0.38279">
        <ele>33</ele>
        <time>2013-07-07T14:23:31Z</time>
      </trkpt>
      <trkpt lat="44.73073" lon="-0.38288">
        <ele>33</ele>
        <time>2013-07-07T14:23:38Z</time>
      </trkpt>
      <trkpt lat="44.73064" lon="-0.38299">
        <ele>34</ele>
        <time>2013-07-07T14:23:45Z</time>
      </trkpt>
      <trkpt lat="44.73061" lon="-0.38302">
        <ele>34</ele>
        <time>2013-07-07T14:23:47Z</time>
      </trkpt>
      <trkpt lat="44.73058" lon="-0.38306">
        <ele>34</ele>
        <time>2013-07-07T14:23:49Z</time>
      </trkpt>
      <trkpt lat="44.73055" lon="-0.38313">
        <ele>34</ele>
        <time>2013-07-07T14:23:52Z</time>
      </trkpt>
      <trkpt lat="44.73057" lon="-0.38324">
        <ele>36</ele>
        <time>2013-07-07T14:23:59Z</time>
      </trkpt>
      <trkpt lat="44.73058" lon="-0.38333">
        <ele>36</ele>
        <time>2013-07-07T14:24:04Z</time>
      </trkpt>
      <trkpt lat="44.7306" lon="-0.38344">
        <ele>37</ele>
        <time>2013-07-07T14:24:10Z</time>
      </trkpt>
      <trkpt lat="44.73056" lon="-0.38352">
        <ele>38</ele>
        <time>2013-07-07T14:24:14Z</time>
      </trkpt>
      <trkpt lat="44.73055" lon="-0.38365">
        <ele>39</ele>
        <time>2013-07-07T14:24:21Z</time>
      </trkpt>
      <trkpt lat="44.7306" lon="-0.38375">
        <ele>39</ele>
        <time>2013-07-07T14:24:28Z</time>
      </trkpt>
      <trkpt lat="44.73067" lon="-0.38388">
        <ele>39</ele>
        <time>2013-07-07T14:24:37Z</time>
      </trkpt>
      <trkpt lat="44.73072" lon="-0.38393">
        <ele>39</ele>
        <time>2013-07-07T14:24:41Z</time>
      </trkpt>
      <trkpt lat="44.73086" lon="-0.38399">
        <ele>40</ele>
        <time>2013-07-07T14:24:49Z</time>
      </trkpt>
      <trkpt lat="44.73088" lon="-0.384">
        <ele>40</ele>
        <time>2013-07-07T14:24:50Z</time>
      </trkpt>
      <trkpt lat="44.73097" lon="-0.38412">
        <ele>41</ele>
        <time>2013-07-07T14:24:58Z</time>
      </trkpt>
      <trkpt lat="44.73104" lon="-0.38423">
        <ele>41</ele>
        <time>2013-07-07T14:25:04Z</time>
      </trkpt>
      <trkpt lat="44.7311" lon="-0.38434">
        <ele>42</ele>
        <time>2013-07-07T14:25:11Z</time>
      </trkpt>
      <trkpt lat="44.73119" lon="-0.38448">
        <ele>42</ele>
        <time>2013-07-07T14:25:19Z</time>
      </trkpt>
      <trkpt lat="44.73128" lon="-0.38461">
        <ele>43</ele>
        <time>2013-07-07T14:25:27Z</time>
      </trkpt>
      <trkpt lat="44.73134" lon="-0.3847">
        <ele>44</ele>
        <time>2013-07-07T14:25:33Z</time>
      </trkpt>
      <trkpt lat="44.73143" lon="-0.38482">
        <ele>46</ele>
        <time>2013-07-07T14:25:40Z</time>
      </trkpt>
      <trkpt lat="44.73154" lon="-0.38497">
        <ele>47</ele>
        <time>2013-07-07T14:25:49Z</time>
      </trkpt>
      <trkpt lat="44.73166" lon="-0.3851">
        <ele>49</ele>
        <time>2013-07-07T14:25:58Z</time>
      </trkpt>
      <trkpt lat="44.73177" lon="-0.38523">
        <ele>50</ele>
        <time>2013-07-07T14:26:06Z</time>
      </trkpt>
      <trkpt lat="44.73187" lon="-0.38537">
        <ele>52</ele>
        <time>2013-07-07T14:26:15Z</time>
      </trkpt>
      <trkpt lat="44.73196" lon="-0.38547">
        <ele>53</ele>
        <time>2013-07-07T14:26:22Z</time>
      </trkpt>
      <trkpt lat="44.73202" lon="-0.38558">
        <ele>54</ele>
        <time>2013-07-07T14:26:30Z</time>
      </trkpt>
      <trkpt lat="44.73202" lon="-0.38564">
        <ele>54</ele>
        <time>2013-07-07T14:26:33Z</time>
      </trkpt>
      <trkpt lat="44.73208" lon="-0.38573">
        <ele>55</ele>
        <time>2013-07-07T14:26:40Z</time>
      </trkpt>
      <trkpt lat="44.73216" lon="-0.38583">
        <ele>57</ele>
        <time>2013-07-07T14:26:48Z</time>
      </trkpt>
      <trkpt lat="44.73222" lon="-0.38592">
        <ele>58</ele>
        <time>2013-07-07T14:26:55Z</time>
      </trkpt>
      <trkpt lat="44.73227" lon="-0.38598">
        <ele>59</ele>
        <time>2013-07-07T14:27:00Z</time>
      </trkpt>
      <trkpt lat="44.73234" lon="-0.38605">
        <ele>60</ele>
        <time>2013-07-07T14:27:07Z</time>
      </trkpt>
      <trkpt lat="44.73235" lon="-0.38606">
        <ele>60</ele>
        <time>2013-07-07T14:27:08Z</time>
      </trkpt>
      <trkpt lat="44.7324" lon="-0.38611">
        <ele>60</ele>
        <time>2013-07-07T14:27:13Z</time>
      </trkpt>
      <trkpt lat="44.73238" lon="-0.38622">
        <ele>61</ele>
        <time>2013-07-07T14:27:20Z</time>
      </trkpt>
      <trkpt lat="44.73232" lon="-0.38625">
        <ele>60</ele>
        <time>2013-07-07T14:27:24Z</time>
      </trkpt>
      <trkpt lat="44.73216" lon="-0.38637">
        <ele>59</ele>
        <time>2013-07-07T14:27:33Z</time>
      </trkpt>
      <trkpt lat="44.73204" lon="-0.38643">
        <ele>57</ele>
        <time>2013-07-07T14:27:39Z</time>
      </trkpt>
      <trkpt lat="44.73186" lon="-0.38656">
        <ele>54</ele>
        <time>2013-07-07T14:27:46Z</time>
      </trkpt>
      <trkpt lat="44.73182" lon="-0.38665">
        <ele>53</ele>
        <time>2013-07-07T14:27:50Z</time>
      </trkpt>
      <trkpt lat="44.73179" lon="-0.38676">
        <ele>53</ele>
        <time>2013-07-07T14:27:55Z</time>
      </trkpt>
      <trkpt lat="44.73177" lon="-0.38698">
        <ele>52</ele>
        <time>2013-07-07T14:28:04Z</time>
      </trkpt>
      <trkpt lat="44.73178" lon="-0.38702">
        <ele>52</ele>
        <time>2013-07-07T14:28:07Z</time>
      </trkpt>
      <trkpt lat="44.7318" lon="-0.38717">
        <ele>53</ele>
        <time>2013-07-07T14:28:14Z</time>
      </trkpt>
      <trkpt lat="44.73189" lon="-0.38738">
        <ele>54</ele>
        <time>2013-07-07T14:28:20Z</time>
      </trkpt>
      <trkpt lat="44.73195" lon="-0.38757">
        <ele>55</ele>
        <time>2013-07-07T14:28:27Z</time>
      </trkpt>
      <trkpt lat="44.73195" lon="-0.38773">
        <ele>55</ele>
        <time>2013-07-07T14:28:33Z</time>
      </trkpt>
      <trkpt lat="44.73192" lon="-0.38789">
        <ele>55</ele>
        <time>2013-07-07T14:28:40Z</time>
      </trkpt>
      <trkpt lat="44.73181" lon="-0.388">
        <ele>53</ele>
        <time>2013-07-07T14:28:47Z</time>
      </trkpt>
      <trkpt lat="44.73164" lon="-0.38813">
        <ele>50</ele>
        <time>2013-07-07T14:28:53Z</time>
      </trkpt>
      <trkpt lat="44.73139" lon="-0.38832">
        <ele>45</ele>
        <time>2013-07-07T14:29:00Z</time>
      </trkpt>
      <trkpt lat="44.73129" lon="-0.3884">
        <ele>43</ele>
        <time>2013-07-07T14:29:02Z</time>
      </trkpt>
      <trkpt lat="44.73116" lon="-0.3886">
        <ele>41</ele>
        <time>2013-07-07T14:29:07Z</time>
      </trkpt>
      <trkpt lat="44.73116" lon="-0.38865">
        <ele>42</ele>
        <time>2013-07-07T14:29:08Z</time>
      </trkpt>
      <trkpt lat="44.73127" lon="-0.38896">
        <ele>43</ele>
        <time>2013-07-07T14:29:15Z</time>
      </trkpt>
      <trkpt lat="44.73131" lon="-0.38908">
        <ele>43</ele>
        <time>2013-07-07T14:29:17Z</time>
      </trkpt>
      <trkpt lat="44.7313" lon="-0.38943">
        <ele>41</ele>
        <time>2013-07-07T14:29:22Z</time>
      </trkpt>
      <trkpt lat="44.73126" lon="-0.38963">
        <ele>40</ele>
        <time>2013-07-07T14:29:25Z</time>
      </trkpt>
      <trkpt lat="44.73124" lon="-0.38993">
        <ele>39</ele>
        <time>2013-07-07T14:29:31Z</time>
      </trkpt>
      <trkpt lat="44.73132" lon="-0.39016">
        <ele>39</ele>
        <time>2013-07-07T14:29:37Z</time>
      </trkpt>
      <trkpt lat="44.73141" lon="-0.39039">
        <ele>40</ele>
        <time>2013-07-07T14:29:45Z</time>
      </trkpt>
      <trkpt lat="44.73151" lon="-0.3906">
        <ele>41</ele>
        <time>2013-07-07T14:29:53Z</time>
      </trkpt>
      <trkpt lat="44.73163" lon="-0.39084">
        <ele>42</ele>
        <time>2013-07-07T14:30:02Z</time>
      </trkpt>
      <trkpt lat="44.73175" lon="-0.39109">
        <ele>41</ele>
        <time>2013-07-07T14:30:10Z</time>
      </trkpt>
      <trkpt lat="44.73187" lon="-0.39118">
        <ele>42</ele>
        <time>2013-07-07T14:30:16Z</time>
      </trkpt>
      <trkpt lat="44.73205" lon="-0.39119">
        <ele>43</ele>
        <time>2013-07-07T14:30:23Z</time>
      </trkpt>
      <trkpt lat="44.73222" lon="-0.39118">
        <ele>44</ele>
        <time>2013-07-07T14:30:30Z</time>
      </trkpt>
      <trkpt lat="44.73239" lon="-0.39116">
        <ele>46</ele>
        <time>2013-07-07T14:30:39Z</time>
      </trkpt>
      <trkpt lat="44.7325" lon="-0.39116">
        <ele>46</ele>
        <time>2013-07-07T14:30:46Z</time>
      </trkpt>
      <trkpt lat="44.73262" lon="-0.39115">
        <ele>47</ele>
        <time>2013-07-07T14:30:53Z</time>
      </trkpt>
      <trkpt lat="44.73276" lon="-0.39115">
        <ele>48</ele>
        <time>2013-07-07T14:31:01Z</time>
      </trkpt>
      <trkpt lat="44.73291" lon="-0.39114">
        <ele>50</ele>
        <time>2013-07-07T14:31:11Z</time>
      </trkpt>
      <trkpt lat="44.73301" lon="-0.3911">
        <ele>51</ele>
        <time>2013-07-07T14:31:18Z</time>
      </trkpt>
      <trkpt lat="44.73305" lon="-0.39109">
        <ele>51</ele>
        <time>2013-07-07T14:31:21Z</time>
      </trkpt>
      <trkpt lat="44.73307" lon="-0.3911">
        <ele>51</ele>
        <time>2013-07-07T14:31:23Z</time>
      </trkpt>
      <trkpt lat="44.73317" lon="-0.3912">
        <ele>52</ele>
        <time>2013-07-07T14:31:32Z</time>
      </trkpt>
      <trkpt lat="44.73317" lon="-0.3912">
        <ele>52</ele>
        <time>2013-07-07T14:31:38Z</time>
      </trkpt>
      <trkpt lat="44.73316" lon="-0.39118">
        <ele>52</ele>
        <time>2013-07-07T14:31:43Z</time>
      </trkpt>
      <trkpt lat="44.73312" lon="-0.39107">
        <ele>52</ele>
        <time>2013-07-07T14:31:48Z</time>
      </trkpt>
      <trkpt lat="44.73313" lon="-0.39101">
        <ele>53</ele>
        <time>2013-07-07T14:31:51Z</time>
      </trkpt>
      <trkpt lat="44.7332" lon="-0.39095">
        <ele>54</ele>
        <time>2013-07-07T14:31:58Z</time>
      </trkpt>
      <trkpt lat="44.73327" lon="-0.39096">
        <ele>54</ele>
        <time>2013-07-07T14:32:04Z</time>
      </trkpt>
      <trkpt lat="44.73334" lon="-0.39096">
        <ele>55</ele>
        <time>2013-07-07T14:32:10Z</time>
      </trkpt>
      <trkpt lat="44.73346" lon="-0.39099">
        <ele>57</ele>
        <time>2013-07-07T14:32:20Z</time>
      </trkpt>
      <trkpt lat="44.73356" lon="-0.39101">
        <ele>58</ele>
        <time>2013-07-07T14:32:28Z</time>
      </trkpt>
      <trkpt lat="44.73366" lon="-0.39103">
        <ele>59</ele>
        <time>2013-07-07T14:32:36Z</time>
      </trkpt>
      <trkpt lat="44.73378" lon="-0.39103">
        <ele>61</ele>
        <time>2013-07-07T14:32:44Z</time>
      </trkpt>
      <trkpt lat="44.7339" lon="-0.39104">
        <ele>62</ele>
        <time>2013-07-07T14:32:53Z</time>
      </trkpt>
      <trkpt lat="44.73402" lon="-0.39102">
        <ele>64</ele>
        <time>2013-07-07T14:33:03Z</time>
      </trkpt>
      <trkpt lat="44.73404" lon="-0.391">
        <ele>65</ele>
        <time>2013-07-07T14:33:05Z</time>
      </trkpt>
      <trkpt lat="44.7341" lon="-0.39099">
        <ele>66</ele>
        <time>2013-07-07T14:33:10Z</time>
      </trkpt>
      <trkpt lat="44.73416" lon="-0.39098">
        <ele>67</ele>
        <time>2013-07-07T14:33:14Z</time>
      </trkpt>
      <trkpt lat="44.73423" lon="-0.39097">
        <ele>68</ele>
        <time>2013-07-07T14:33:22Z</time>
      </trkpt>
      <trkpt lat="44.73424" lon="-0.39098">
        <ele>68</ele>
        <time>2013-07-07T14:33:24Z</time>
      </trkpt>
      <trkpt lat="44.73434" lon="-0.39098">
        <ele>70</ele>
        <time>2013-07-07T14:33:32Z</time>
      </trkpt>
      <trkpt lat="44.73444" lon="-0.39098">
        <ele>71</ele>
        <time>2013-07-07T14:33:40Z</time>
      </trkpt>
      <trkpt lat="44.73453" lon="-0.39097">
        <ele>72</ele>
        <time>2013-07-07T14:33:48Z</time>
      </trkpt>
      <trkpt lat="44.73464" lon="-0.39099">
        <ele>74</ele>
        <time>2013-07-07T14:33:57Z</time>
      </trkpt>
      <trkpt lat="44.73473" lon="-0.39099">
        <ele>75</ele>
        <time>2013-07-07T14:34:04Z</time>
      </trkpt>
      <trkpt lat="44.7348" lon="-0.39097">
        <ele>76</ele>
        <time>2013-07-07T14:34:11Z</time>
      </trkpt>
      <trkpt lat="44.7349" lon="-0.39097">
        <ele>77</ele>
        <time>2013-07-07T14:34:20Z</time>
      </trkpt>
      <trkpt lat="44.73494" lon="-0.39097">
        <ele>78</ele>
        <time>2013-07-07T14:34:23Z</time>
      </trkpt>
      <trkpt lat="44.73509" lon="-0.39093">
        <ele>79</ele>
        <time>2013-07-07T14:34:33Z</time>
      </trkpt>
      <trkpt lat="44.73517" lon="-0.3909">
        <ele>80</ele>
        <time>2013-07-07T14:34:40Z</time>
      </trkpt>
      <trkpt lat="44.73525" lon="-0.39105">
        <ele>81</ele>
        <time>2013-07-07T14:34:49Z</time>
      </trkpt>
      <trkpt lat="44.73531" lon="-0.39124">
        <ele>81</ele>
        <time>2013-07-07T14:34:57Z</time>
      </trkpt>
      <trkpt lat="44.73536" lon="-0.39142">
        <ele>81</ele>
        <time>2013-07-07T14:35:05Z</time>
      </trkpt>
      <trkpt lat="44.73541" lon="-0.39155">
        <ele>82</ele>
        <time>2013-07-07T14:35:11Z</time>
      </trkpt>
      <trkpt lat="44.73552" lon="-0.39154">
        <ele>82</ele>
        <time>2013-07-07T14:35:18Z</time>
      </trkpt>
      <trkpt lat="44.73563" lon="-0.39135">
        <ele>82</ele>
        <time>2013-07-07T14:35:26Z</time>
      </trkpt>
      <trkpt lat="44.73572" lon="-0.39113">
        <ele>82</ele>
        <time>2013-07-07T14:35:35Z</time>
      </trkpt>
      <trkpt lat="44.73575" lon="-0.39109">
        <ele>82</ele>
        <time>2013-07-07T14:35:37Z</time>
      </trkpt>
      <trkpt lat="44.73587" lon="-0.39087">
        <ele>81</ele>
        <time>2013-07-07T14:35:45Z</time>
      </trkpt>
      <trkpt lat="44.73606" lon="-0.39059">
        <ele>80</ele>
        <time>2013-07-07T14:35:55Z</time>
      </trkpt>
      <trkpt lat="44.73622" lon="-0.39036">
        <ele>80</ele>
        <time>2013-07-07T14:36:04Z</time>
      </trkpt>
      <trkpt lat="44.73632" lon="-0.39024">
        <ele>79</ele>
        <time>2013-07-07T14:36:09Z</time>
      </trkpt>
      <trkpt lat="44.73646" lon="-0.39019">
        <ele>78</ele>
        <time>2013-07-07T14:36:16Z</time>
      </trkpt>
      <trkpt lat="44.7365" lon="-0.39016">
        <ele>78</ele>
        <time>2013-07-07T14:36:22Z</time>
      </trkpt>
      <trkpt lat="44.73653" lon="-0.39014">
        <ele>78</ele>
        <time>2013-07-07T14:36:30Z</time>
      </trkpt>
      <trkpt lat="44.73649" lon="-0.39009">
        <ele>78</ele>
        <time>2013-07-07T14:36:37Z</time>
      </trkpt>
      <trkpt lat="44.73649" lon="-0.39009">
        <ele>78</ele>
        <time>2013-07-07T14:36:42Z</time>
      </trkpt>
      <trkpt lat="44.73653" lon="-0.38997">
        <ele>78</ele>
        <time>2013-07-07T14:36:49Z</time>
      </trkpt>
      <trkpt lat="44.73653" lon="-0.38996">
        <ele>78</ele>
        <time>2013-07-07T14:36:50Z</time>
      </trkpt>
      <trkpt lat="44.73656" lon="-0.38991">
        <ele>78</ele>
        <time>2013-07-07T14:36:53Z</time>
      </trkpt>
      <trkpt lat="44.73662" lon="-0.38982">
        <ele>78</ele>
        <time>2013-07-07T14:36:59Z</time>
      </trkpt>
      <trkpt lat="44.73664" lon="-0.38981">
        <ele>78</ele>
        <time>2013-07-07T14:37:01Z</time>
      </trkpt>
      <trkpt lat="44.73667" lon="-0.3897">
        <ele>78</ele>
        <time>2013-07-07T14:37:07Z</time>
      </trkpt>
      <trkpt lat="44.7367" lon="-0.38971">
        <ele>78</ele>
        <time>2013-07-07T14:37:12Z</time>
      </trkpt>
      <trkpt lat="44.73674" lon="-0.3897">
        <ele>77</ele>
        <time>2013-07-07T14:37:24Z</time>
      </trkpt>
      <trkpt lat="44.73681" lon="-0.3897">
        <ele>76</ele>
        <time>2013-07-07T14:37:38Z</time>
      </trkpt>
      <trkpt lat="44.73685" lon="-0.3897">
        <ele>76</ele>
        <time>2013-07-07T14:37:50Z</time>
      </trkpt>
      <trkpt lat="44.73687" lon="-0.38969">
        <ele>76</ele>
        <time>2013-07-07T14:37:56Z</time>
      </trkpt>
      <trkpt lat="44.73692" lon="-0.38961">
        <ele>76</ele>
        <time>2013-07-07T14:38:04Z</time>
      </trkpt>
      <trkpt lat="44.73701" lon="-0.38958">
        <ele>75</ele>
        <time>2013-07-07T14:38:09Z</time>
      </trkpt>
      <trkpt lat="44.73704" lon="-0.3895">
        <ele>74</ele>
        <time>2013-07-07T14:38:13Z</time>
      </trkpt>
      <trkpt lat="44.73709" lon="-0.38953">
        <ele>74</ele>
        <time>2013-07-07T14:38:19Z</time>
      </trkpt>
      <trkpt lat="44.73711" lon="-0.38955">
        <ele>74</ele>
        <time>2013-07-07T14:38:22Z</time>
      </trkpt>
      <trkpt lat="44.73716" lon="-0.38958">
        <ele>73</ele>
        <time>2013-07-07T14:38:31Z</time>
      </trkpt>
      <trkpt lat="44.73717" lon="-0.38958">
        <ele>73</ele>
        <time>2013-07-07T14:38:47Z</time>
      </trkpt>
      <trkpt lat="44.73718" lon="-0.38959">
        <ele>73</ele>
        <time>2013-07-07T14:39:01Z</time>
      </trkpt>
      <trkpt lat="44.73719" lon="-0.38958">
        <ele>73</ele>
        <time>2013-07-07T14:39:12Z</time>
      </trkpt>
      <trkpt lat="44.73721" lon="-0.38954">
        <ele>73</ele>
        <time>2013-07-07T14:39:20Z</time>
      </trkpt>
      <trkpt lat="44.73727" lon="-0.38938">
        <ele>72</ele>
        <time>2013-07-07T14:39:26Z</time>
      </trkpt>
      <trkpt lat="44.73731" lon="-0.38917">
        <ele>71</ele>
        <time>2013-07-07T14:39:32Z</time>
      </trkpt>
      <trkpt lat="44.73732" lon="-0.38914">
        <ele>71</ele>
        <time>2013-07-07T14:39:33Z</time>
      </trkpt>
      <trkpt lat="44.73732" lon="-0.38897">
        <ele>70</ele>
        <time>2013-07-07T14:39:40Z</time>
      </trkpt>
      <trkpt lat="44.73739" lon="-0.38881">
        <ele>69</ele>
        <time>2013-07-07T14:39:48Z</time>
      </trkpt>
      <trkpt lat="44.73747" lon="-0.38861">
        <ele>68</ele>
        <time>2013-07-07T14:39:55Z</time>
      </trkpt>
      <trkpt lat="44.73758" lon="-0.38852">
        <ele>67</ele>
        <time>2013-07-07T14:40:03Z</time>
      </trkpt>
      <trkpt lat="44.7376" lon="-0.38852">
        <ele>67</ele>
        <time>2013-07-07T14:40:10Z</time>
      </trkpt>
      <trkpt lat="44.7376" lon="-0.38852">
        <ele>67</ele>
        <time>2013-07-07T14:40:12Z</time>
      </trkpt>
      <trkpt lat="44.73759" lon="-0.38842">
        <ele>67</ele>
        <time>2013-07-07T14:40:17Z</time>
      </trkpt>
      <trkpt lat="44.73761" lon="-0.38825">
        <ele>67</ele>
        <time>2013-07-07T14:40:24Z</time>
      </trkpt>
      <trkpt lat="44.73761" lon="-0.38822">
        <ele>67</ele>
        <time>2013-07-07T14:40:25Z</time>
      </trkpt>
      <trkpt lat="44.73756" lon="-0.38815">
        <ele>67</ele>
        <time>2013-07-07T14:40:30Z</time>
      </trkpt>
      <trkpt lat="44.73755" lon="-0.38808">
        <ele>67</ele>
        <time>2013-07-07T14:40:33Z</time>
      </trkpt>
      <trkpt lat="44.73754" lon="-0.38801">
        <ele>66</ele>
        <time>2013-07-07T14:40:36Z</time>
      </trkpt>
      <trkpt lat="44.73757" lon="-0.38783">
        <ele>66</ele>
        <time>2013-07-07T14:40:41Z</time>
      </trkpt>
      <trkpt lat="44.73769" lon="-0.38784">
        <ele>65</ele>
        <time>2013-07-07T14:40:46Z</time>
      </trkpt>
      <trkpt lat="44.73773" lon="-0.38792">
        <ele>64</ele>
        <time>2013-07-07T14:40:48Z</time>
      </trkpt>
      <trkpt lat="44.73775" lon="-0.38797">
        <ele>64</ele>
        <time>2013-07-07T14:40:49Z</time>
      </trkpt>
      <trkpt lat="44.73784" lon="-0.38818">
        <ele>62</ele>
        <time>2013-07-07T14:40:52Z</time>
      </trkpt>
      <trkpt lat="44.73797" lon="-0.38845">
        <ele>60</ele>
        <time>2013-07-07T14:40:56Z</time>
      </trkpt>
      <trkpt lat="44.73806" lon="-0.38857">
        <ele>59</ele>
        <time>2013-07-07T14:40:58Z</time>
      </trkpt>
      <trkpt lat="44.73819" lon="-0.38874">
        <ele>57</ele>
        <time>2013-07-07T14:41:01Z</time>
      </trkpt>
      <trkpt lat="44.73827" lon="-0.38882">
        <ele>56</ele>
        <time>2013-07-07T14:41:03Z</time>
      </trkpt>
      <trkpt lat="44.73838" lon="-0.38898">
        <ele>55</ele>
        <time>2013-07-07T14:41:06Z</time>
      </trkpt>
      <trkpt lat="44.73846" lon="-0.38909">
        <ele>54</ele>
        <time>2013-07-07T14:41:08Z</time>
      </trkpt>
      <trkpt lat="44.73876" lon="-0.38941">
        <ele>49</ele>
        <time>2013-07-07T14:41:14Z</time>
      </trkpt>
      <trkpt lat="44.73893" lon="-0.3896">
        <ele>47</ele>
        <time>2013-07-07T14:41:18Z</time>
      </trkpt>
      <trkpt lat="44.7391" lon="-0.38972">
        <ele>44</ele>
        <time>2013-07-07T14:41:22Z</time>
      </trkpt>
      <trkpt lat="44.73936" lon="-0.39002">
        <ele>40</ele>
        <time>2013-07-07T14:41:29Z</time>
      </trkpt>
      <trkpt lat="44.73948" lon="-0.39032">
        <ele>39</ele>
        <time>2013-07-07T14:41:35Z</time>
      </trkpt>
      <trkpt lat="44.73954" lon="-0.39042">
        <ele>38</ele>
        <time>2013-07-07T14:41:40Z</time>
      </trkpt>
      <trkpt lat="44.73959" lon="-0.39044">
        <ele>37</ele>
        <time>2013-07-07T14:41:53Z</time>
      </trkpt>
      <trkpt lat="44.73962" lon="-0.39047">
        <ele>37</ele>
        <time>2013-07-07T14:42:01Z</time>
      </trkpt>
      <trkpt lat="44.73963" lon="-0.3905">
        <ele>37</ele>
        <time>2013-07-07T14:42:08Z</time>
      </trkpt>
      <trkpt lat="44.7397" lon="-0.3906">
        <ele>35</ele>
        <time>2013-07-07T14:42:12Z</time>
      </trkpt>
      <trkpt lat="44.73974" lon="-0.39074">
        <ele>35</ele>
        <time>2013-07-07T14:42:19Z</time>
      </trkpt>
      <trkpt lat="44.73972" lon="-0.39106">
        <ele>35</ele>
        <time>2013-07-07T14:42:26Z</time>
      </trkpt>
      <trkpt lat="44.73974" lon="-0.39151">
        <ele>37</ele>
        <time>2013-07-07T14:42:34Z</time>
      </trkpt>
      <trkpt lat="44.73974" lon="-0.39168">
        <ele>38</ele>
        <time>2013-07-07T14:42:39Z</time>
      </trkpt>
      <trkpt lat="44.73978" lon="-0.39178">
        <ele>37</ele>
        <time>2013-07-07T14:42:42Z</time>
      </trkpt>
      <trkpt lat="44.73985" lon="-0.39194">
        <ele>36</ele>
        <time>2013-07-07T14:42:45Z</time>
      </trkpt>
      <trkpt lat="44.73985" lon="-0.39222">
        <ele>36</ele>
        <time>2013-07-07T14:42:51Z</time>
      </trkpt>
      <trkpt lat="44.73977" lon="-0.39243">
        <ele>37</ele>
        <time>2013-07-07T14:42:54Z</time>
      </trkpt>
      <trkpt lat="44.73976" lon="-0.39262">
        <ele>38</ele>
        <time>2013-07-07T14:42:59Z</time>
      </trkpt>
      <trkpt lat="44.73984" lon="-0.39297">
        <ele>39</ele>
        <time>2013-07-07T14:43:04Z</time>
      </trkpt>
      <trkpt lat="44.73988" lon="-0.39307">
        <ele>40</ele>
        <time>2013-07-07T14:43:09Z</time>
      </trkpt>
      <trkpt lat="44.73987" lon="-0.39331">
        <ele>41</ele>
        <time>2013-07-07T14:43:14Z</time>
      </trkpt>
      <trkpt lat="44.7399" lon="-0.39354">
        <ele>42</ele>
        <time>2013-07-07T14:43:19Z</time>
      </trkpt>
      <trkpt lat="44.73994" lon="-0.39371">
        <ele>42</ele>
        <time>2013-07-07T14:43:24Z</time>
      </trkpt>
      <trkpt lat="44.73992" lon="-0.39391">
        <ele>42</ele>
        <time>2013-07-07T14:43:25Z</time>
      </trkpt>
      <trkpt lat="44.73988" lon="-0.3942">
        <ele>43</ele>
        <time>2013-07-07T14:43:32Z</time>
      </trkpt>
      <trkpt lat="44.73991" lon="-0.39448">
        <ele>42</ele>
        <time>2013-07-07T14:43:37Z</time>
      </trkpt>
      <trkpt lat="44.73985" lon="-0.39481">
        <ele>41</ele>
        <time>2013-07-07T14:43:39Z</time>
      </trkpt>
      <trkpt lat="44.73991" lon="-0.395">
        <ele>42</ele>
        <time>2013-07-07T14:55:22Z</time>
      </trkpt>
      <trkpt lat="44.73997" lon="-0.395">
        <ele>41</ele>
        <time>2013-07-07T14:55:29Z</time>
      </trkpt>
      <trkpt lat="44.73998" lon="-0.39504">
        <ele>41</ele>
        <time>2013-07-07T14:55:32Z</time>
      </trkpt>
      <trkpt lat="44.74005" lon="-0.39517">
        <ele>41</ele>
        <time>2013-07-07T14:55:41Z</time>
      </trkpt>
      <trkpt lat="44.74016" lon="-0.3953">
        <ele>41</ele>
        <time>2013-07-07T14:55:52Z</time>
      </trkpt>
      <trkpt lat="44.74025" lon="-0.39555">
        <ele>42</ele>
        <time>2013-07-07T14:56:02Z</time>
      </trkpt>
      <trkpt lat="44.74034" lon="-0.39576">
        <ele>44</ele>
        <time>2013-07-07T14:56:14Z</time>
      </trkpt>
      <trkpt lat="44.74039" lon="-0.39593">
        <ele>44</ele>
        <time>2013-07-07T14:56:25Z</time>
      </trkpt>
      <trkpt lat="44.74038" lon="-0.39608">
        <ele>44</ele>
        <time>2013-07-07T14:56:39Z</time>
      </trkpt>
      <trkpt lat="44.74037" lon="-0.39615">
        <ele>44</ele>
        <time>2013-07-07T14:56:50Z</time>
      </trkpt>
      <trkpt lat="44.74037" lon="-0.39618">
        <ele>44</ele>
        <time>2013-07-07T14:56:57Z</time>
      </trkpt>
      <trkpt lat="44.74038" lon="-0.39618">
        <ele>44</ele>
        <time>2013-07-07T14:57:00Z</time>
      </trkpt>
      <trkpt lat="44.74039" lon="-0.39618">
        <ele>45</ele>
        <time>2013-07-07T14:57:01Z</time>
      </trkpt>
      <trkpt lat="44.74052" lon="-0.39609">
        <ele>46</ele>
        <time>2013-07-07T14:57:09Z</time>
      </trkpt>
      <trkpt lat="44.74053" lon="-0.39595">
        <ele>47</ele>
        <time>2013-07-07T14:57:16Z</time>
      </trkpt>
      <trkpt lat="44.74054" lon="-0.39588">
        <ele>47</ele>
        <time>2013-07-07T14:57:22Z</time>
      </trkpt>
      <trkpt lat="44.74056" lon="-0.39584">
        <ele>47</ele>
        <time>2013-07-07T14:57:26Z</time>
      </trkpt>
      <trkpt lat="44.74061" lon="-0.39575">
        <ele>49</ele>
        <time>2013-07-07T14:57:34Z</time>
      </trkpt>
      <trkpt lat="44.74064" lon="-0.39572">
        <ele>49</ele>
        <time>2013-07-07T14:57:40Z</time>
      </trkpt>
      <trkpt lat="44.74068" lon="-0.39567">
        <ele>50</ele>
        <time>2013-07-07T14:57:48Z</time>
      </trkpt>
      <trkpt lat="44.74072" lon="-0.39561">
        <ele>51</ele>
        <time>2013-07-07T14:57:55Z</time>
      </trkpt>
      <trkpt lat="44.74073" lon="-0.39559">
        <ele>52</ele>
        <time>2013-07-07T14:58:02Z</time>
      </trkpt>
      <trkpt lat="44.74077" lon="-0.39553">
        <ele>53</ele>
        <time>2013-07-07T14:58:07Z</time>
      </trkpt>
      <trkpt lat="44.74086" lon="-0.39541">
        <ele>55</ele>
        <time>2013-07-07T14:58:15Z</time>
      </trkpt>
      <trkpt lat="44.74088" lon="-0.3954">
        <ele>55</ele>
        <time>2013-07-07T14:58:16Z</time>
      </trkpt>
      <trkpt lat="44.74096" lon="-0.39537">
        <ele>58</ele>
        <time>2013-07-07T14:58:22Z</time>
      </trkpt>
      <trkpt lat="44.74107" lon="-0.39534">
        <ele>60</ele>
        <time>2013-07-07T14:58:30Z</time>
      </trkpt>
      <trkpt lat="44.74115" lon="-0.39536">
        <ele>61</ele>
        <time>2013-07-07T14:58:37Z</time>
      </trkpt>
      <trkpt lat="44.74124" lon="-0.39538">
        <ele>61</ele>
        <time>2013-07-07T14:58:43Z</time>
      </trkpt>
      <trkpt lat="44.74125" lon="-0.39538">
        <ele>61</ele>
        <time>2013-07-07T14:58:44Z</time>
      </trkpt>
      <trkpt lat="44.74131" lon="-0.39547">
        <ele>62</ele>
        <time>2013-07-07T14:58:51Z</time>
      </trkpt>
      <trkpt lat="44.74137" lon="-0.39555">
        <ele>62</ele>
        <time>2013-07-07T14:58:58Z</time>
      </trkpt>
      <trkpt lat="44.7415" lon="-0.3956">
        <ele>64</ele>
        <time>2013-07-07T14:59:06Z</time>
      </trkpt>
      <trkpt lat="44.74159" lon="-0.39561">
        <ele>64</ele>
        <time>2013-07-07T14:59:12Z</time>
      </trkpt>
      <trkpt lat="44.74164" lon="-0.3956">
        <ele>65</ele>
        <time>2013-07-07T14:59:16Z</time>
      </trkpt>
      <trkpt lat="44.7417" lon="-0.39549">
        <ele>65</ele>
        <time>2013-07-07T14:59:25Z</time>
      </trkpt>
      <trkpt lat="44.7417" lon="-0.39547">
        <ele>65</ele>
        <time>2013-07-07T14:59:26Z</time>
      </trkpt>
      <trkpt lat="44.7417" lon="-0.39544">
        <ele>65</ele>
        <time>2013-07-07T14:59:28Z</time>
      </trkpt>
      <trkpt lat="44.74171" lon="-0.39527">
        <ele>67</ele>
        <time>2013-07-07T14:59:35Z</time>
      </trkpt>
      <trkpt lat="44.74175" lon="-0.39526">
        <ele>67</ele>
        <time>2013-07-07T14:59:42Z</time>
      </trkpt>
      <trkpt lat="44.7418" lon="-0.39525">
        <ele>68</ele>
        <time>2013-07-07T14:59:48Z</time>
      </trkpt>
      <trkpt lat="44.74185" lon="-0.39519">
        <ele>69</ele>
        <time>2013-07-07T14:59:53Z</time>
      </trkpt>
      <trkpt lat="44.7419" lon="-0.39511">
        <ele>70</ele>
        <time>2013-07-07T15:00:00Z</time>
      </trkpt>
      <trkpt lat="44.74193" lon="-0.39507">
        <ele>71</ele>
        <time>2013-07-07T15:00:03Z</time>
      </trkpt>
      <trkpt lat="44.74199" lon="-0.39499">
        <ele>72</ele>
        <time>2013-07-07T15:00:10Z</time>
      </trkpt>
      <trkpt lat="44.74201" lon="-0.39494">
        <ele>73</ele>
        <time>2013-07-07T15:00:13Z</time>
      </trkpt>
      <trkpt lat="44.74202" lon="-0.39481">
        <ele>74</ele>
        <time>2013-07-07T15:00:20Z</time>
      </trkpt>
      <trkpt lat="44.74202" lon="-0.39466">
        <ele>75</ele>
        <time>2013-07-07T15:00:28Z</time>
      </trkpt>
      <trkpt lat="44.74201" lon="-0.39451">
        <ele>76</ele>
        <time>2013-07-07T15:00:35Z</time>
      </trkpt>
      <trkpt lat="44.74203" lon="-0.39447">
        <ele>77</ele>
        <time>2013-07-07T15:00:37Z</time>
      </trkpt>
      <trkpt lat="44.74214" lon="-0.39435">
        <ele>79</ele>
        <time>2013-07-07T15:00:46Z</time>
      </trkpt>
      <trkpt lat="44.74227" lon="-0.39428">
        <ele>80</ele>
        <time>2013-07-07T15:00:53Z</time>
      </trkpt>
      <trkpt lat="44.74237" lon="-0.39424">
        <ele>80</ele>
        <time>2013-07-07T15:00:58Z</time>
      </trkpt>
      <trkpt lat="44.74252" lon="-0.39419">
        <ele>81</ele>
        <time>2013-07-07T15:01:05Z</time>
      </trkpt>
      <trkpt lat="44.74269" lon="-0.39413">
        <ele>82</ele>
        <time>2013-07-07T15:01:13Z</time>
      </trkpt>
      <trkpt lat="44.7427" lon="-0.39413">
        <ele>82</ele>
        <time>2013-07-07T15:01:14Z</time>
      </trkpt>
      <trkpt lat="44.74288" lon="-0.39417">
        <ele>83</ele>
        <time>2013-07-07T15:01:22Z</time>
      </trkpt>
      <trkpt lat="44.74302" lon="-0.39414">
        <ele>83</ele>
        <time>2013-07-07T15:01:30Z</time>
      </trkpt>
      <trkpt lat="44.74315" lon="-0.39411">
        <ele>83</ele>
        <time>2013-07-07T15:01:37Z</time>
      </trkpt>
      <trkpt lat="44.74322" lon="-0.39409">
        <ele>83</ele>
        <time>2013-07-07T15:01:41Z</time>
      </trkpt>
      <trkpt lat="44.74329" lon="-0.39421">
        <ele>84</ele>
        <time>2013-07-07T15:01:51Z</time>
      </trkpt>
      <trkpt lat="44.7433" lon="-0.39422">
        <ele>84</ele>
        <time>2013-07-07T15:01:58Z</time>
      </trkpt>
      <trkpt lat="44.74332" lon="-0.39422">
        <ele>84</ele>
        <time>2013-07-07T15:02:04Z</time>
      </trkpt>
      <trkpt lat="44.74334" lon="-0.39423">
        <ele>84</ele>
        <time>2013-07-07T15:02:12Z</time>
      </trkpt>
      <trkpt lat="44.74334" lon="-0.39422">
        <ele>84</ele>
        <time>2013-07-07T15:02:23Z</time>
      </trkpt>
      <trkpt lat="44.74338" lon="-0.39423">
        <ele>84</ele>
        <time>2013-07-07T15:02:32Z</time>
      </trkpt>
      <trkpt lat="44.74341" lon="-0.39424">
        <ele>84</ele>
        <time>2013-07-07T15:02:37Z</time>
      </trkpt>
      <trkpt lat="44.74343" lon="-0.39425">
        <ele>84</ele>
        <time>2013-07-07T15:02:38Z</time>
      </trkpt>
      <trkpt lat="44.74344" lon="-0.39429">
        <ele>84</ele>
        <time>2013-07-07T15:02:40Z</time>
      </trkpt>
      <trkpt lat="44.74348" lon="-0.39438">
        <ele>84</ele>
        <time>2013-07-07T15:02:44Z</time>
      </trkpt>
      <trkpt lat="44.7436" lon="-0.39449">
        <ele>84</ele>
        <time>2013-07-07T15:02:50Z</time>
      </trkpt>
      <trkpt lat="44.74366" lon="-0.39465">
        <ele>84</ele>
        <time>2013-07-07T15:02:54Z</time>
      </trkpt>
      <trkpt lat="44.74372" lon="-0.39479">
        <ele>85</ele>
        <time>2013-07-07T15:02:58Z</time>
      </trkpt>
      <trkpt lat="44.74382" lon="-0.39493">
        <ele>84</ele>
        <time>2013-07-07T15:03:03Z</time>
      </trkpt>
      <trkpt lat="44.74385" lon="-0.39494">
        <ele>84</ele>
        <time>2013-07-07T15:03:04Z</time>
      </trkpt>
      <trkpt lat="44.74393" lon="-0.39493">
        <ele>84</ele>
        <time>2013-07-07T15:03:12Z</time>
      </trkpt>
      <trkpt lat="44.74402" lon="-0.39488">
        <ele>83</ele>
        <time>2013-07-07T15:03:15Z</time>
      </trkpt>
      <trkpt lat="44.74421" lon="-0.39477">
        <ele>82</ele>
        <time>2013-07-07T15:03:21Z</time>
      </trkpt>
      <trkpt lat="44.74434" lon="-0.39472">
        <ele>81</ele>
        <time>2013-07-07T15:03:25Z</time>
      </trkpt>
      <trkpt lat="44.74445" lon="-0.39472">
        <ele>80</ele>
        <time>2013-07-07T15:03:29Z</time>
      </trkpt>
      <trkpt lat="44.74456" lon="-0.3947">
        <ele>78</ele>
        <time>2013-07-07T15:03:33Z</time>
      </trkpt>
      <trkpt lat="44.74484" lon="-0.39453">
        <ele>75</ele>
        <time>2013-07-07T15:03:40Z</time>
      </trkpt>
      <trkpt lat="44.74487" lon="-0.39452">
        <ele>74</ele>
        <time>2013-07-07T15:03:41Z</time>
      </trkpt>
      <trkpt lat="44.74493" lon="-0.39454">
        <ele>74</ele>
        <time>2013-07-07T15:03:42Z</time>
      </trkpt>
      <trkpt lat="44.74515" lon="-0.39433">
        <ele>70</ele>
        <time>2013-07-07T15:03:48Z</time>
      </trkpt>
      <trkpt lat="44.74527" lon="-0.39418">
        <ele>67</ele>
        <time>2013-07-07T15:03:53Z</time>
      </trkpt>
      <trkpt lat="44.74538" lon="-0.39415">
        <ele>66</ele>
        <time>2013-07-07T15:03:56Z</time>
      </trkpt>
      <trkpt lat="44.74553" lon="-0.39419">
        <ele>65</ele>
        <time>2013-07-07T15:04:00Z</time>
      </trkpt>
      <trkpt lat="44.74558" lon="-0.39425">
        <ele>65</ele>
        <time>2013-07-07T15:04:05Z</time>
      </trkpt>
      <trkpt lat="44.74568" lon="-0.39417">
        <ele>63</ele>
        <time>2013-07-07T15:04:10Z</time>
      </trkpt>
      <trkpt lat="44.74583" lon="-0.3941">
        <ele>61</ele>
        <time>2013-07-07T15:04:17Z</time>
      </trkpt>
      <trkpt lat="44.74587" lon="-0.39409">
        <ele>60</ele>
        <time>2013-07-07T15:04:19Z</time>
      </trkpt>
      <trkpt lat="44.74594" lon="-0.39394">
        <ele>59</ele>
        <time>2013-07-07T15:04:25Z</time>
      </trkpt>
      <trkpt lat="44.74597" lon="-0.39391">
        <ele>59</ele>
        <time>2013-07-07T15:04:27Z</time>
      </trkpt>
      <trkpt lat="44.74615" lon="-0.39389">
        <ele>57</ele>
        <time>2013-07-07T15:04:33Z</time>
      </trkpt>
      <trkpt lat="44.74633" lon="-0.39389">
        <ele>55</ele>
        <time>2013-07-07T15:04:39Z</time>
      </trkpt>
      <trkpt lat="44.74644" lon="-0.39389">
        <ele>53</ele>
        <time>2013-07-07T15:04:49Z</time>
      </trkpt>
      <trkpt lat="44.74655" lon="-0.39393">
        <ele>53</ele>
        <time>2013-07-07T15:05:02Z</time>
      </trkpt>
      <trkpt lat="44.74667" lon="-0.39398">
        <ele>52</ele>
        <time>2013-07-07T15:05:09Z</time>
      </trkpt>
      <trkpt lat="44.74679" lon="-0.39402">
        <ele>51</ele>
        <time>2013-07-07T15:05:14Z</time>
      </trkpt>
      <trkpt lat="44.74693" lon="-0.39414">
        <ele>51</ele>
        <time>2013-07-07T15:05:20Z</time>
      </trkpt>
      <trkpt lat="44.74713" lon="-0.39425">
        <ele>54</ele>
        <time>2013-07-07T15:05:28Z</time>
      </trkpt>
      <trkpt lat="44.74726" lon="-0.39433">
        <ele>56</ele>
        <time>2013-07-07T15:05:34Z</time>
      </trkpt>
      <trkpt lat="44.74726" lon="-0.39433">
        <ele>56</ele>
        <time>2013-07-07T15:05:35Z</time>
      </trkpt>
      <trkpt lat="44.7474" lon="-0.39443">
        <ele>58</ele>
        <time>2013-07-07T15:05:41Z</time>
      </trkpt>
      <trkpt lat="44.74745" lon="-0.39445">
        <ele>58</ele>
        <time>2013-07-07T15:05:45Z</time>
      </trkpt>
      <trkpt lat="44.74755" lon="-0.39458">
        <ele>60</ele>
        <time>2013-07-07T15:05:51Z</time>
      </trkpt>
      <trkpt lat="44.74756" lon="-0.39459">
        <ele>60</ele>
        <time>2013-07-07T15:05:52Z</time>
      </trkpt>
      <trkpt lat="44.74757" lon="-0.39465">
        <ele>61</ele>
        <time>2013-07-07T15:05:55Z</time>
      </trkpt>
      <trkpt lat="44.74758" lon="-0.3948">
        <ele>62</ele>
        <time>2013-07-07T15:06:01Z</time>
      </trkpt>
      <trkpt lat="44.74753" lon="-0.39487">
        <ele>63</ele>
        <time>2013-07-07T15:06:06Z</time>
      </trkpt>
      <trkpt lat="44.74748" lon="-0.395">
        <ele>64</ele>
        <time>2013-07-07T15:06:13Z</time>
      </trkpt>
      <trkpt lat="44.7474" lon="-0.39508">
        <ele>65</ele>
        <time>2013-07-07T15:06:19Z</time>
      </trkpt>
      <trkpt lat="44.74734" lon="-0.39517">
        <ele>66</ele>
        <time>2013-07-07T15:06:25Z</time>
      </trkpt>
      <trkpt lat="44.74723" lon="-0.39525">
        <ele>65</ele>
        <time>2013-07-07T15:06:31Z</time>
      </trkpt>
      <trkpt lat="44.74717" lon="-0.39533">
        <ele>65</ele>
        <time>2013-07-07T15:06:35Z</time>
      </trkpt>
      <trkpt lat="44.74704" lon="-0.39553">
        <ele>66</ele>
        <time>2013-07-07T15:06:44Z</time>
      </trkpt>
      <trkpt lat="44.747" lon="-0.39567">
        <ele>67</ele>
        <time>2013-07-07T15:06:49Z</time>
      </trkpt>
      <trkpt lat="44.74699" lon="-0.39572">
        <ele>67</ele>
        <time>2013-07-07T15:06:51Z</time>
      </trkpt>
      <trkpt lat="44.7469" lon="-0.39599">
        <ele>68</ele>
        <time>2013-07-07T15:06:59Z</time>
      </trkpt>
      <trkpt lat="44.74688" lon="-0.39622">
        <ele>69</ele>
        <time>2013-07-07T15:07:07Z</time>
      </trkpt>
      <trkpt lat="44.74679" lon="-0.39644">
        <ele>70</ele>
        <time>2013-07-07T15:07:14Z</time>
      </trkpt>
      <trkpt lat="44.74669" lon="-0.39666">
        <ele>70</ele>
        <time>2013-07-07T15:07:21Z</time>
      </trkpt>
      <trkpt lat="44.74664" lon="-0.39681">
        <ele>70</ele>
        <time>2013-07-07T15:07:26Z</time>
      </trkpt>
      <trkpt lat="44.74666" lon="-0.39693">
        <ele>71</ele>
        <time>2013-07-07T15:07:34Z</time>
      </trkpt>
      <trkpt lat="44.74666" lon="-0.39694">
        <ele>71</ele>
        <time>2013-07-07T15:07:46Z</time>
      </trkpt>
      <trkpt lat="44.74668" lon="-0.39696">
        <ele>71</ele>
        <time>2013-07-07T15:07:56Z</time>
      </trkpt>
      <trkpt lat="44.74668" lon="-0.39698">
        <ele>71</ele>
        <time>2013-07-07T15:08:09Z</time>
      </trkpt>
      <trkpt lat="44.7467" lon="-0.39698">
        <ele>71</ele>
        <time>2013-07-07T15:08:11Z</time>
      </trkpt>
      <trkpt lat="44.74675" lon="-0.39694">
        <ele>71</ele>
        <time>2013-07-07T15:08:15Z</time>
      </trkpt>
      <trkpt lat="44.7469" lon="-0.39689">
        <ele>71</ele>
        <time>2013-07-07T15:08:22Z</time>
      </trkpt>
      <trkpt lat="44.74703" lon="-0.39693">
        <ele>71</ele>
        <time>2013-07-07T15:08:28Z</time>
      </trkpt>
      <trkpt lat="44.7471" lon="-0.39704">
        <ele>71</ele>
        <time>2013-07-07T15:08:33Z</time>
      </trkpt>
      <trkpt lat="44.74718" lon="-0.39711">
        <ele>71</ele>
        <time>2013-07-07T15:08:37Z</time>
      </trkpt>
      <trkpt lat="44.74722" lon="-0.39718">
        <ele>70</ele>
        <time>2013-07-07T15:08:40Z</time>
      </trkpt>
      <trkpt lat="44.74721" lon="-0.39726">
        <ele>69</ele>
        <time>2013-07-07T15:08:43Z</time>
      </trkpt>
      <trkpt lat="44.74731" lon="-0.39741">
        <ele>68</ele>
        <time>2013-07-07T15:08:48Z</time>
      </trkpt>
      <trkpt lat="44.74735" lon="-0.39746">
        <ele>68</ele>
        <time>2013-07-07T15:08:51Z</time>
      </trkpt>
      <trkpt lat="44.74744" lon="-0.3976">
        <ele>67</ele>
        <time>2013-07-07T15:08:58Z</time>
      </trkpt>
      <trkpt lat="44.7475" lon="-0.39766">
        <ele>67</ele>
        <time>2013-07-07T15:08:59Z</time>
      </trkpt>
      <trkpt lat="44.7476" lon="-0.39782">
        <ele>67</ele>
        <time>2013-07-07T15:09:03Z</time>
      </trkpt>
      <trkpt lat="44.74842" lon="-0.39868">
        <ele>59</ele>
        <time>2013-07-07T15:09:04Z</time>
      </trkpt>
      <trkpt lat="44.74855" lon="-0.39859">
        <ele>59</ele>
        <time>2013-07-07T15:09:08Z</time>
      </trkpt>
      <trkpt lat="44.74869" lon="-0.39864">
        <ele>58</ele>
        <time>2013-07-07T15:09:15Z</time>
      </trkpt>
      <trkpt lat="44.74882" lon="-0.39844">
        <ele>57</ele>
        <time>2013-07-07T15:09:22Z</time>
      </trkpt>
      <trkpt lat="44.74894" lon="-0.39821">
        <ele>57</ele>
        <time>2013-07-07T15:09:28Z</time>
      </trkpt>
      <trkpt lat="44.74904" lon="-0.398">
        <ele>56</ele>
        <time>2013-07-07T15:09:34Z</time>
      </trkpt>
      <trkpt lat="44.74905" lon="-0.39797">
        <ele>56</ele>
        <time>2013-07-07T15:09:35Z</time>
      </trkpt>
      <trkpt lat="44.74909" lon="-0.39792">
        <ele>55</ele>
        <time>2013-07-07T15:09:38Z</time>
      </trkpt>
      <trkpt lat="44.74913" lon="-0.39767">
        <ele>55</ele>
        <time>2013-07-07T15:09:46Z</time>
      </trkpt>
      <trkpt lat="44.74919" lon="-0.39751">
        <ele>54</ele>
        <time>2013-07-07T15:09:52Z</time>
      </trkpt>
      <trkpt lat="44.74923" lon="-0.3974">
        <ele>53</ele>
        <time>2013-07-07T15:09:56Z</time>
      </trkpt>
      <trkpt lat="44.74937" lon="-0.39715">
        <ele>50</ele>
        <time>2013-07-07T15:10:03Z</time>
      </trkpt>
      <trkpt lat="44.74942" lon="-0.39698">
        <ele>49</ele>
        <time>2013-07-07T15:10:11Z</time>
      </trkpt>
      <trkpt lat="44.74943" lon="-0.39694">
        <ele>49</ele>
        <time>2013-07-07T15:10:23Z</time>
      </trkpt>
      <trkpt lat="44.7495" lon="-0.39675">
        <ele>48</ele>
        <time>2013-07-07T15:10:31Z</time>
      </trkpt>
      <trkpt lat="44.74959" lon="-0.39657">
        <ele>47</ele>
        <time>2013-07-07T15:10:38Z</time>
      </trkpt>
      <trkpt lat="44.7496" lon="-0.39651">
        <ele>47</ele>
        <time>2013-07-07T15:10:40Z</time>
      </trkpt>
      <trkpt lat="44.74965" lon="-0.39626">
        <ele>47</ele>
        <time>2013-07-07T15:10:48Z</time>
      </trkpt>
      <trkpt lat="44.74967" lon="-0.396">
        <ele>46</ele>
        <time>2013-07-07T15:10:54Z</time>
      </trkpt>
      <trkpt lat="44.74967" lon="-0.39576">
        <ele>47</ele>
        <time>2013-07-07T15:11:00Z</time>
      </trkpt>
      <trkpt lat="44.74965" lon="-0.39569">
        <ele>47</ele>
        <time>2013-07-07T15:11:07Z</time>
      </trkpt>
      <trkpt lat="44.74963" lon="-0.39561">
        <ele>47</ele>
        <time>2013-07-07T15:11:15Z</time>
      </trkpt>
      <trkpt lat="44.74963" lon="-0.39556">
        <ele>47</ele>
        <time>2013-07-07T15:11:21Z</time>
      </trkpt>
      <trkpt lat="44.74964" lon="-0.39548">
        <ele>47</ele>
        <time>2013-07-07T15:11:27Z</time>
      </trkpt>
      <trkpt lat="44.74963" lon="-0.39545">
        <ele>47</ele>
        <time>2013-07-07T15:11:35Z</time>
      </trkpt>
      <trkpt lat="44.7496" lon="-0.39537">
        <ele>48</ele>
        <time>2013-07-07T15:11:44Z</time>
      </trkpt>
      <trkpt lat="44.7496" lon="-0.39532">
        <ele>48</ele>
        <time>2013-07-07T15:11:51Z</time>
      </trkpt>
      <trkpt lat="44.7496" lon="-0.39529">
        <ele>48</ele>
        <time>2013-07-07T15:11:53Z</time>
      </trkpt>
      <trkpt lat="44.74964" lon="-0.39515">
        <ele>48</ele>
        <time>2013-07-07T15:12:00Z</time>
      </trkpt>
      <trkpt lat="44.74969" lon="-0.39507">
        <ele>47</ele>
        <time>2013-07-07T15:12:07Z</time>
      </trkpt>
      <trkpt lat="44.74974" lon="-0.39503">
        <ele>47</ele>
        <time>2013-07-07T15:12:14Z</time>
      </trkpt>
      <trkpt lat="44.74974" lon="-0.39502">
        <ele>47</ele>
        <time>2013-07-07T15:12:15Z</time>
      </trkpt>
      <trkpt lat="44.74979" lon="-0.39486">
        <ele>46</ele>
        <time>2013-07-07T15:12:23Z</time>
      </trkpt>
      <trkpt lat="44.74986" lon="-0.39468">
        <ele>45</ele>
        <time>2013-07-07T15:12:28Z</time>
      </trkpt>
      <trkpt lat="44.74998" lon="-0.39456">
        <ele>43</ele>
        <time>2013-07-07T15:12:34Z</time>
      </trkpt>
      <trkpt lat="44.75004" lon="-0.39449">
        <ele>43</ele>
        <time>2013-07-07T15:12:37Z</time>
      </trkpt>
      <trkpt lat="44.75017" lon="-0.39422">
        <ele>43</ele>
        <time>2013-07-07T15:12:43Z</time>
      </trkpt>
      <trkpt lat="44.75028" lon="-0.39397">
        <ele>42</ele>
        <time>2013-07-07T15:12:47Z</time>
      </trkpt>
      <trkpt lat="44.75051" lon="-0.39358">
        <ele>42</ele>
        <time>2013-07-07T15:12:52Z</time>
      </trkpt>
      <trkpt lat="44.75069" lon="-0.39332">
        <ele>41</ele>
        <time>2013-07-07T15:12:58Z</time>
      </trkpt>
      <trkpt lat="44.75078" lon="-0.39312">
        <ele>40</ele>
        <time>2013-07-07T15:13:03Z</time>
      </trkpt>
      <trkpt lat="44.75081" lon="-0.39305">
        <ele>40</ele>
        <time>2013-07-07T15:13:14Z</time>
      </trkpt>
      <trkpt lat="44.75083" lon="-0.39303">
        <ele>40</ele>
        <time>2013-07-07T15:13:27Z</time>
      </trkpt>
      <trkpt lat="44.75085" lon="-0.39302">
        <ele>40</ele>
        <time>2013-07-07T15:13:33Z</time>
      </trkpt>
      <trkpt lat="44.75087" lon="-0.39302">
        <ele>40</ele>
        <time>2013-07-07T15:13:41Z</time>
      </trkpt>
      <trkpt lat="44.7509" lon="-0.39303">
        <ele>39</ele>
        <time>2013-07-07T15:13:50Z</time>
      </trkpt>
      <trkpt lat="44.75095" lon="-0.39303">
        <ele>39</ele>
        <time>2013-07-07T15:13:57Z</time>
      </trkpt>
      <trkpt lat="44.75096" lon="-0.39303">
        <ele>39</ele>
        <time>2013-07-07T15:14:08Z</time>
      </trkpt>
      <trkpt lat="44.75099" lon="-0.39302">
        <ele>39</ele>
        <time>2013-07-07T15:14:17Z</time>
      </trkpt>
      <trkpt lat="44.75099" lon="-0.39301">
        <ele>39</ele>
        <time>2013-07-07T15:14:31Z</time>
      </trkpt>
      <trkpt lat="44.75102" lon="-0.39299">
        <ele>39</ele>
        <time>2013-07-07T15:14:44Z</time>
      </trkpt>
      <trkpt lat="44.75105" lon="-0.39302">
        <ele>39</ele>
        <time>2013-07-07T15:14:59Z</time>
      </trkpt>
      <trkpt lat="44.75107" lon="-0.39305">
        <ele>39</ele>
        <time>2013-07-07T15:15:12Z</time>
      </trkpt>
      <trkpt lat="44.75109" lon="-0.39303">
        <ele>39</ele>
        <time>2013-07-07T15:15:20Z</time>
      </trkpt>
      <trkpt lat="44.75111" lon="-0.39308">
        <ele>39</ele>
        <time>2013-07-07T15:15:26Z</time>
      </trkpt>
      <trkpt lat="44.75111" lon="-0.39309">
        <ele>39</ele>
        <time>2013-07-07T15:15:27Z</time>
      </trkpt>
      <trkpt lat="44.75111" lon="-0.39315">
        <ele>39</ele>
        <time>2013-07-07T15:15:30Z</time>
      </trkpt>
      <trkpt lat="44.75114" lon="-0.39319">
        <ele>39</ele>
        <time>2013-07-07T15:15:38Z</time>
      </trkpt>
      <trkpt lat="44.75118" lon="-0.39319">
        <ele>39</ele>
        <time>2013-07-07T15:15:47Z</time>
      </trkpt>
      <trkpt lat="44.75122" lon="-0.39318">
        <ele>39</ele>
        <time>2013-07-07T15:15:53Z</time>
      </trkpt>
      <trkpt lat="44.75128" lon="-0.39315">
        <ele>39</ele>
        <time>2013-07-07T15:16:00Z</time>
      </trkpt>
      <trkpt lat="44.75128" lon="-0.39312">
        <ele>39</ele>
        <time>2013-07-07T15:16:07Z</time>
      </trkpt>
      <trkpt lat="44.75128" lon="-0.3931">
        <ele>39</ele>
        <time>2013-07-07T15:16:09Z</time>
      </trkpt>
      <trkpt lat="44.75127" lon="-0.39303">
        <ele>39</ele>
        <time>2013-07-07T15:16:14Z</time>
      </trkpt>
      <trkpt lat="44.75131" lon="-0.39295">
        <ele>38</ele>
        <time>2013-07-07T15:16:19Z</time>
      </trkpt>
      <trkpt lat="44.75136" lon="-0.39286">
        <ele>38</ele>
        <time>2013-07-07T15:16:25Z</time>
      </trkpt>
      <trkpt lat="44.75139" lon="-0.39277">
        <ele>38</ele>
        <time>2013-07-07T15:16:28Z</time>
      </trkpt>
      <trkpt lat="44.75139" lon="-0.39268">
        <ele>38</ele>
        <time>2013-07-07T15:16:31Z</time>
      </trkpt>
      <trkpt lat="44.75131" lon="-0.39266">
        <ele>38</ele>
        <time>2013-07-07T15:16:36Z</time>
      </trkpt>
      <trkpt lat="44.75125" lon="-0.39261">
        <ele>38</ele>
        <time>2013-07-07T15:16:40Z</time>
      </trkpt>
      <trkpt lat="44.75126" lon="-0.39255">
        <ele>38</ele>
        <time>2013-07-07T15:16:43Z</time>
      </trkpt>
      <trkpt lat="44.75125" lon="-0.39247">
        <ele>39</ele>
        <time>2013-07-07T15:16:46Z</time>
      </trkpt>
      <trkpt lat="44.75134" lon="-0.39231">
        <ele>39</ele>
        <time>2013-07-07T15:16:52Z</time>
      </trkpt>
      <trkpt lat="44.75143" lon="-0.3923">
        <ele>39</ele>
        <time>2013-07-07T15:16:58Z</time>
      </trkpt>
      <trkpt lat="44.75144" lon="-0.39232">
        <ele>39</ele>
        <time>2013-07-07T15:16:59Z</time>
      </trkpt>
      <trkpt lat="44.75156" lon="-0.39248">
        <ele>39</ele>
        <time>2013-07-07T15:17:06Z</time>
      </trkpt>
      <trkpt lat="44.75157" lon="-0.3925">
        <ele>39</ele>
        <time>2013-07-07T15:17:07Z</time>
      </trkpt>
      <trkpt lat="44.75173" lon="-0.39251">
        <ele>40</ele>
        <time>2013-07-07T15:17:13Z</time>
      </trkpt>
      <trkpt lat="44.7519" lon="-0.39251">
        <ele>40</ele>
        <time>2013-07-07T15:17:18Z</time>
      </trkpt>
      <trkpt lat="44.75206" lon="-0.39255">
        <ele>40</ele>
        <time>2013-07-07T15:17:25Z</time>
      </trkpt>
      <trkpt lat="44.75212" lon="-0.39259">
        <ele>40</ele>
        <time>2013-07-07T15:17:26Z</time>
      </trkpt>
      <trkpt lat="44.7523" lon="-0.39261">
        <ele>40</ele>
        <time>2013-07-07T15:17:34Z</time>
      </trkpt>
      <trkpt lat="44.75236" lon="-0.39262">
        <ele>40</ele>
        <time>2013-07-07T15:17:43Z</time>
      </trkpt>
      <trkpt lat="44.75239" lon="-0.39261">
        <ele>41</ele>
        <time>2013-07-07T15:17:50Z</time>
      </trkpt>
      <trkpt lat="44.75239" lon="-0.39263">
        <ele>41</ele>
        <time>2013-07-07T15:18:01Z</time>
      </trkpt>
      <trkpt lat="44.75239" lon="-0.39263">
        <ele>41</ele>
        <time>2013-07-07T15:18:05Z</time>
      </trkpt>
      <trkpt lat="44.75243" lon="-0.39257">
        <ele>41</ele>
        <time>2013-07-07T15:18:13Z</time>
      </trkpt>
      <trkpt lat="44.75249" lon="-0.3926">
        <ele>41</ele>
        <time>2013-07-07T15:18:21Z</time>
      </trkpt>
      <trkpt lat="44.7525" lon="-0.39261">
        <ele>41</ele>
        <time>2013-07-07T15:18:25Z</time>
      </trkpt>
      <trkpt lat="44.75259" lon="-0.39269">
        <ele>41</ele>
        <time>2013-07-07T15:18:33Z</time>
      </trkpt>
      <trkpt lat="44.75265" lon="-0.39276">
        <ele>42</ele>
        <time>2013-07-07T15:18:42Z</time>
      </trkpt>
      <trkpt lat="44.75269" lon="-0.39282">
        <ele>42</ele>
        <time>2013-07-07T15:18:48Z</time>
      </trkpt>
      <trkpt lat="44.75275" lon="-0.39285">
        <ele>42</ele>
        <time>2013-07-07T15:18:56Z</time>
      </trkpt>
      <trkpt lat="44.75277" lon="-0.39284">
        <ele>43</ele>
        <time>2013-07-07T15:19:03Z</time>
      </trkpt>
      <trkpt lat="44.75278" lon="-0.39284">
        <ele>43</ele>
        <time>2013-07-07T15:19:15Z</time>
      </trkpt>
      <trkpt lat="44.75278" lon="-0.39284">
        <ele>43</ele>
        <time>2013-07-07T15:19:24Z</time>
      </trkpt>
      <trkpt lat="44.75279" lon="-0.39284">
        <ele>43</ele>
        <time>2013-07-07T15:19:36Z</time>
      </trkpt>
      <trkpt lat="44.7528" lon="-0.39283">
        <ele>43</ele>
        <time>2013-07-07T15:19:43Z</time>
      </trkpt>
      <trkpt lat="44.75279" lon="-0.39282">
        <ele>43</ele>
        <time>2013-07-07T15:19:50Z</time>
      </trkpt>
      <trkpt lat="44.75279" lon="-0.3928">
        <ele>42</ele>
        <time>2013-07-07T15:19:52Z</time>
      </trkpt>
      <trkpt lat="44.75279" lon="-0.39277">
        <ele>42</ele>
        <time>2013-07-07T15:19:54Z</time>
      </trkpt>
      <trkpt lat="44.75284" lon="-0.39267">
        <ele>42</ele>
        <time>2013-07-07T15:20:01Z</time>
      </trkpt>
      <trkpt lat="44.75286" lon="-0.39263">
        <ele>42</ele>
        <time>2013-07-07T15:20:06Z</time>
      </trkpt>
      <trkpt lat="44.75291" lon="-0.39256">
        <ele>43</ele>
        <time>2013-07-07T15:20:12Z</time>
      </trkpt>
      <trkpt lat="44.75297" lon="-0.39244">
        <ele>42</ele>
        <time>2013-07-07T15:20:19Z</time>
      </trkpt>
      <trkpt lat="44.75306" lon="-0.39233">
        <ele>42</ele>
        <time>2013-07-07T15:20:26Z</time>
      </trkpt>
      <trkpt lat="44.75313" lon="-0.39221">
        <ele>42</ele>
        <time>2013-07-07T15:20:32Z</time>
      </trkpt>
      <trkpt lat="44.75319" lon="-0.39209">
        <ele>42</ele>
        <time>2013-07-07T15:20:39Z</time>
      </trkpt>
      <trkpt lat="44.75327" lon="-0.39197">
        <ele>42</ele>
        <time>2013-07-07T15:20:45Z</time>
      </trkpt>
      <trkpt lat="44.75331" lon="-0.39194">
        <ele>43</ele>
        <time>2013-07-07T15:20:47Z</time>
      </trkpt>
      <trkpt lat="44.75338" lon="-0.39178">
        <ele>43</ele>
        <time>2013-07-07T15:20:54Z</time>
      </trkpt>
      <trkpt lat="44.75352" lon="-0.39161">
        <ele>43</ele>
        <time>2013-07-07T15:21:01Z</time>
      </trkpt>
      <trkpt lat="44.75366" lon="-0.39143">
        <ele>44</ele>
        <time>2013-07-07T15:21:10Z</time>
      </trkpt>
      <trkpt lat="44.75378" lon="-0.39139">
        <ele>44</ele>
        <time>2013-07-07T15:21:17Z</time>
      </trkpt>
      <trkpt lat="44.75392" lon="-0.39116">
        <ele>44</ele>
        <time>2013-07-07T15:21:24Z</time>
      </trkpt>
      <trkpt lat="44.75405" lon="-0.39094">
        <ele>44</ele>
        <time>2013-07-07T15:21:31Z</time>
      </trkpt>
      <trkpt lat="44.75416" lon="-0.39078">
        <ele>44</ele>
        <time>2013-07-07T15:21:38Z</time>
      </trkpt>
      <trkpt lat="44.75417" lon="-0.3907">
        <ele>44</ele>
        <time>2013-07-07T15:21:41Z</time>
      </trkpt>
      <trkpt lat="44.75421" lon="-0.39064">
        <ele>44</ele>
        <time>2013-07-07T15:21:43Z</time>
      </trkpt>
      <trkpt lat="44.75435" lon="-0.39046">
        <ele>44</ele>
        <time>2013-07-07T15:21:53Z</time>
      </trkpt>
      <trkpt lat="44.75441" lon="-0.39042">
        <ele>44</ele>
        <time>2013-07-07T15:21:58Z</time>
      </trkpt>
      <trkpt lat="44.75446" lon="-0.39036">
        <ele>44</ele>
        <time>2013-07-07T15:22:01Z</time>
      </trkpt>
      <trkpt lat="44.75453" lon="-0.39022">
        <ele>45</ele>
        <time>2013-07-07T15:22:07Z</time>
      </trkpt>
      <trkpt lat="44.75455" lon="-0.3902">
        <ele>45</ele>
        <time>2013-07-07T15:22:08Z</time>
      </trkpt>
      <trkpt lat="44.75465" lon="-0.39007">
        <ele>45</ele>
        <time>2013-07-07T15:22:13Z</time>
      </trkpt>
      <trkpt lat="44.7548" lon="-0.39">
        <ele>45</ele>
        <time>2013-07-07T15:22:19Z</time>
      </trkpt>
      <trkpt lat="44.75494" lon="-0.38985">
        <ele>45</ele>
        <time>2013-07-07T15:22:26Z</time>
      </trkpt>
      <trkpt lat="44.75509" lon="-0.38974">
        <ele>45</ele>
        <time>2013-07-07T15:22:32Z</time>
      </trkpt>
      <trkpt lat="44.75526" lon="-0.38965">
        <ele>46</ele>
        <time>2013-07-07T15:22:38Z</time>
      </trkpt>
      <trkpt lat="44.75531" lon="-0.38962">
        <ele>46</ele>
        <time>2013-07-07T15:22:40Z</time>
      </trkpt>
      <trkpt lat="44.75536" lon="-0.38946">
        <ele>46</ele>
        <time>2013-07-07T15:22:48Z</time>
      </trkpt>
      <trkpt lat="44.75542" lon="-0.38934">
        <ele>46</ele>
        <time>2013-07-07T15:22:54Z</time>
      </trkpt>
      <trkpt lat="44.75544" lon="-0.38929">
        <ele>46</ele>
        <time>2013-07-07T15:22:55Z</time>
      </trkpt>
      <trkpt lat="44.75547" lon="-0.38916">
        <ele>46</ele>
        <time>2013-07-07T15:23:02Z</time>
      </trkpt>
      <trkpt lat="44.75552" lon="-0.389">
        <ele>46</ele>
        <time>2013-07-07T15:23:09Z</time>
      </trkpt>
      <trkpt lat="44.75563" lon="-0.38895">
        <ele>46</ele>
        <time>2013-07-07T15:23:17Z</time>
      </trkpt>
      <trkpt lat="44.75571" lon="-0.3889">
        <ele>46</ele>
        <time>2013-07-07T15:23:23Z</time>
      </trkpt>
      <trkpt lat="44.75582" lon="-0.38879">
        <ele>46</ele>
        <time>2013-07-07T15:23:30Z</time>
      </trkpt>
      <trkpt lat="44.75598" lon="-0.38872">
        <ele>45</ele>
        <time>2013-07-07T15:23:38Z</time>
      </trkpt>
      <trkpt lat="44.75604" lon="-0.38873">
        <ele>45</ele>
        <time>2013-07-07T15:23:44Z</time>
      </trkpt>
      <trkpt lat="44.75612" lon="-0.38876">
        <ele>45</ele>
        <time>2013-07-07T15:23:50Z</time>
      </trkpt>
      <trkpt lat="44.75618" lon="-0.38877">
        <ele>46</ele>
        <time>2013-07-07T15:23:55Z</time>
      </trkpt>
      <trkpt lat="44.75624" lon="-0.3888">
        <ele>46</ele>
        <time>2013-07-07T15:24:02Z</time>
      </trkpt>
      <trkpt lat="44.75629" lon="-0.3888">
        <ele>47</ele>
        <time>2013-07-07T15:24:13Z</time>
      </trkpt>
      <trkpt lat="44.75634" lon="-0.38885">
        <ele>47</ele>
        <time>2013-07-07T15:24:20Z</time>
      </trkpt>
      <trkpt lat="44.75637" lon="-0.38891">
        <ele>47</ele>
        <time>2013-07-07T15:24:25Z</time>
      </trkpt>
      <trkpt lat="44.7565" lon="-0.38893">
        <ele>48</ele>
        <time>2013-07-07T15:24:34Z</time>
      </trkpt>
      <trkpt lat="44.75656" lon="-0.38894">
        <ele>49</ele>
        <time>2013-07-07T15:24:42Z</time>
      </trkpt>
      <trkpt lat="44.7566" lon="-0.389">
        <ele>50</ele>
        <time>2013-07-07T15:24:48Z</time>
      </trkpt>
      <trkpt lat="44.75664" lon="-0.38903">
        <ele>50</ele>
        <time>2013-07-07T15:24:51Z</time>
      </trkpt>
      <trkpt lat="44.75667" lon="-0.38905">
        <ele>50</ele>
        <time>2013-07-07T15:24:53Z</time>
      </trkpt>
      <trkpt lat="44.75674" lon="-0.38911">
        <ele>52</ele>
        <time>2013-07-07T15:24:59Z</time>
      </trkpt>
      <trkpt lat="44.75678" lon="-0.38917">
        <ele>52</ele>
        <time>2013-07-07T15:25:03Z</time>
      </trkpt>
      <trkpt lat="44.75691" lon="-0.38924">
        <ele>54</ele>
        <time>2013-07-07T15:25:11Z</time>
      </trkpt>
      <trkpt lat="44.75703" lon="-0.38927">
        <ele>56</ele>
        <time>2013-07-07T15:25:19Z</time>
      </trkpt>
      <trkpt lat="44.75709" lon="-0.38929">
        <ele>57</ele>
        <time>2013-07-07T15:25:26Z</time>
      </trkpt>
      <trkpt lat="44.75717" lon="-0.38931">
        <ele>59</ele>
        <time>2013-07-07T15:25:33Z</time>
      </trkpt>
      <trkpt lat="44.75719" lon="-0.38932">
        <ele>59</ele>
        <time>2013-07-07T15:25:36Z</time>
      </trkpt>
      <trkpt lat="44.75728" lon="-0.38924">
        <ele>60</ele>
        <time>2013-07-07T15:25:43Z</time>
      </trkpt>
      <trkpt lat="44.75732" lon="-0.3892">
        <ele>61</ele>
        <time>2013-07-07T15:25:49Z</time>
      </trkpt>
      <trkpt lat="44.75738" lon="-0.38926">
        <ele>62</ele>
        <time>2013-07-07T15:25:56Z</time>
      </trkpt>
      <trkpt lat="44.75739" lon="-0.38926">
        <ele>62</ele>
        <time>2013-07-07T15:25:58Z</time>
      </trkpt>
      <trkpt lat="44.75745" lon="-0.38927">
        <ele>63</ele>
        <time>2013-07-07T15:26:01Z</time>
      </trkpt>
      <trkpt lat="44.75756" lon="-0.38924">
        <ele>62</ele>
        <time>2013-07-07T15:26:07Z</time>
      </trkpt>
      <trkpt lat="44.75762" lon="-0.38925">
        <ele>63</ele>
        <time>2013-07-07T15:26:10Z</time>
      </trkpt>
      <trkpt lat="44.75763" lon="-0.38917">
        <ele>62</ele>
        <time>2013-07-07T15:26:15Z</time>
      </trkpt>
      <trkpt lat="44.75764" lon="-0.38913">
        <ele>61</ele>
        <time>2013-07-07T15:26:18Z</time>
      </trkpt>
      <trkpt lat="44.7577" lon="-0.38906">
        <ele>61</ele>
        <time>2013-07-07T15:26:24Z</time>
      </trkpt>
      <trkpt lat="44.75777" lon="-0.38901">
        <ele>60</ele>
        <time>2013-07-07T15:26:31Z</time>
      </trkpt>
      <trkpt lat="44.75782" lon="-0.389">
        <ele>60</ele>
        <time>2013-07-07T15:26:33Z</time>
      </trkpt>
      <trkpt lat="44.75796" lon="-0.38895">
        <ele>59</ele>
        <time>2013-07-07T15:26:40Z</time>
      </trkpt>
      <trkpt lat="44.75809" lon="-0.38883">
        <ele>58</ele>
        <time>2013-07-07T15:26:47Z</time>
      </trkpt>
      <trkpt lat="44.75814" lon="-0.38881">
        <ele>57</ele>
        <time>2013-07-07T15:26:49Z</time>
      </trkpt>
      <trkpt lat="44.75831" lon="-0.38883">
        <ele>57</ele>
        <time>2013-07-07T15:26:55Z</time>
      </trkpt>
      <trkpt lat="44.75838" lon="-0.38895">
        <ele>58</ele>
        <time>2013-07-07T15:27:02Z</time>
      </trkpt>
      <trkpt lat="44.75847" lon="-0.38898">
        <ele>57</ele>
        <time>2013-07-07T15:27:08Z</time>
      </trkpt>
      <trkpt lat="44.7586" lon="-0.38906">
        <ele>57</ele>
        <time>2013-07-07T15:27:15Z</time>
      </trkpt>
      <trkpt lat="44.75865" lon="-0.38914">
        <ele>57</ele>
        <time>2013-07-07T15:27:23Z</time>
      </trkpt>
      <trkpt lat="44.75868" lon="-0.3892">
        <ele>58</ele>
        <time>2013-07-07T15:27:31Z</time>
      </trkpt>
      <trkpt lat="44.75871" lon="-0.38924">
        <ele>58</ele>
        <time>2013-07-07T15:27:43Z</time>
      </trkpt>
      <trkpt lat="44.7587" lon="-0.38924">
        <ele>58</ele>
        <time>2013-07-07T15:27:54Z</time>
      </trkpt>
      <trkpt lat="44.75872" lon="-0.3893">
        <ele>58</ele>
        <time>2013-07-07T15:28:02Z</time>
      </trkpt>
      <trkpt lat="44.75874" lon="-0.38933">
        <ele>58</ele>
        <time>2013-07-07T15:28:11Z</time>
      </trkpt>
      <trkpt lat="44.75876" lon="-0.38934">
        <ele>58</ele>
        <time>2013-07-07T15:28:20Z</time>
      </trkpt>
      <trkpt lat="44.75877" lon="-0.38933">
        <ele>58</ele>
        <time>2013-07-07T15:28:27Z</time>
      </trkpt>
      <trkpt lat="44.75879" lon="-0.38939">
        <ele>58</ele>
        <time>2013-07-07T15:28:34Z</time>
      </trkpt>
      <trkpt lat="44.75881" lon="-0.38947">
        <ele>59</ele>
        <time>2013-07-07T15:28:39Z</time>
      </trkpt>
      <trkpt lat="44.75882" lon="-0.38962">
        <ele>60</ele>
        <time>2013-07-07T15:28:48Z</time>
      </trkpt>
      <trkpt lat="44.75887" lon="-0.3898">
        <ele>60</ele>
        <time>2013-07-07T15:28:56Z</time>
      </trkpt>
      <trkpt lat="44.75889" lon="-0.38983">
        <ele>60</ele>
        <time>2013-07-07T15:28:58Z</time>
      </trkpt>
      <trkpt lat="44.7589" lon="-0.38992">
        <ele>61</ele>
        <time>2013-07-07T15:29:02Z</time>
      </trkpt>
      <trkpt lat="44.75894" lon="-0.38997">
        <ele>61</ele>
        <time>2013-07-07T15:29:07Z</time>
      </trkpt>
      <trkpt lat="44.75906" lon="-0.38997">
        <ele>59</ele>
        <time>2013-07-07T15:29:14Z</time>
      </trkpt>
      <trkpt lat="44.75907" lon="-0.38999">
        <ele>59</ele>
        <time>2013-07-07T15:29:18Z</time>
      </trkpt>
      <trkpt lat="44.75913" lon="-0.39004">
        <ele>58</ele>
        <time>2013-07-07T15:29:24Z</time>
      </trkpt>
      <trkpt lat="44.75925" lon="-0.39002">
        <ele>58</ele>
        <time>2013-07-07T15:29:31Z</time>
      </trkpt>
      <trkpt lat="44.7593" lon="-0.38998">
        <ele>57</ele>
        <time>2013-07-07T15:29:35Z</time>
      </trkpt>
      <trkpt lat="44.75935" lon="-0.39">
        <ele>57</ele>
        <time>2013-07-07T15:29:37Z</time>
      </trkpt>
      <trkpt lat="44.7594" lon="-0.38988">
        <ele>57</ele>
        <time>2013-07-07T15:29:40Z</time>
      </trkpt>
      <trkpt lat="44.7595" lon="-0.38975">
        <ele>58</ele>
        <time>2013-07-07T15:29:46Z</time>
      </trkpt>
      <trkpt lat="44.7595" lon="-0.38974">
        <ele>58</ele>
        <time>2013-07-07T15:29:47Z</time>
      </trkpt>
      <trkpt lat="44.7595" lon="-0.38959">
        <ele>58</ele>
        <time>2013-07-07T15:29:54Z</time>
      </trkpt>
      <trkpt lat="44.75949" lon="-0.38954">
        <ele>58</ele>
        <time>2013-07-07T15:29:58Z</time>
      </trkpt>
      <trkpt lat="44.75932" lon="-0.38931">
        <ele>55</ele>
        <time>2013-07-07T15:30:05Z</time>
      </trkpt>
      <trkpt lat="44.75924" lon="-0.38914">
        <ele>53</ele>
        <time>2013-07-07T15:30:09Z</time>
      </trkpt>
      <trkpt lat="44.75917" lon="-0.38912">
        <ele>52</ele>
        <time>2013-07-07T15:30:13Z</time>
      </trkpt>
      <trkpt lat="44.75914" lon="-0.38912">
        <ele>52</ele>
        <time>2013-07-07T15:30:14Z</time>
      </trkpt>
      <trkpt lat="44.75912" lon="-0.38905">
        <ele>52</ele>
        <time>2013-07-07T15:30:17Z</time>
      </trkpt>
      <trkpt lat="44.75913" lon="-0.389">
        <ele>52</ele>
        <time>2013-07-07T15:30:20Z</time>
      </trkpt>
      <trkpt lat="44.75915" lon="-0.38895">
        <ele>51</ele>
        <time>2013-07-07T15:30:23Z</time>
      </trkpt>
      <trkpt lat="44.75919" lon="-0.38878">
        <ele>50</ele>
        <time>2013-07-07T15:30:30Z</time>
      </trkpt>
      <trkpt lat="44.75919" lon="-0.38866">
        <ele>50</ele>
        <time>2013-07-07T15:30:35Z</time>
      </trkpt>
      <trkpt lat="44.75915" lon="-0.38857">
        <ele>50</ele>
        <time>2013-07-07T15:30:47Z</time>
      </trkpt>
      <trkpt lat="44.75917" lon="-0.38853">
        <ele>50</ele>
        <time>2013-07-07T15:30:55Z</time>
      </trkpt>
      <trkpt lat="44.75922" lon="-0.3885">
        <ele>50</ele>
        <time>2013-07-07T15:31:02Z</time>
      </trkpt>
      <trkpt lat="44.7593" lon="-0.3884">
        <ele>51</ele>
        <time>2013-07-07T15:31:09Z</time>
      </trkpt>
      <trkpt lat="44.75935" lon="-0.38832">
        <ele>51</ele>
        <time>2013-07-07T15:31:16Z</time>
      </trkpt>
      <trkpt lat="44.75939" lon="-0.38829">
        <ele>51</ele>
        <time>2013-07-07T15:31:23Z</time>
      </trkpt>
      <trkpt lat="44.75943" lon="-0.38818">
        <ele>51</ele>
        <time>2013-07-07T15:31:30Z</time>
      </trkpt>
      <trkpt lat="44.75941" lon="-0.38803">
        <ele>52</ele>
        <time>2013-07-07T15:31:36Z</time>
      </trkpt>
      <trkpt lat="44.75941" lon="-0.38787">
        <ele>54</ele>
        <time>2013-07-07T15:31:42Z</time>
      </trkpt>
      <trkpt lat="44.7594" lon="-0.3877">
        <ele>56</ele>
        <time>2013-07-07T15:31:48Z</time>
      </trkpt>
      <trkpt lat="44.75939" lon="-0.38755">
        <ele>58</ele>
        <time>2013-07-07T15:31:56Z</time>
      </trkpt>
      <trkpt lat="44.75938" lon="-0.38746">
        <ele>59</ele>
        <time>2013-07-07T15:32:01Z</time>
      </trkpt>
      <trkpt lat="44.75937" lon="-0.38741">
        <ele>60</ele>
        <time>2013-07-07T15:32:03Z</time>
      </trkpt>
      <trkpt lat="44.75937" lon="-0.38723">
        <ele>63</ele>
        <time>2013-07-07T15:32:12Z</time>
      </trkpt>
      <trkpt lat="44.75936" lon="-0.38716">
        <ele>63</ele>
        <time>2013-07-07T15:32:16Z</time>
      </trkpt>
      <trkpt lat="44.75936" lon="-0.38707">
        <ele>65</ele>
        <time>2013-07-07T15:32:24Z</time>
      </trkpt>
      <trkpt lat="44.75935" lon="-0.38706">
        <ele>65</ele>
        <time>2013-07-07T15:32:30Z</time>
      </trkpt>
      <trkpt lat="44.75936" lon="-0.38703">
        <ele>65</ele>
        <time>2013-07-07T15:32:36Z</time>
      </trkpt>
      <trkpt lat="44.75936" lon="-0.38701">
        <ele>65</ele>
        <time>2013-07-07T15:32:44Z</time>
      </trkpt>
      <trkpt lat="44.75935" lon="-0.38693">
        <ele>66</ele>
        <time>2013-07-07T15:32:50Z</time>
      </trkpt>
      <trkpt lat="44.75935" lon="-0.38691">
        <ele>67</ele>
        <time>2013-07-07T15:32:51Z</time>
      </trkpt>
      <trkpt lat="44.75935" lon="-0.38677">
        <ele>68</ele>
        <time>2013-07-07T15:32:58Z</time>
      </trkpt>
      <trkpt lat="44.75935" lon="-0.38665">
        <ele>69</ele>
        <time>2013-07-07T15:33:04Z</time>
      </trkpt>
      <trkpt lat="44.75936" lon="-0.3865">
        <ele>70</ele>
        <time>2013-07-07T15:33:12Z</time>
      </trkpt>
      <trkpt lat="44.75936" lon="-0.38641">
        <ele>71</ele>
        <time>2013-07-07T15:33:18Z</time>
      </trkpt>
      <trkpt lat="44.75938" lon="-0.3863">
        <ele>72</ele>
        <time>2013-07-07T15:33:25Z</time>
      </trkpt>
      <trkpt lat="44.75939" lon="-0.38622">
        <ele>73</ele>
        <time>2013-07-07T15:33:31Z</time>
      </trkpt>
      <trkpt lat="44.75939" lon="-0.38621">
        <ele>73</ele>
        <time>2013-07-07T15:33:32Z</time>
      </trkpt>
      <trkpt lat="44.75938" lon="-0.38617">
        <ele>73</ele>
        <time>2013-07-07T15:33:35Z</time>
      </trkpt>
      <trkpt lat="44.7594" lon="-0.38611">
        <ele>74</ele>
        <time>2013-07-07T15:33:40Z</time>
      </trkpt>
      <trkpt lat="44.75938" lon="-0.38598">
        <ele>75</ele>
        <time>2013-07-07T15:33:48Z</time>
      </trkpt>
      <trkpt lat="44.75936" lon="-0.38589">
        <ele>76</ele>
        <time>2013-07-07T15:33:54Z</time>
      </trkpt>
      <trkpt lat="44.75936" lon="-0.38587">
        <ele>77</ele>
        <time>2013-07-07T15:33:55Z</time>
      </trkpt>
      <trkpt lat="44.75934" lon="-0.38571">
        <ele>78</ele>
        <time>2013-07-07T15:34:04Z</time>
      </trkpt>
      <trkpt lat="44.75936" lon="-0.38561">
        <ele>79</ele>
        <time>2013-07-07T15:34:11Z</time>
      </trkpt>
      <trkpt lat="44.75937" lon="-0.38557">
        <ele>80</ele>
        <time>2013-07-07T15:34:17Z</time>
      </trkpt>
      <trkpt lat="44.75938" lon="-0.38555">
        <ele>80</ele>
        <time>2013-07-07T15:34:22Z</time>
      </trkpt>
      <trkpt lat="44.75937" lon="-0.38557">
        <ele>80</ele>
        <time>2013-07-07T15:34:30Z</time>
      </trkpt>
      <trkpt lat="44.75936" lon="-0.38558">
        <ele>79</ele>
        <time>2013-07-07T15:34:39Z</time>
      </trkpt>
      <trkpt lat="44.75935" lon="-0.38558">
        <ele>79</ele>
        <time>2013-07-07T15:34:47Z</time>
      </trkpt>
      <trkpt lat="44.75935" lon="-0.38558">
        <ele>79</ele>
        <time>2013-07-07T15:34:58Z</time>
      </trkpt>
      <trkpt lat="44.75935" lon="-0.38558">
        <ele>79</ele>
        <time>2013-07-07T15:35:09Z</time>
      </trkpt>
      <trkpt lat="44.75934" lon="-0.38558">
        <ele>79</ele>
        <time>2013-07-07T15:35:20Z</time>
      </trkpt>
      <trkpt lat="44.75935" lon="-0.38557">
        <ele>80</ele>
        <time>2013-07-07T15:35:26Z</time>
      </trkpt>
      <trkpt lat="44.75935" lon="-0.38557">
        <ele>80</ele>
        <time>2013-07-07T15:35:31Z</time>
      </trkpt>
      <trkpt lat="44.75935" lon="-0.38556">
        <ele>80</ele>
        <time>2013-07-07T15:35:44Z</time>
      </trkpt>
      <trkpt lat="44.75935" lon="-0.38555">
        <ele>80</ele>
        <time>2013-07-07T15:35:54Z</time>
      </trkpt>
      <trkpt lat="44.75935" lon="-0.38553">
        <ele>80</ele>
        <time>2013-07-07T15:36:04Z</time>
      </trkpt>
      <trkpt lat="44.75934" lon="-0.38552">
        <ele>80</ele>
        <time>2013-07-07T15:36:14Z</time>
      </trkpt>
      <trkpt lat="44.75934" lon="-0.38552">
        <ele>80</ele>
        <time>2013-07-07T15:36:27Z</time>
      </trkpt>
      <trkpt lat="44.75934" lon="-0.38551">
        <ele>80</ele>
        <time>2013-07-07T15:36:41Z</time>
      </trkpt>
      <trkpt lat="44.75934" lon="-0.38551">
        <ele>80</ele>
        <time>2013-07-07T15:36:47Z</time>
      </trkpt>
      <trkpt lat="44.75934" lon="-0.3855">
        <ele>80</ele>
        <time>2013-07-07T15:36:59Z</time>
      </trkpt>
      <trkpt lat="44.75934" lon="-0.3855">
        <ele>80</ele>
        <time>2013-07-07T15:37:10Z</time>
      </trkpt>
      <trkpt lat="44.75934" lon="-0.3855">
        <ele>80</ele>
        <time>2013-07-07T15:37:22Z</time>
      </trkpt>
      <trkpt lat="44.75934" lon="-0.3855">
        <ele>80</ele>
        <time>2013-07-07T15:37:36Z</time>
      </trkpt>
      <trkpt lat="44.75934" lon="-0.3855">
        <ele>80</ele>
        <time>2013-07-07T15:37:48Z</time>
      </trkpt>
      <trkpt lat="44.75934" lon="-0.3855">
        <ele>80</ele>
        <time>2013-07-07T15:38:04Z</time>
      </trkpt>
      <trkpt lat="44.75934" lon="-0.38549">
        <ele>80</ele>
        <time>2013-07-07T15:38:23Z</time>
      </trkpt>
      <trkpt lat="44.75933" lon="-0.38549">
        <ele>80</ele>
        <time>2013-07-07T15:38:41Z</time>
      </trkpt>
      <trkpt lat="44.75933" lon="-0.38549">
        <ele>80</ele>
        <time>2013-07-07T15:38:53Z</time>
      </trkpt>
      <trkpt lat="44.75933" lon="-0.38549">
        <ele>80</ele>
        <time>2013-07-07T15:39:09Z</time>
      </trkpt>
      <trkpt lat="44.75934" lon="-0.38549">
        <ele>80</ele>
        <time>2013-07-07T15:39:26Z</time>
      </trkpt>
      <trkpt lat="44.75934" lon="-0.38549">
        <ele>80</ele>
        <time>2013-07-07T15:39:37Z</time>
      </trkpt>
      <trkpt lat="44.75934" lon="-0.38549">
        <ele>80</ele>
        <time>2013-07-07T15:39:47Z</time>
      </trkpt>
      <trkpt lat="44.75933" lon="-0.38549">
        <ele>80</ele>
        <time>2013-07-07T15:40:01Z</time>
      </trkpt>
      <trkpt lat="44.75933" lon="-0.3855">
        <ele>80</ele>
        <time>2013-07-07T15:40:17Z</time>
      </trkpt>
      <trkpt lat="44.75934" lon="-0.38549">
        <ele>80</ele>
        <time>2013-07-07T15:40:25Z</time>
      </trkpt>
      <trkpt lat="44.75934" lon="-0.38549">
        <ele>80</ele>
        <time>2013-07-07T15:40:39Z</time>
      </trkpt>
      <trkpt lat="44.75934" lon="-0.38549">
        <ele>80</ele>
        <time>2013-07-07T15:40:56Z</time>
      </trkpt>
      <trkpt lat="44.75934" lon="-0.38549">
        <ele>80</ele>
        <time>2013-07-07T15:41:09Z</time>
      </trkpt>
      <trkpt lat="44.75934" lon="-0.38549">
        <ele>80</ele>
        <time>2013-07-07T15:41:26Z</time>
      </trkpt>
      <trkpt lat="44.75934" lon="-0.38549">
        <ele>80</ele>
        <time>2013-07-07T15:41:36Z</time>
      </trkpt>
      <trkpt lat="44.75934" lon="-0.3855">
        <ele>80</ele>
        <time>2013-07-07T15:41:53Z</time>
      </trkpt>
      <trkpt lat="44.75933" lon="-0.3855">
        <ele>80</ele>
        <time>2013-07-07T15:42:03Z</time>
      </trkpt>
      <trkpt lat="44.75934" lon="-0.3855">
        <ele>80</ele>
        <time>2013-07-07T15:42:14Z</time>
      </trkpt>
      <trkpt lat="44.75933" lon="-0.3855">
        <ele>80</ele>
        <time>2013-07-07T15:42:25Z</time>
      </trkpt>
      <trkpt lat="44.75934" lon="-0.3855">
        <ele>80</ele>
        <time>2013-07-07T15:42:33Z</time>
      </trkpt>
      <trkpt lat="44.75934" lon="-0.38549">
        <ele>80</ele>
        <time>2013-07-07T15:42:47Z</time>
      </trkpt>
      <trkpt lat="44.75935" lon="-0.38549">
        <ele>80</ele>
        <time>2013-07-07T15:43:02Z</time>
      </trkpt>
      <trkpt lat="44.75935" lon="-0.38548">
        <ele>80</ele>
        <time>2013-07-07T15:43:18Z</time>
      </trkpt>
      <trkpt lat="44.75935" lon="-0.38548">
        <ele>80</ele>
        <time>2013-07-07T15:43:32Z</time>
      </trkpt>
      <trkpt lat="44.75935" lon="-0.38548">
        <ele>80</ele>
        <time>2013-07-07T15:43:49Z</time>
      </trkpt>
      <trkpt lat="44.75935" lon="-0.38547">
        <ele>80</ele>
        <time>2013-07-07T15:44:05Z</time>
      </trkpt>
      <trkpt lat="44.75935" lon="-0.38548">
        <ele>80</ele>
        <time>2013-07-07T15:44:18Z</time>
      </trkpt>
      <trkpt lat="44.75935" lon="-0.38548">
        <ele>80</ele>
        <time>2013-07-07T15:44:34Z</time>
      </trkpt>
      <trkpt lat="44.75934" lon="-0.38548">
        <ele>80</ele>
        <time>2013-07-07T15:44:45Z</time>
      </trkpt>
      <trkpt lat="44.75934" lon="-0.38548">
        <ele>80</ele>
        <time>2013-07-07T15:45:04Z</time>
      </trkpt>
      <trkpt lat="44.75934" lon="-0.38547">
        <ele>80</ele>
        <time>2013-07-07T15:45:16Z</time>
      </trkpt>
      <trkpt lat="44.75934" lon="-0.38547">
        <ele>80</ele>
        <time>2013-07-07T15:45:28Z</time>
      </trkpt>
      <trkpt lat="44.75934" lon="-0.38547">
        <ele>80</ele>
        <time>2013-07-07T15:45:48Z</time>
      </trkpt>
      <trkpt lat="44.75934" lon="-0.38548">
        <ele>80</ele>
        <time>2013-07-07T15:46:06Z</time>
      </trkpt>
      <trkpt lat="44.75934" lon="-0.38548">
        <ele>80</ele>
        <time>2013-07-07T15:46:22Z</time>
      </trkpt>
      <trkpt lat="44.75933" lon="-0.38549">
        <ele>80</ele>
        <time>2013-07-07T15:46:34Z</time>
      </trkpt>
      <trkpt lat="44.75933" lon="-0.3855">
        <ele>80</ele>
        <time>2013-07-07T15:46:54Z</time>
      </trkpt>
      <trkpt lat="44.75933" lon="-0.3855">
        <ele>80</ele>
        <time>2013-07-07T15:47:11Z</time>
      </trkpt>
      <trkpt lat="44.75933" lon="-0.3855">
        <ele>80</ele>
        <time>2013-07-07T15:47:30Z</time>
      </trkpt>
      <trkpt lat="44.75933" lon="-0.3855">
        <ele>80</ele>
        <time>2013-07-07T15:47:49Z</time>
      </trkpt>
      <trkpt lat="44.75933" lon="-0.3855">
        <ele>80</ele>
        <time>2013-07-07T15:48:06Z</time>
      </trkpt>
      <trkpt lat="44.75934" lon="-0.3855">
        <ele>80</ele>
        <time>2013-07-07T15:48:24Z</time>
      </trkpt>
      <trkpt lat="44.75934" lon="-0.3855">
        <ele>80</ele>
        <time>2013-07-07T15:48:42Z</time>
      </trkpt>
      <trkpt lat="44.75934" lon="-0.3855">
        <ele>80</ele>
        <time>2013-07-07T15:49:02Z</time>
      </trkpt>
      <trkpt lat="44.75934" lon="-0.3855">
        <ele>80</ele>
        <time>2013-07-07T15:49:21Z</time>
      </trkpt>
      <trkpt lat="44.75934" lon="-0.3855">
        <ele>80</ele>
        <time>2013-07-07T15:49:36Z</time>
      </trkpt>
      <trkpt lat="44.75934" lon="-0.3855">
        <ele>80</ele>
        <time>2013-07-07T15:49:52Z</time>
      </trkpt>
      <trkpt lat="44.75934" lon="-0.3855">
        <ele>80</ele>
        <time>2013-07-07T15:50:06Z</time>
      </trkpt>
      <trkpt lat="44.75934" lon="-0.3855">
        <ele>80</ele>
        <time>2013-07-07T15:50:16Z</time>
      </trkpt>
      <trkpt lat="44.75934" lon="-0.38549">
        <ele>80</ele>
        <time>2013-07-07T15:50:28Z</time>
      </trkpt>
      <trkpt lat="44.75932" lon="-0.3854">
        <ele>80</ele>
        <time>2013-07-07T15:50:34Z</time>
      </trkpt>
      <trkpt lat="44.75931" lon="-0.38519">
        <ele>81</ele>
        <time>2013-07-07T15:50:42Z</time>
      </trkpt>
      <trkpt lat="44.75931" lon="-0.38501">
        <ele>82</ele>
        <time>2013-07-07T15:50:49Z</time>
      </trkpt>
      <trkpt lat="44.7593" lon="-0.38467">
        <ele>82</ele>
        <time>2013-07-07T15:50:56Z</time>
      </trkpt>
      <trkpt lat="44.7593" lon="-0.38432">
        <ele>82</ele>
        <time>2013-07-07T15:51:03Z</time>
      </trkpt>
      <trkpt lat="44.7593" lon="-0.38395">
        <ele>80</ele>
        <time>2013-07-07T15:51:09Z</time>
      </trkpt>
      <trkpt lat="44.75929" lon="-0.38382">
        <ele>79</ele>
        <time>2013-07-07T15:51:11Z</time>
      </trkpt>
      <trkpt lat="44.75923" lon="-0.38338">
        <ele>78</ele>
        <time>2013-07-07T15:51:18Z</time>
      </trkpt>
      <trkpt lat="44.75921" lon="-0.38332">
        <ele>78</ele>
        <time>2013-07-07T15:51:19Z</time>
      </trkpt>
      <trkpt lat="44.75909" lon="-0.38309">
        <ele>77</ele>
        <time>2013-07-07T15:51:25Z</time>
      </trkpt>
      <trkpt lat="44.75893" lon="-0.38299">
        <ele>76</ele>
        <time>2013-07-07T15:51:30Z</time>
      </trkpt>
      <trkpt lat="44.75872" lon="-0.38286">
        <ele>76</ele>
        <time>2013-07-07T15:51:36Z</time>
      </trkpt>
      <trkpt lat="44.75851" lon="-0.38273">
        <ele>76</ele>
        <time>2013-07-07T15:51:42Z</time>
      </trkpt>
      <trkpt lat="44.75831" lon="-0.38259">
        <ele>75</ele>
        <time>2013-07-07T15:51:48Z</time>
      </trkpt>
      <trkpt lat="44.75829" lon="-0.38258">
        <ele>75</ele>
        <time>2013-07-07T15:51:49Z</time>
      </trkpt>
      <trkpt lat="44.75826" lon="-0.38256">
        <ele>75</ele>
        <time>2013-07-07T15:51:50Z</time>
      </trkpt>
      <trkpt lat="44.75824" lon="-0.38254">
        <ele>75</ele>
        <time>2013-07-07T15:51:51Z</time>
      </trkpt>
      <trkpt lat="44.75821" lon="-0.38252">
        <ele>75</ele>
        <time>2013-07-07T15:51:52Z</time>
      </trkpt>
      <trkpt lat="44.75819" lon="-0.38251">
        <ele>74</ele>
        <time>2013-07-07T15:51:53Z</time>
      </trkpt>
      <trkpt lat="44.75816" lon="-0.38248">
        <ele>74</ele>
        <time>2013-07-07T15:51:54Z</time>
      </trkpt>
      <trkpt lat="44.75813" lon="-0.38246">
        <ele>74</ele>
        <time>2013-07-07T15:51:55Z</time>
      </trkpt>
      <trkpt lat="44.75811" lon="-0.38244">
        <ele>74</ele>
        <time>2013-07-07T15:51:56Z</time>
      </trkpt>
      <trkpt lat="44.75795" lon="-0.3823">
        <ele>73</ele>
        <time>2013-07-07T15:52:02Z</time>
      </trkpt>
      <trkpt lat="44.75777" lon="-0.38215">
        <ele>72</ele>
        <time>2013-07-07T15:52:08Z</time>
      </trkpt>
      <trkpt lat="44.75759" lon="-0.38204">
        <ele>72</ele>
        <time>2013-07-07T15:52:14Z</time>
      </trkpt>
      <trkpt lat="44.75742" lon="-0.38201">
        <ele>72</ele>
        <time>2013-07-07T15:52:20Z</time>
      </trkpt>
      <trkpt lat="44.75733" lon="-0.38202">
        <ele>73</ele>
        <time>2013-07-07T15:52:24Z</time>
      </trkpt>
      <trkpt lat="44.75717" lon="-0.38211">
        <ele>73</ele>
        <time>2013-07-07T15:52:31Z</time>
      </trkpt>
      <trkpt lat="44.75711" lon="-0.38213">
        <ele>73</ele>
        <time>2013-07-07T15:52:33Z</time>
      </trkpt>
      <trkpt lat="44.75708" lon="-0.38215">
        <ele>73</ele>
        <time>2013-07-07T15:52:34Z</time>
      </trkpt>
      <trkpt lat="44.75705" lon="-0.38217">
        <ele>72</ele>
        <time>2013-07-07T15:52:35Z</time>
      </trkpt>
      <trkpt lat="44.75703" lon="-0.38218">
        <ele>72</ele>
        <time>2013-07-07T15:52:36Z</time>
      </trkpt>
      <trkpt lat="44.75702" lon="-0.3822">
        <ele>72</ele>
        <time>2013-07-07T15:52:37Z</time>
      </trkpt>
      <trkpt lat="44.75699" lon="-0.38222">
        <ele>72</ele>
        <time>2013-07-07T15:52:38Z</time>
      </trkpt>
      <trkpt lat="44.75697" lon="-0.38222">
        <ele>72</ele>
        <time>2013-07-07T15:52:39Z</time>
      </trkpt>
      <trkpt lat="44.75681" lon="-0.38231">
        <ele>72</ele>
        <time>2013-07-07T15:52:45Z</time>
      </trkpt>
      <trkpt lat="44.75675" lon="-0.38233">
        <ele>72</ele>
        <time>2013-07-07T15:52:48Z</time>
      </trkpt>
      <trkpt lat="44.75664" lon="-0.38236">
        <ele>72</ele>
        <time>2013-07-07T15:52:55Z</time>
      </trkpt>
      <trkpt lat="44.75663" lon="-0.38239">
        <ele>72</ele>
        <time>2013-07-07T15:53:03Z</time>
      </trkpt>
      <trkpt lat="44.75658" lon="-0.38239">
        <ele>72</ele>
        <time>2013-07-07T15:53:10Z</time>
      </trkpt>
      <trkpt lat="44.75657" lon="-0.38239">
        <ele>72</ele>
        <time>2013-07-07T15:53:11Z</time>
      </trkpt>
      <trkpt lat="44.75655" lon="-0.38238">
        <ele>73</ele>
        <time>2013-07-07T15:53:12Z</time>
      </trkpt>
      <trkpt lat="44.75652" lon="-0.38237">
        <ele>73</ele>
        <time>2013-07-07T15:53:13Z</time>
      </trkpt>
      <trkpt lat="44.7565" lon="-0.38235">
        <ele>73</ele>
        <time>2013-07-07T15:53:14Z</time>
      </trkpt>
      <trkpt lat="44.75648" lon="-0.38233">
        <ele>73</ele>
        <time>2013-07-07T15:53:15Z</time>
      </trkpt>
      <trkpt lat="44.75647" lon="-0.38231">
        <ele>73</ele>
        <time>2013-07-07T15:53:16Z</time>
      </trkpt>
      <trkpt lat="44.75645" lon="-0.38229">
        <ele>73</ele>
        <time>2013-07-07T15:53:17Z</time>
      </trkpt>
      <trkpt lat="44.75643" lon="-0.38227">
        <ele>73</ele>
        <time>2013-07-07T15:53:18Z</time>
      </trkpt>
      <trkpt lat="44.75642" lon="-0.38226">
        <ele>74</ele>
        <time>2013-07-07T15:53:19Z</time>
      </trkpt>
      <trkpt lat="44.7564" lon="-0.38225">
        <ele>74</ele>
        <time>2013-07-07T15:53:20Z</time>
      </trkpt>
      <trkpt lat="44.75639" lon="-0.38223">
        <ele>74</ele>
        <time>2013-07-07T15:53:21Z</time>
      </trkpt>
      <trkpt lat="44.75637" lon="-0.38221">
        <ele>74</ele>
        <time>2013-07-07T15:53:22Z</time>
      </trkpt>
      <trkpt lat="44.75635" lon="-0.3822">
        <ele>74</ele>
        <time>2013-07-07T15:53:23Z</time>
      </trkpt>
      <trkpt lat="44.75632" lon="-0.38218">
        <ele>74</ele>
        <time>2013-07-07T15:53:25Z</time>
      </trkpt>
      <trkpt lat="44.7563" lon="-0.38217">
        <ele>75</ele>
        <time>2013-07-07T15:53:26Z</time>
      </trkpt>
      <trkpt lat="44.75621" lon="-0.38212">
        <ele>75</ele>
        <time>2013-07-07T15:53:33Z</time>
      </trkpt>
      <trkpt lat="44.75613" lon="-0.38203">
        <ele>76</ele>
        <time>2013-07-07T15:53:40Z</time>
      </trkpt>
      <trkpt lat="44.75604" lon="-0.38193">
        <ele>77</ele>
        <time>2013-07-07T15:53:46Z</time>
      </trkpt>
      <trkpt lat="44.75598" lon="-0.38184">
        <ele>77</ele>
        <time>2013-07-07T15:53:52Z</time>
      </trkpt>
      <trkpt lat="44.75587" lon="-0.38164">
        <ele>78</ele>
        <time>2013-07-07T15:53:59Z</time>
      </trkpt>
      <trkpt lat="44.75578" lon="-0.38144">
        <ele>80</ele>
        <time>2013-07-07T15:54:07Z</time>
      </trkpt>
      <trkpt lat="44.75569" lon="-0.38116">
        <ele>82</ele>
        <time>2013-07-07T15:54:16Z</time>
      </trkpt>
      <trkpt lat="44.75564" lon="-0.38094">
        <ele>83</ele>
        <time>2013-07-07T15:54:24Z</time>
      </trkpt>
      <trkpt lat="44.75554" lon="-0.38071">
        <ele>85</ele>
        <time>2013-07-07T15:54:32Z</time>
      </trkpt>
      <trkpt lat="44.75552" lon="-0.38064">
        <ele>85</ele>
        <time>2013-07-07T15:54:35Z</time>
      </trkpt>
      <trkpt lat="44.75551" lon="-0.38061">
        <ele>85</ele>
        <time>2013-07-07T15:54:36Z</time>
      </trkpt>
      <trkpt lat="44.75549" lon="-0.38059">
        <ele>85</ele>
        <time>2013-07-07T15:54:37Z</time>
      </trkpt>
      <trkpt lat="44.75547" lon="-0.38058">
        <ele>85</ele>
        <time>2013-07-07T15:54:38Z</time>
      </trkpt>
      <trkpt lat="44.75545" lon="-0.38056">
        <ele>85</ele>
        <time>2013-07-07T15:54:39Z</time>
      </trkpt>
      <trkpt lat="44.75543" lon="-0.38055">
        <ele>85</ele>
        <time>2013-07-07T15:54:40Z</time>
      </trkpt>
      <trkpt lat="44.7554" lon="-0.38054">
        <ele>85</ele>
        <time>2013-07-07T15:54:41Z</time>
      </trkpt>
      <trkpt lat="44.75539" lon="-0.38054">
        <ele>86</ele>
        <time>2013-07-07T15:54:42Z</time>
      </trkpt>
      <trkpt lat="44.75538" lon="-0.38054">
        <ele>86</ele>
        <time>2013-07-07T15:54:43Z</time>
      </trkpt>
      <trkpt lat="44.75537" lon="-0.38055">
        <ele>86</ele>
        <time>2013-07-07T15:54:44Z</time>
      </trkpt>
      <trkpt lat="44.75536" lon="-0.38056">
        <ele>85</ele>
        <time>2013-07-07T15:54:45Z</time>
      </trkpt>
      <trkpt lat="44.75526" lon="-0.38069">
        <ele>86</ele>
        <time>2013-07-07T15:54:54Z</time>
      </trkpt>
      <trkpt lat="44.75515" lon="-0.38085">
        <ele>86</ele>
        <time>2013-07-07T15:55:05Z</time>
      </trkpt>
      <trkpt lat="44.75504" lon="-0.38098">
        <ele>86</ele>
        <time>2013-07-07T15:55:14Z</time>
      </trkpt>
      <trkpt lat="44.75489" lon="-0.38114">
        <ele>87</ele>
        <time>2013-07-07T15:55:24Z</time>
      </trkpt>
      <trkpt lat="44.75476" lon="-0.38128">
        <ele>88</ele>
        <time>2013-07-07T15:55:32Z</time>
      </trkpt>
      <trkpt lat="44.75459" lon="-0.38146">
        <ele>88</ele>
        <time>2013-07-07T15:55:42Z</time>
      </trkpt>
      <trkpt lat="44.75456" lon="-0.38151">
        <ele>88</ele>
        <time>2013-07-07T15:55:48Z</time>
      </trkpt>
      <trkpt lat="44.75456" lon="-0.3815">
        <ele>88</ele>
        <time>2013-07-07T15:55:56Z</time>
      </trkpt>
      <trkpt lat="44.75455" lon="-0.38147">
        <ele>88</ele>
        <time>2013-07-07T15:55:58Z</time>
      </trkpt>
      <trkpt lat="44.75456" lon="-0.38146">
        <ele>88</ele>
        <time>2013-07-07T15:55:59Z</time>
      </trkpt>
      <trkpt lat="44.75467" lon="-0.38135">
        <ele>88</ele>
        <time>2013-07-07T15:56:06Z</time>
      </trkpt>
      <trkpt lat="44.75485" lon="-0.38113">
        <ele>87</ele>
        <time>2013-07-07T15:56:14Z</time>
      </trkpt>
      <trkpt lat="44.75514" lon="-0.38078">
        <ele>86</ele>
        <time>2013-07-07T15:56:24Z</time>
      </trkpt>
      <trkpt lat="44.75527" lon="-0.38066">
        <ele>86</ele>
        <time>2013-07-07T15:56:30Z</time>
      </trkpt>
      <trkpt lat="44.75532" lon="-0.3806">
        <ele>86</ele>
        <time>2013-07-07T15:56:36Z</time>
      </trkpt>
      <trkpt lat="44.75531" lon="-0.3806">
        <ele>86</ele>
        <time>2013-07-07T15:56:44Z</time>
      </trkpt>
      <trkpt lat="44.75532" lon="-0.38059">
        <ele>86</ele>
        <time>2013-07-07T15:57:01Z</time>
      </trkpt>
      <trkpt lat="44.75532" lon="-0.3806">
        <ele>86</ele>
        <time>2013-07-07T15:57:07Z</time>
      </trkpt>
      <trkpt lat="44.75532" lon="-0.3806">
        <ele>86</ele>
        <time>2013-07-07T15:57:17Z</time>
      </trkpt>
      <trkpt lat="44.75531" lon="-0.3806">
        <ele>86</ele>
        <time>2013-07-07T15:57:26Z</time>
      </trkpt>
      <trkpt lat="44.7553" lon="-0.3806">
        <ele>86</ele>
        <time>2013-07-07T15:57:39Z</time>
      </trkpt>
      <trkpt lat="44.7553" lon="-0.38063">
        <ele>86</ele>
        <time>2013-07-07T15:57:43Z</time>
      </trkpt>
      <trkpt lat="44.7553" lon="-0.38065">
        <ele>85</ele>
        <time>2013-07-07T15:57:51Z</time>
      </trkpt>
      <trkpt lat="44.7553" lon="-0.38066">
        <ele>85</ele>
        <time>2013-07-07T15:58:05Z</time>
      </trkpt>
      <trkpt lat="44.7553" lon="-0.38066">
        <ele>85</ele>
        <time>2013-07-07T15:58:17Z</time>
      </trkpt>
      <trkpt lat="44.75529" lon="-0.38067">
        <ele>85</ele>
        <time>2013-07-07T15:58:27Z</time>
      </trkpt>
      <trkpt lat="44.75529" lon="-0.38066">
        <ele>85</ele>
        <time>2013-07-07T15:58:48Z</time>
      </trkpt>
      <trkpt lat="44.75529" lon="-0.38066">
        <ele>85</ele>
        <time>2013-07-07T15:59:08Z</time>
      </trkpt>
      <trkpt lat="44.75529" lon="-0.38066">
        <ele>85</ele>
        <time>2013-07-07T15:59:24Z</time>
      </trkpt>
      <trkpt lat="44.75528" lon="-0.38067">
        <ele>86</ele>
        <time>2013-07-07T15:59:35Z</time>
      </trkpt>
      <trkpt lat="44.75528" lon="-0.38067">
        <ele>85</ele>
        <time>2013-07-07T15:59:44Z</time>
      </trkpt>
      <trkpt lat="44.75528" lon="-0.38068">
        <ele>85</ele>
        <time>2013-07-07T15:59:56Z</time>
      </trkpt>
      <trkpt lat="44.75527" lon="-0.38069">
        <ele>86</ele>
        <time>2013-07-07T16:00:03Z</time>
      </trkpt>
      <trkpt lat="44.75525" lon="-0.38072">
        <ele>86</ele>
        <time>2013-07-07T16:00:06Z</time>
      </trkpt>
      <trkpt lat="44.75524" lon="-0.38073">
        <ele>86</ele>
        <time>2013-07-07T16:00:07Z</time>
      </trkpt>
      <trkpt lat="44.75523" lon="-0.38074">
        <ele>86</ele>
        <time>2013-07-07T16:00:08Z</time>
      </trkpt>
      <trkpt lat="44.75522" lon="-0.38076">
        <ele>86</ele>
        <time>2013-07-07T16:00:09Z</time>
      </trkpt>
      <trkpt lat="44.75521" lon="-0.38077">
        <ele>86</ele>
        <time>2013-07-07T16:00:10Z</time>
      </trkpt>
      <trkpt lat="44.75514" lon="-0.38083">
        <ele>86</ele>
        <time>2013-07-07T16:00:16Z</time>
      </trkpt>
      <trkpt lat="44.75511" lon="-0.38088">
        <ele>86</ele>
        <time>2013-07-07T16:00:20Z</time>
      </trkpt>
      <trkpt lat="44.7551" lon="-0.38089">
        <ele>86</ele>
        <time>2013-07-07T16:00:21Z</time>
      </trkpt>
      <trkpt lat="44.7551" lon="-0.38089">
        <ele>86</ele>
        <time>2013-07-07T16:00:22Z</time>
      </trkpt>
      <trkpt lat="44.75509" lon="-0.3809">
        <ele>86</ele>
        <time>2013-07-07T16:00:23Z</time>
      </trkpt>
      <trkpt lat="44.75507" lon="-0.38093">
        <ele>86</ele>
        <time>2013-07-07T16:00:26Z</time>
      </trkpt>
      <trkpt lat="44.75507" lon="-0.38093">
        <ele>86</ele>
        <time>2013-07-07T16:00:27Z</time>
      </trkpt>
      <trkpt lat="44.75502" lon="-0.38099">
        <ele>86</ele>
        <time>2013-07-07T16:00:33Z</time>
      </trkpt>
      <trkpt lat="44.75496" lon="-0.38106">
        <ele>86</ele>
        <time>2013-07-07T16:00:41Z</time>
      </trkpt>
      <trkpt lat="44.75497" lon="-0.38105">
        <ele>86</ele>
        <time>2013-07-07T16:00:53Z</time>
      </trkpt>
      <trkpt lat="44.75497" lon="-0.38105">
        <ele>86</ele>
        <time>2013-07-07T16:00:55Z</time>
      </trkpt>
      <trkpt lat="44.75496" lon="-0.38107">
        <ele>87</ele>
        <time>2013-07-07T16:00:56Z</time>
      </trkpt>
      <trkpt lat="44.75494" lon="-0.38108">
        <ele>87</ele>
        <time>2013-07-07T16:00:57Z</time>
      </trkpt>
      <trkpt lat="44.75493" lon="-0.3811">
        <ele>87</ele>
        <time>2013-07-07T16:00:58Z</time>
      </trkpt>
      <trkpt lat="44.7549" lon="-0.38113">
        <ele>87</ele>
        <time>2013-07-07T16:00:59Z</time>
      </trkpt>
      <trkpt lat="44.75488" lon="-0.38116">
        <ele>87</ele>
        <time>2013-07-07T16:01:00Z</time>
      </trkpt>
      <trkpt lat="44.75471" lon="-0.38135">
        <ele>88</ele>
        <time>2013-07-07T16:01:07Z</time>
      </trkpt>
      <trkpt lat="44.75454" lon="-0.38154">
        <ele>88</ele>
        <time>2013-07-07T16:01:14Z</time>
      </trkpt>
      <trkpt lat="44.75437" lon="-0.38171">
        <ele>89</ele>
        <time>2013-07-07T16:01:21Z</time>
      </trkpt>
      <trkpt lat="44.75419" lon="-0.38191">
        <ele>90</ele>
        <time>2013-07-07T16:01:27Z</time>
      </trkpt>
      <trkpt lat="44.75407" lon="-0.38201">
        <ele>90</ele>
        <time>2013-07-07T16:01:30Z</time>
      </trkpt>
      <trkpt lat="44.75399" lon="-0.38206">
        <ele>91</ele>
        <time>2013-07-07T16:01:32Z</time>
      </trkpt>
      <trkpt lat="44.75373" lon="-0.38224">
        <ele>91</ele>
        <time>2013-07-07T16:01:40Z</time>
      </trkpt>
      <trkpt lat="44.75354" lon="-0.38235">
        <ele>91</ele>
        <time>2013-07-07T16:01:47Z</time>
      </trkpt>
      <trkpt lat="44.75338" lon="-0.3824">
        <ele>91</ele>
        <time>2013-07-07T16:01:53Z</time>
      </trkpt>
      <trkpt lat="44.75329" lon="-0.38243">
        <ele>91</ele>
        <time>2013-07-07T16:01:57Z</time>
      </trkpt>
      <trkpt lat="44.75328" lon="-0.38241">
        <ele>91</ele>
        <time>2013-07-07T16:01:58Z</time>
      </trkpt>
      <trkpt lat="44.75327" lon="-0.3824">
        <ele>91</ele>
        <time>2013-07-07T16:01:59Z</time>
      </trkpt>
      <trkpt lat="44.75324" lon="-0.38237">
        <ele>91</ele>
        <time>2013-07-07T16:02:04Z</time>
      </trkpt>
      <trkpt lat="44.75324" lon="-0.38237">
        <ele>91</ele>
        <time>2013-07-07T16:02:15Z</time>
      </trkpt>
      <trkpt lat="44.75324" lon="-0.38236">
        <ele>91</ele>
        <time>2013-07-07T16:02:27Z</time>
      </trkpt>
      <trkpt lat="44.75324" lon="-0.38236">
        <ele>91</ele>
        <time>2013-07-07T16:02:37Z</time>
      </trkpt>
      <trkpt lat="44.75324" lon="-0.38236">
        <ele>91</ele>
        <time>2013-07-07T16:02:50Z</time>
      </trkpt>
      <trkpt lat="44.75322" lon="-0.38232">
        <ele>91</ele>
        <time>2013-07-07T16:02:57Z</time>
      </trkpt>
      <trkpt lat="44.75318" lon="-0.38226">
        <ele>91</ele>
        <time>2013-07-07T16:03:01Z</time>
      </trkpt>
      <trkpt lat="44.75318" lon="-0.38223">
        <ele>91</ele>
        <time>2013-07-07T16:03:02Z</time>
      </trkpt>
      <trkpt lat="44.75321" lon="-0.38203">
        <ele>91</ele>
        <time>2013-07-07T16:03:07Z</time>
      </trkpt>
      <trkpt lat="44.75329" lon="-0.3817">
        <ele>90</ele>
        <time>2013-07-07T16:03:13Z</time>
      </trkpt>
      <trkpt lat="44.75335" lon="-0.38149">
        <ele>90</ele>
        <time>2013-07-07T16:03:17Z</time>
      </trkpt>
      <trkpt lat="44.75354" lon="-0.38101">
        <ele>90</ele>
        <time>2013-07-07T16:03:25Z</time>
      </trkpt>
      <trkpt lat="44.75366" lon="-0.38072">
        <ele>89</ele>
        <time>2013-07-07T16:03:29Z</time>
      </trkpt>
      <trkpt lat="44.75369" lon="-0.38065">
        <ele>89</ele>
        <time>2013-07-07T16:03:30Z</time>
      </trkpt>
      <trkpt lat="44.75406" lon="-0.37974">
        <ele>87</ele>
        <time>2013-07-07T16:03:42Z</time>
      </trkpt>
      <trkpt lat="44.75417" lon="-0.37946">
        <ele>87</ele>
        <time>2013-07-07T16:03:46Z</time>
      </trkpt>
      <trkpt lat="44.75417" lon="-0.37939">
        <ele>87</ele>
        <time>2013-07-07T16:03:47Z</time>
      </trkpt>
      <trkpt lat="44.75416" lon="-0.37931">
        <ele>86</ele>
        <time>2013-07-07T16:03:48Z</time>
      </trkpt>
      <trkpt lat="44.75402" lon="-0.37879">
        <ele>85</ele>
        <time>2013-07-07T16:03:54Z</time>
      </trkpt>
      <trkpt lat="44.75396" lon="-0.3781">
        <ele>83</ele>
        <time>2013-07-07T16:04:01Z</time>
      </trkpt>
      <trkpt lat="44.75394" lon="-0.37729">
        <ele>81</ele>
        <time>2013-07-07T16:04:09Z</time>
      </trkpt>
      <trkpt lat="44.75388" lon="-0.37655">
        <ele>79</ele>
        <time>2013-07-07T16:04:16Z</time>
      </trkpt>
      <trkpt lat="44.75377" lon="-0.37576">
        <ele>80</ele>
        <time>2013-07-07T16:04:24Z</time>
      </trkpt>
      <trkpt lat="44.75364" lon="-0.375">
        <ele>79</ele>
        <time>2013-07-07T16:04:33Z</time>
      </trkpt>
      <trkpt lat="44.75362" lon="-0.37492">
        <ele>79</ele>
        <time>2013-07-07T16:04:34Z</time>
      </trkpt>
      <trkpt lat="44.75359" lon="-0.37484">
        <ele>79</ele>
        <time>2013-07-07T16:04:35Z</time>
      </trkpt>
      <trkpt lat="44.75355" lon="-0.37478">
        <ele>78</ele>
        <time>2013-07-07T16:04:36Z</time>
      </trkpt>
      <trkpt lat="44.75342" lon="-0.37461">
        <ele>79</ele>
        <time>2013-07-07T16:04:39Z</time>
      </trkpt>
      <trkpt lat="44.75338" lon="-0.37456">
        <ele>79</ele>
        <time>2013-07-07T16:04:40Z</time>
      </trkpt>
      <trkpt lat="44.75319" lon="-0.37429">
        <ele>79</ele>
        <time>2013-07-07T16:04:47Z</time>
      </trkpt>
      <trkpt lat="44.75315" lon="-0.37423">
        <ele>79</ele>
        <time>2013-07-07T16:04:50Z</time>
      </trkpt>
      <trkpt lat="44.75314" lon="-0.37423">
        <ele>79</ele>
        <time>2013-07-07T16:04:51Z</time>
      </trkpt>
      <trkpt lat="44.7531" lon="-0.37428">
        <ele>80</ele>
        <time>2013-07-07T16:04:57Z</time>
      </trkpt>
      <trkpt lat="44.75308" lon="-0.3743">
        <ele>80</ele>
        <time>2013-07-07T16:05:01Z</time>
      </trkpt>
      <trkpt lat="44.75304" lon="-0.37433">
        <ele>80</ele>
        <time>2013-07-07T16:05:09Z</time>
      </trkpt>
      <trkpt lat="44.75302" lon="-0.37435">
        <ele>80</ele>
        <time>2013-07-07T16:05:15Z</time>
      </trkpt>
      <trkpt lat="44.7529" lon="-0.3745">
        <ele>80</ele>
        <time>2013-07-07T16:05:24Z</time>
      </trkpt>
      <trkpt lat="44.7528" lon="-0.37458">
        <ele>80</ele>
        <time>2013-07-07T16:05:31Z</time>
      </trkpt>
      <trkpt lat="44.75267" lon="-0.37461">
        <ele>79</ele>
        <time>2013-07-07T16:05:37Z</time>
      </trkpt>
      <trkpt lat="44.75251" lon="-0.3746">
        <ele>78</ele>
        <time>2013-07-07T16:05:45Z</time>
      </trkpt>
      <trkpt lat="44.75248" lon="-0.3746">
        <ele>78</ele>
        <time>2013-07-07T16:05:51Z</time>
      </trkpt>
      <trkpt lat="44.75249" lon="-0.37459">
        <ele>78</ele>
        <time>2013-07-07T16:06:06Z</time>
      </trkpt>
      <trkpt lat="44.75241" lon="-0.37459">
        <ele>77</ele>
        <time>2013-07-07T16:06:14Z</time>
      </trkpt>
      <trkpt lat="44.75218" lon="-0.37457">
        <ele>75</ele>
        <time>2013-07-07T16:06:20Z</time>
      </trkpt>
      <trkpt lat="44.75212" lon="-0.37455">
        <ele>75</ele>
        <time>2013-07-07T16:06:22Z</time>
      </trkpt>
      <trkpt lat="44.75197" lon="-0.37441">
        <ele>75</ele>
        <time>2013-07-07T16:06:28Z</time>
      </trkpt>
      <trkpt lat="44.75194" lon="-0.37438">
        <ele>75</ele>
        <time>2013-07-07T16:06:29Z</time>
      </trkpt>
      <trkpt lat="44.75167" lon="-0.37404">
        <ele>74</ele>
        <time>2013-07-07T16:06:37Z</time>
      </trkpt>
      <trkpt lat="44.75152" lon="-0.37376">
        <ele>72</ele>
        <time>2013-07-07T16:06:42Z</time>
      </trkpt>
      <trkpt lat="44.75133" lon="-0.37343">
        <ele>69</ele>
        <time>2013-07-07T16:06:48Z</time>
      </trkpt>
      <trkpt lat="44.75118" lon="-0.37334">
        <ele>68</ele>
        <time>2013-07-07T16:06:53Z</time>
      </trkpt>
      <trkpt lat="44.75107" lon="-0.37338">
        <ele>67</ele>
        <time>2013-07-07T16:06:58Z</time>
      </trkpt>
      <trkpt lat="44.75087" lon="-0.37311">
        <ele>63</ele>
        <time>2013-07-07T16:07:06Z</time>
      </trkpt>
      <trkpt lat="44.75072" lon="-0.3729">
        <ele>59</ele>
        <time>2013-07-07T16:07:13Z</time>
      </trkpt>
      <trkpt lat="44.75059" lon="-0.37295">
        <ele>58</ele>
        <time>2013-07-07T16:07:18Z</time>
      </trkpt>
      <trkpt lat="44.75045" lon="-0.37311">
        <ele>58</ele>
        <time>2013-07-07T16:07:24Z</time>
      </trkpt>
      <trkpt lat="44.75036" lon="-0.37318">
        <ele>58</ele>
        <time>2013-07-07T16:07:27Z</time>
      </trkpt>
      <trkpt lat="44.75032" lon="-0.37322">
        <ele>58</ele>
        <time>2013-07-07T16:07:28Z</time>
      </trkpt>
      <trkpt lat="44.7503" lon="-0.37326">
        <ele>57</ele>
        <time>2013-07-07T16:07:29Z</time>
      </trkpt>
      <trkpt lat="44.75027" lon="-0.37331">
        <ele>57</ele>
        <time>2013-07-07T16:07:30Z</time>
      </trkpt>
      <trkpt lat="44.75019" lon="-0.37345">
        <ele>57</ele>
        <time>2013-07-07T16:07:33Z</time>
      </trkpt>
      <trkpt lat="44.75007" lon="-0.37359">
        <ele>56</ele>
        <time>2013-07-07T16:07:36Z</time>
      </trkpt>
      <trkpt lat="44.75002" lon="-0.37363">
        <ele>55</ele>
        <time>2013-07-07T16:07:37Z</time>
      </trkpt>
      <trkpt lat="44.74998" lon="-0.37367">
        <ele>55</ele>
        <time>2013-07-07T16:07:38Z</time>
      </trkpt>
      <trkpt lat="44.74975" lon="-0.37398">
        <ele>54</ele>
        <time>2013-07-07T16:07:43Z</time>
      </trkpt>
      <trkpt lat="44.74972" lon="-0.37404">
        <ele>53</ele>
        <time>2013-07-07T16:07:44Z</time>
      </trkpt>
      <trkpt lat="44.74969" lon="-0.37407">
        <ele>53</ele>
        <time>2013-07-07T16:07:45Z</time>
      </trkpt>
      <trkpt lat="44.74966" lon="-0.37408">
        <ele>52</ele>
        <time>2013-07-07T16:07:46Z</time>
      </trkpt>
      <trkpt lat="44.74958" lon="-0.37404">
        <ele>51</ele>
        <time>2013-07-07T16:07:50Z</time>
      </trkpt>
      <trkpt lat="44.74954" lon="-0.3741">
        <ele>51</ele>
        <time>2013-07-07T16:07:56Z</time>
      </trkpt>
      <trkpt lat="44.74954" lon="-0.37412">
        <ele>50</ele>
        <time>2013-07-07T16:08:03Z</time>
      </trkpt>
      <trkpt lat="44.74944" lon="-0.37426">
        <ele>49</ele>
        <time>2013-07-07T16:08:11Z</time>
      </trkpt>
      <trkpt lat="44.74939" lon="-0.37433">
        <ele>48</ele>
        <time>2013-07-07T16:08:13Z</time>
      </trkpt>
      <trkpt lat="44.74935" lon="-0.37437">
        <ele>48</ele>
        <time>2013-07-07T16:08:14Z</time>
      </trkpt>
      <trkpt lat="44.74931" lon="-0.37442">
        <ele>47</ele>
        <time>2013-07-07T16:08:15Z</time>
      </trkpt>
      <trkpt lat="44.74904" lon="-0.37483">
        <ele>48</ele>
        <time>2013-07-07T16:08:21Z</time>
      </trkpt>
      <trkpt lat="44.74867" lon="-0.37536">
        <ele>46</ele>
        <time>2013-07-07T16:08:27Z</time>
      </trkpt>
      <trkpt lat="44.74839" lon="-0.37576">
        <ele>40</ele>
        <time>2013-07-07T16:08:31Z</time>
      </trkpt>
      <trkpt lat="44.74831" lon="-0.37584">
        <ele>38</ele>
        <time>2013-07-07T16:08:32Z</time>
      </trkpt>
      <trkpt lat="44.74822" lon="-0.37589">
        <ele>38</ele>
        <time>2013-07-07T16:08:33Z</time>
      </trkpt>
      <trkpt lat="44.74813" lon="-0.37591">
        <ele>38</ele>
        <time>2013-07-07T16:08:34Z</time>
      </trkpt>
      <trkpt lat="44.74805" lon="-0.37591">
        <ele>38</ele>
        <time>2013-07-07T16:08:35Z</time>
      </trkpt>
      <trkpt lat="44.74798" lon="-0.37589">
        <ele>37</ele>
        <time>2013-07-07T16:08:36Z</time>
      </trkpt>
      <trkpt lat="44.74791" lon="-0.37585">
        <ele>37</ele>
        <time>2013-07-07T16:08:37Z</time>
      </trkpt>
      <trkpt lat="44.74784" lon="-0.37579">
        <ele>36</ele>
        <time>2013-07-07T16:08:38Z</time>
      </trkpt>
      <trkpt lat="44.74775" lon="-0.37569">
        <ele>35</ele>
        <time>2013-07-07T16:08:39Z</time>
      </trkpt>
      <trkpt lat="44.74767" lon="-0.37558">
        <ele>33</ele>
        <time>2013-07-07T16:08:40Z</time>
      </trkpt>
      <trkpt lat="44.74702" lon="-0.37472">
        <ele>30</ele>
        <time>2013-07-07T16:08:48Z</time>
      </trkpt>
      <trkpt lat="44.74674" lon="-0.37437">
        <ele>31</ele>
        <time>2013-07-07T16:08:53Z</time>
      </trkpt>
      <trkpt lat="44.74655" lon="-0.37409">
        <ele>35</ele>
        <time>2013-07-07T16:08:59Z</time>
      </trkpt>
      <trkpt lat="44.74652" lon="-0.37403">
        <ele>36</ele>
        <time>2013-07-07T16:09:01Z</time>
      </trkpt>
      <trkpt lat="44.74652" lon="-0.37401">
        <ele>37</ele>
        <time>2013-07-07T16:09:02Z</time>
      </trkpt>
      <trkpt lat="44.74652" lon="-0.37399">
        <ele>37</ele>
        <time>2013-07-07T16:09:03Z</time>
      </trkpt>
      <trkpt lat="44.74652" lon="-0.37396">
        <ele>38</ele>
        <time>2013-07-07T16:09:04Z</time>
      </trkpt>
      <trkpt lat="44.74653" lon="-0.37394">
        <ele>38</ele>
        <time>2013-07-07T16:09:05Z</time>
      </trkpt>
      <trkpt lat="44.74655" lon="-0.37391">
        <ele>38</ele>
        <time>2013-07-07T16:09:06Z</time>
      </trkpt>
      <trkpt lat="44.74656" lon="-0.37389">
        <ele>38</ele>
        <time>2013-07-07T16:09:07Z</time>
      </trkpt>
      <trkpt lat="44.74658" lon="-0.37387">
        <ele>38</ele>
        <time>2013-07-07T16:09:08Z</time>
      </trkpt>
      <trkpt lat="44.74669" lon="-0.37379">
        <ele>38</ele>
        <time>2013-07-07T16:09:14Z</time>
      </trkpt>
      <trkpt lat="44.74669" lon="-0.37378">
        <ele>38</ele>
        <time>2013-07-07T16:09:17Z</time>
      </trkpt>
      <trkpt lat="44.74668" lon="-0.37377">
        <ele>39</ele>
        <time>2013-07-07T16:09:18Z</time>
      </trkpt>
      <trkpt lat="44.74667" lon="-0.37377">
        <ele>39</ele>
        <time>2013-07-07T16:09:19Z</time>
      </trkpt>
      <trkpt lat="44.74662" lon="-0.37376">
        <ele>40</ele>
        <time>2013-07-07T16:09:23Z</time>
      </trkpt>
      <trkpt lat="44.7466" lon="-0.37376">
        <ele>40</ele>
        <time>2013-07-07T16:09:24Z</time>
      </trkpt>
      <trkpt lat="44.74659" lon="-0.37375">
        <ele>40</ele>
        <time>2013-07-07T16:09:29Z</time>
      </trkpt>
      <trkpt lat="44.7466" lon="-0.37371">
        <ele>41</ele>
        <time>2013-07-07T16:09:34Z</time>
      </trkpt>
      <trkpt lat="44.74663" lon="-0.37367">
        <ele>41</ele>
        <time>2013-07-07T16:09:37Z</time>
      </trkpt>
      <trkpt lat="44.74664" lon="-0.37365">
        <ele>41</ele>
        <time>2013-07-07T16:09:38Z</time>
      </trkpt>
      <trkpt lat="44.74665" lon="-0.37362">
        <ele>41</ele>
        <time>2013-07-07T16:09:39Z</time>
      </trkpt>
      <trkpt lat="44.7467" lon="-0.37352">
        <ele>42</ele>
        <time>2013-07-07T16:09:45Z</time>
      </trkpt>
      <trkpt lat="44.74674" lon="-0.37341">
        <ele>43</ele>
        <time>2013-07-07T16:09:53Z</time>
      </trkpt>
      <trkpt lat="44.74672" lon="-0.3734">
        <ele>43</ele>
        <time>2013-07-07T16:09:59Z</time>
      </trkpt>
      <trkpt lat="44.74665" lon="-0.3734">
        <ele>44</ele>
        <time>2013-07-07T16:10:04Z</time>
      </trkpt>
      <trkpt lat="44.74663" lon="-0.3734">
        <ele>45</ele>
        <time>2013-07-07T16:10:05Z</time>
      </trkpt>
      <trkpt lat="44.74661" lon="-0.3734">
        <ele>45</ele>
        <time>2013-07-07T16:10:06Z</time>
      </trkpt>
      <trkpt lat="44.74653" lon="-0.37342">
        <ele>46</ele>
        <time>2013-07-07T16:10:12Z</time>
      </trkpt>
      <trkpt lat="44.74648" lon="-0.37341">
        <ele>46</ele>
        <time>2013-07-07T16:10:17Z</time>
      </trkpt>
      <trkpt lat="44.74645" lon="-0.37337">
        <ele>47</ele>
        <time>2013-07-07T16:10:26Z</time>
      </trkpt>
      <trkpt lat="44.74643" lon="-0.37332">
        <ele>48</ele>
        <time>2013-07-07T16:10:32Z</time>
      </trkpt>
      <trkpt lat="44.74642" lon="-0.37329">
        <ele>48</ele>
        <time>2013-07-07T16:10:39Z</time>
      </trkpt>
      <trkpt lat="44.74641" lon="-0.37328">
        <ele>48</ele>
        <time>2013-07-07T16:10:40Z</time>
      </trkpt>
      <trkpt lat="44.74639" lon="-0.37325">
        <ele>49</ele>
        <time>2013-07-07T16:10:43Z</time>
      </trkpt>
      <trkpt lat="44.74644" lon="-0.37315">
        <ele>50</ele>
        <time>2013-07-07T16:10:50Z</time>
      </trkpt>
      <trkpt lat="44.7465" lon="-0.37304">
        <ele>51</ele>
        <time>2013-07-07T16:10:55Z</time>
      </trkpt>
      <trkpt lat="44.74652" lon="-0.37282">
        <ele>52</ele>
        <time>2013-07-07T16:11:02Z</time>
      </trkpt>
      <trkpt lat="44.74655" lon="-0.37263">
        <ele>53</ele>
        <time>2013-07-07T16:11:10Z</time>
      </trkpt>
      <trkpt lat="44.74655" lon="-0.3726">
        <ele>53</ele>
        <time>2013-07-07T16:11:12Z</time>
      </trkpt>
      <trkpt lat="44.74655" lon="-0.37249">
        <ele>54</ele>
        <time>2013-07-07T16:11:18Z</time>
      </trkpt>
      <trkpt lat="44.74658" lon="-0.37239">
        <ele>54</ele>
        <time>2013-07-07T16:11:23Z</time>
      </trkpt>
      <trkpt lat="44.74665" lon="-0.37231">
        <ele>53</ele>
        <time>2013-07-07T16:11:28Z</time>
      </trkpt>
      <trkpt lat="44.74666" lon="-0.37223">
        <ele>54</ele>
        <time>2013-07-07T16:11:32Z</time>
      </trkpt>
      <trkpt lat="44.74662" lon="-0.37213">
        <ele>55</ele>
        <time>2013-07-07T16:11:37Z</time>
      </trkpt>
      <trkpt lat="44.74652" lon="-0.37194">
        <ele>56</ele>
        <time>2013-07-07T16:11:46Z</time>
      </trkpt>
      <trkpt lat="44.74642" lon="-0.37178">
        <ele>58</ele>
        <time>2013-07-07T16:11:54Z</time>
      </trkpt>
      <trkpt lat="44.74632" lon="-0.37161">
        <ele>59</ele>
        <time>2013-07-07T16:12:01Z</time>
      </trkpt>
      <trkpt lat="44.74617" lon="-0.37134">
        <ele>61</ele>
        <time>2013-07-07T16:12:11Z</time>
      </trkpt>
      <trkpt lat="44.74607" lon="-0.37116">
        <ele>63</ele>
        <time>2013-07-07T16:12:19Z</time>
      </trkpt>
      <trkpt lat="44.746" lon="-0.37103">
        <ele>64</ele>
        <time>2013-07-07T16:12:26Z</time>
      </trkpt>
      <trkpt lat="44.74589" lon="-0.37087">
        <ele>65</ele>
        <time>2013-07-07T16:12:34Z</time>
      </trkpt>
      <trkpt lat="44.74581" lon="-0.37072">
        <ele>66</ele>
        <time>2013-07-07T16:12:42Z</time>
      </trkpt>
      <trkpt lat="44.74576" lon="-0.37067">
        <ele>66</ele>
        <time>2013-07-07T16:12:46Z</time>
      </trkpt>
      <trkpt lat="44.74579" lon="-0.37056">
        <ele>67</ele>
        <time>2013-07-07T16:12:53Z</time>
      </trkpt>
      <trkpt lat="44.74582" lon="-0.3705">
        <ele>67</ele>
        <time>2013-07-07T16:12:57Z</time>
      </trkpt>
      <trkpt lat="44.74591" lon="-0.37034">
        <ele>68</ele>
        <time>2013-07-07T16:13:07Z</time>
      </trkpt>
      <trkpt lat="44.74598" lon="-0.37022">
        <ele>69</ele>
        <time>2013-07-07T16:13:14Z</time>
      </trkpt>
      <trkpt lat="44.74611" lon="-0.37004">
        <ele>70</ele>
        <time>2013-07-07T16:13:25Z</time>
      </trkpt>
      <trkpt lat="44.74621" lon="-0.36989">
        <ele>71</ele>
        <time>2013-07-07T16:13:34Z</time>
      </trkpt>
      <trkpt lat="44.74633" lon="-0.36971">
        <ele>73</ele>
        <time>2013-07-07T16:13:44Z</time>
      </trkpt>
      <trkpt lat="44.74643" lon="-0.36956">
        <ele>75</ele>
        <time>2013-07-07T16:13:54Z</time>
      </trkpt>
      <trkpt lat="44.74649" lon="-0.36947">
        <ele>77</ele>
        <time>2013-07-07T16:14:01Z</time>
      </trkpt>
      <trkpt lat="44.74656" lon="-0.36937">
        <ele>79</ele>
        <time>2013-07-07T16:14:09Z</time>
      </trkpt>
      <trkpt lat="44.74663" lon="-0.36926">
        <ele>81</ele>
        <time>2013-07-07T16:14:18Z</time>
      </trkpt>
      <trkpt lat="44.7467" lon="-0.36915">
        <ele>81</ele>
        <time>2013-07-07T16:14:26Z</time>
      </trkpt>
      <trkpt lat="44.74673" lon="-0.36907">
        <ele>81</ele>
        <time>2013-07-07T16:14:32Z</time>
      </trkpt>
      <trkpt lat="44.74678" lon="-0.36895">
        <ele>81</ele>
        <time>2013-07-07T16:14:41Z</time>
      </trkpt>
      <trkpt lat="44.74682" lon="-0.36876">
        <ele>82</ele>
        <time>2013-07-07T16:14:51Z</time>
      </trkpt>
      <trkpt lat="44.74689" lon="-0.36857">
        <ele>82</ele>
        <time>2013-07-07T16:15:02Z</time>
      </trkpt>
      <trkpt lat="44.74696" lon="-0.36844">
        <ele>82</ele>
        <time>2013-07-07T16:15:10Z</time>
      </trkpt>
      <trkpt lat="44.74705" lon="-0.36828">
        <ele>83</ele>
        <time>2013-07-07T16:15:19Z</time>
      </trkpt>
      <trkpt lat="44.7471" lon="-0.36813">
        <ele>84</ele>
        <time>2013-07-07T16:15:27Z</time>
      </trkpt>
      <trkpt lat="44.7471" lon="-0.36812">
        <ele>84</ele>
        <time>2013-07-07T16:15:33Z</time>
      </trkpt>
      <trkpt lat="44.74711" lon="-0.36812">
        <ele>84</ele>
        <time>2013-07-07T16:15:47Z</time>
      </trkpt>
      <trkpt lat="44.74712" lon="-0.36812">
        <ele>84</ele>
        <time>2013-07-07T16:15:54Z</time>
      </trkpt>
      <trkpt lat="44.74712" lon="-0.36812">
        <ele>83</ele>
        <time>2013-07-07T16:16:05Z</time>
      </trkpt>
      <trkpt lat="44.74713" lon="-0.36812">
        <ele>83</ele>
        <time>2013-07-07T16:16:18Z</time>
      </trkpt>
      <trkpt lat="44.74713" lon="-0.36812">
        <ele>83</ele>
        <time>2013-07-07T16:16:31Z</time>
      </trkpt>
      <trkpt lat="44.74713" lon="-0.36812">
        <ele>83</ele>
        <time>2013-07-07T16:16:34Z</time>
      </trkpt>
      <trkpt lat="44.74725" lon="-0.36821">
        <ele>82</ele>
        <time>2013-07-07T16:16:39Z</time>
      </trkpt>
      <trkpt lat="44.74751" lon="-0.36843">
        <ele>78</ele>
        <time>2013-07-07T16:16:44Z</time>
      </trkpt>
      <trkpt lat="44.7476" lon="-0.36848">
        <ele>77</ele>
        <time>2013-07-07T16:16:47Z</time>
      </trkpt>
      <trkpt lat="44.74767" lon="-0.36834">
        <ele>77</ele>
        <time>2013-07-07T16:16:51Z</time>
      </trkpt>
      <trkpt lat="44.74778" lon="-0.3678">
        <ele>77</ele>
        <time>2013-07-07T16:17:00Z</time>
      </trkpt>
      <trkpt lat="44.74787" lon="-0.36742">
        <ele>76</ele>
        <time>2013-07-07T16:17:06Z</time>
      </trkpt>
      <trkpt lat="44.74809" lon="-0.36684">
        <ele>78</ele>
        <time>2013-07-07T16:17:14Z</time>
      </trkpt>
      <trkpt lat="44.74825" lon="-0.3665">
        <ele>79</ele>
        <time>2013-07-07T16:17:21Z</time>
      </trkpt>
      <trkpt lat="44.7483" lon="-0.36642">
        <ele>80</ele>
        <time>2013-07-07T16:17:24Z</time>
      </trkpt>
      <trkpt lat="44.74844" lon="-0.36645">
        <ele>78</ele>
        <time>2013-07-07T16:17:30Z</time>
      </trkpt>
      <trkpt lat="44.74856" lon="-0.36641">
        <ele>77</ele>
        <time>2013-07-07T16:17:35Z</time>
      </trkpt>
      <trkpt lat="44.74875" lon="-0.36624">
        <ele>77</ele>
        <time>2013-07-07T16:17:44Z</time>
      </trkpt>
      <trkpt lat="44.74896" lon="-0.36616">
        <ele>74</ele>
        <time>2013-07-07T16:17:52Z</time>
      </trkpt>
      <trkpt lat="44.74904" lon="-0.36613">
        <ele>73</ele>
        <time>2013-07-07T16:17:54Z</time>
      </trkpt>
      <trkpt lat="44.74929" lon="-0.36579">
        <ele>71</ele>
        <time>2013-07-07T16:18:01Z</time>
      </trkpt>
      <trkpt lat="44.74945" lon="-0.36552">
        <ele>68</ele>
        <time>2013-07-07T16:18:07Z</time>
      </trkpt>
      <trkpt lat="44.74958" lon="-0.36534">
        <ele>65</ele>
        <time>2013-07-07T16:18:13Z</time>
      </trkpt>
      <trkpt lat="44.74958" lon="-0.36514">
        <ele>63</ele>
        <time>2013-07-07T16:18:19Z</time>
      </trkpt>
      <trkpt lat="44.74943" lon="-0.36489">
        <ele>64</ele>
        <time>2013-07-07T16:18:27Z</time>
      </trkpt>
      <trkpt lat="44.74931" lon="-0.36468">
        <ele>66</ele>
        <time>2013-07-07T16:18:34Z</time>
      </trkpt>
      <trkpt lat="44.74932" lon="-0.36462">
        <ele>65</ele>
        <time>2013-07-07T16:18:36Z</time>
      </trkpt>
      <trkpt lat="44.74938" lon="-0.36454">
        <ele>64</ele>
        <time>2013-07-07T16:18:40Z</time>
      </trkpt>
      <trkpt lat="44.7496" lon="-0.36437">
        <ele>61</ele>
        <time>2013-07-07T16:18:48Z</time>
      </trkpt>
      <trkpt lat="44.74958" lon="-0.3641">
        <ele>62</ele>
        <time>2013-07-07T16:18:54Z</time>
      </trkpt>
      <trkpt lat="44.74953" lon="-0.36395">
        <ele>63</ele>
        <time>2013-07-07T16:18:58Z</time>
      </trkpt>
      <trkpt lat="44.74943" lon="-0.36364">
        <ele>64</ele>
        <time>2013-07-07T16:19:08Z</time>
      </trkpt>
      <trkpt lat="44.74935" lon="-0.36345">
        <ele>65</ele>
        <time>2013-07-07T16:19:16Z</time>
      </trkpt>
      <trkpt lat="44.74928" lon="-0.36328">
        <ele>65</ele>
        <time>2013-07-07T16:19:23Z</time>
      </trkpt>
      <trkpt lat="44.74926" lon="-0.36326">
        <ele>65</ele>
        <time>2013-07-07T16:19:24Z</time>
      </trkpt>
      <trkpt lat="44.74915" lon="-0.36308">
        <ele>66</ele>
        <time>2013-07-07T16:19:33Z</time>
      </trkpt>
      <trkpt lat="44.7492" lon="-0.36291">
        <ele>65</ele>
        <time>2013-07-07T16:19:39Z</time>
      </trkpt>
      <trkpt lat="44.7492" lon="-0.36288">
        <ele>65</ele>
        <time>2013-07-07T16:19:40Z</time>
      </trkpt>
      <trkpt lat="44.74915" lon="-0.36275">
        <ele>65</ele>
        <time>2013-07-07T16:19:45Z</time>
      </trkpt>
      <trkpt lat="44.74906" lon="-0.36234">
        <ele>63</ele>
        <time>2013-07-07T16:19:52Z</time>
      </trkpt>
      <trkpt lat="44.74883" lon="-0.36172">
        <ele>61</ele>
        <time>2013-07-07T16:20:01Z</time>
      </trkpt>
      <trkpt lat="44.74861" lon="-0.36126">
        <ele>59</ele>
        <time>2013-07-07T16:20:07Z</time>
      </trkpt>
      <trkpt lat="44.74853" lon="-0.36087">
        <ele>57</ele>
        <time>2013-07-07T16:20:12Z</time>
      </trkpt>
      <trkpt lat="44.74846" lon="-0.36061">
        <ele>56</ele>
        <time>2013-07-07T16:20:18Z</time>
      </trkpt>
      <trkpt lat="44.74843" lon="-0.36043">
        <ele>56</ele>
        <time>2013-07-07T16:20:25Z</time>
      </trkpt>
      <trkpt lat="44.74842" lon="-0.36034">
        <ele>56</ele>
        <time>2013-07-07T16:20:29Z</time>
      </trkpt>
      <trkpt lat="44.74841" lon="-0.36032">
        <ele>56</ele>
        <time>2013-07-07T16:20:30Z</time>
      </trkpt>
      <trkpt lat="44.74837" lon="-0.36024">
        <ele>55</ele>
        <time>2013-07-07T16:20:37Z</time>
      </trkpt>
      <trkpt lat="44.74837" lon="-0.36022">
        <ele>55</ele>
        <time>2013-07-07T16:20:38Z</time>
      </trkpt>
      <trkpt lat="44.74838" lon="-0.3602">
        <ele>55</ele>
        <time>2013-07-07T16:20:39Z</time>
      </trkpt>
      <trkpt lat="44.74838" lon="-0.36017">
        <ele>55</ele>
        <time>2013-07-07T16:20:40Z</time>
      </trkpt>
      <trkpt lat="44.74839" lon="-0.36015">
        <ele>55</ele>
        <time>2013-07-07T16:20:41Z</time>
      </trkpt>
      <trkpt lat="44.74839" lon="-0.36012">
        <ele>55</ele>
        <time>2013-07-07T16:20:42Z</time>
      </trkpt>
      <trkpt lat="44.74841" lon="-0.35995">
        <ele>55</ele>
        <time>2013-07-07T16:20:50Z</time>
      </trkpt>
      <trkpt lat="44.74839" lon="-0.35973">
        <ele>56</ele>
        <time>2013-07-07T16:21:00Z</time>
      </trkpt>
      <trkpt lat="44.74837" lon="-0.35946">
        <ele>57</ele>
        <time>2013-07-07T16:21:08Z</time>
      </trkpt>
      <trkpt lat="44.74829" lon="-0.35923">
        <ele>59</ele>
        <time>2013-07-07T16:21:15Z</time>
      </trkpt>
      <trkpt lat="44.74815" lon="-0.35916">
        <ele>61</ele>
        <time>2013-07-07T16:21:24Z</time>
      </trkpt>
      <trkpt lat="44.74807" lon="-0.35911">
        <ele>62</ele>
        <time>2013-07-07T16:21:31Z</time>
      </trkpt>
      <trkpt lat="44.7479" lon="-0.359">
        <ele>63</ele>
        <time>2013-07-07T16:21:42Z</time>
      </trkpt>
      <trkpt lat="44.74784" lon="-0.35888">
        <ele>65</ele>
        <time>2013-07-07T16:21:51Z</time>
      </trkpt>
      <trkpt lat="44.74784" lon="-0.35876">
        <ele>66</ele>
        <time>2013-07-07T16:21:59Z</time>
      </trkpt>
      <trkpt lat="44.74785" lon="-0.35865">
        <ele>67</ele>
        <time>2013-07-07T16:22:04Z</time>
      </trkpt>
      <trkpt lat="44.74791" lon="-0.35859">
        <ele>68</ele>
        <time>2013-07-07T16:22:09Z</time>
      </trkpt>
      <trkpt lat="44.74791" lon="-0.3585">
        <ele>68</ele>
        <time>2013-07-07T16:22:15Z</time>
      </trkpt>
      <trkpt lat="44.74787" lon="-0.35848">
        <ele>68</ele>
        <time>2013-07-07T16:22:18Z</time>
      </trkpt>
      <trkpt lat="44.74771" lon="-0.3585">
        <ele>69</ele>
        <time>2013-07-07T16:22:30Z</time>
      </trkpt>
      <trkpt lat="44.74761" lon="-0.35849">
        <ele>68</ele>
        <time>2013-07-07T16:22:41Z</time>
      </trkpt>
      <trkpt lat="44.7476" lon="-0.35849">
        <ele>68</ele>
        <time>2013-07-07T16:22:42Z</time>
      </trkpt>
      <trkpt lat="44.74757" lon="-0.35847">
        <ele>68</ele>
        <time>2013-07-07T16:22:45Z</time>
      </trkpt>
      <trkpt lat="44.74749" lon="-0.35829">
        <ele>68</ele>
        <time>2013-07-07T16:22:53Z</time>
      </trkpt>
      <trkpt lat="44.74747" lon="-0.35808">
        <ele>69</ele>
        <time>2013-07-07T16:23:01Z</time>
      </trkpt>
      <trkpt lat="44.74751" lon="-0.35803">
        <ele>69</ele>
        <time>2013-07-07T16:23:05Z</time>
      </trkpt>
      <trkpt lat="44.74762" lon="-0.35791">
        <ele>70</ele>
        <time>2013-07-07T16:23:13Z</time>
      </trkpt>
      <trkpt lat="44.74773" lon="-0.35767">
        <ele>71</ele>
        <time>2013-07-07T16:23:22Z</time>
      </trkpt>
      <trkpt lat="44.74779" lon="-0.35762">
        <ele>71</ele>
        <time>2013-07-07T16:23:28Z</time>
      </trkpt>
      <trkpt lat="44.74803" lon="-0.35752">
        <ele>69</ele>
        <time>2013-07-07T16:23:38Z</time>
      </trkpt>
      <trkpt lat="44.74822" lon="-0.35747">
        <ele>68</ele>
        <time>2013-07-07T16:23:48Z</time>
      </trkpt>
      <trkpt lat="44.7483" lon="-0.3574">
        <ele>67</ele>
        <time>2013-07-07T16:23:53Z</time>
      </trkpt>
      <trkpt lat="44.74837" lon="-0.35716">
        <ele>68</ele>
        <time>2013-07-07T16:24:04Z</time>
      </trkpt>
      <trkpt lat="44.74847" lon="-0.35695">
        <ele>68</ele>
        <time>2013-07-07T16:24:15Z</time>
      </trkpt>
      <trkpt lat="44.74855" lon="-0.35678">
        <ele>67</ele>
        <time>2013-07-07T16:24:23Z</time>
      </trkpt>
      <trkpt lat="44.7486" lon="-0.35645">
        <ele>67</ele>
        <time>2013-07-07T16:24:32Z</time>
      </trkpt>
      <trkpt lat="44.74861" lon="-0.35614">
        <ele>67</ele>
        <time>2013-07-07T16:24:40Z</time>
      </trkpt>
      <trkpt lat="44.74873" lon="-0.35594">
        <ele>66</ele>
        <time>2013-07-07T16:24:46Z</time>
      </trkpt>
      <trkpt lat="44.74875" lon="-0.35587">
        <ele>66</ele>
        <time>2013-07-07T16:25:03Z</time>
      </trkpt>
      <trkpt lat="44.74875" lon="-0.35586">
        <ele>66</ele>
        <time>2013-07-07T16:25:18Z</time>
      </trkpt>
      <trkpt lat="44.74875" lon="-0.35585">
        <ele>66</ele>
        <time>2013-07-07T16:25:28Z</time>
      </trkpt>
      <trkpt lat="44.74875" lon="-0.35584">
        <ele>66</ele>
        <time>2013-07-07T16:25:44Z</time>
      </trkpt>
      <trkpt lat="44.74874" lon="-0.35583">
        <ele>66</ele>
        <time>2013-07-07T16:25:59Z</time>
      </trkpt>
      <trkpt lat="44.74874" lon="-0.35583">
        <ele>66</ele>
        <time>2013-07-07T16:26:12Z</time>
      </trkpt>
      <trkpt lat="44.7487" lon="-0.35573">
        <ele>67</ele>
        <time>2013-07-07T16:26:20Z</time>
      </trkpt>
      <trkpt lat="44.74862" lon="-0.3556">
        <ele>68</ele>
        <time>2013-07-07T16:26:28Z</time>
      </trkpt>
      <trkpt lat="44.74854" lon="-0.35546">
        <ele>69</ele>
        <time>2013-07-07T16:26:37Z</time>
      </trkpt>
      <trkpt lat="44.74852" lon="-0.35538">
        <ele>70</ele>
        <time>2013-07-07T16:26:47Z</time>
      </trkpt>
      <trkpt lat="44.74852" lon="-0.35537">
        <ele>70</ele>
        <time>2013-07-07T16:26:59Z</time>
      </trkpt>
      <trkpt lat="44.74851" lon="-0.35538">
        <ele>70</ele>
        <time>2013-07-07T16:27:11Z</time>
      </trkpt>
      <trkpt lat="44.74846" lon="-0.35534">
        <ele>71</ele>
        <time>2013-07-07T16:27:22Z</time>
      </trkpt>
      <trkpt lat="44.74839" lon="-0.35534">
        <ele>71</ele>
        <time>2013-07-07T16:27:27Z</time>
      </trkpt>
      <trkpt lat="44.74826" lon="-0.35536">
        <ele>73</ele>
        <time>2013-07-07T16:27:36Z</time>
      </trkpt>
      <trkpt lat="44.7481" lon="-0.35544">
        <ele>75</ele>
        <time>2013-07-07T16:27:45Z</time>
      </trkpt>
      <trkpt lat="44.74794" lon="-0.3555">
        <ele>78</ele>
        <time>2013-07-07T16:27:57Z</time>
      </trkpt>
      <trkpt lat="44.74791" lon="-0.35554">
        <ele>78</ele>
        <time>2013-07-07T16:28:04Z</time>
      </trkpt>
      <trkpt lat="44.74787" lon="-0.35557">
        <ele>78</ele>
        <time>2013-07-07T16:28:12Z</time>
      </trkpt>
      <trkpt lat="44.74786" lon="-0.35557">
        <ele>79</ele>
        <time>2013-07-07T16:28:19Z</time>
      </trkpt>
      <trkpt lat="44.74786" lon="-0.35557">
        <ele>79</ele>
        <time>2013-07-07T16:28:21Z</time>
      </trkpt>
      <trkpt lat="44.74774" lon="-0.35548">
        <ele>81</ele>
        <time>2013-07-07T16:28:31Z</time>
      </trkpt>
      <trkpt lat="44.74762" lon="-0.3554">
        <ele>83</ele>
        <time>2013-07-07T16:28:40Z</time>
      </trkpt>
      <trkpt lat="44.74759" lon="-0.3554">
        <ele>83</ele>
        <time>2013-07-07T16:28:42Z</time>
      </trkpt>
      <trkpt lat="44.74746" lon="-0.35557">
        <ele>84</ele>
        <time>2013-07-07T16:28:51Z</time>
      </trkpt>
      <trkpt lat="44.74744" lon="-0.35559">
        <ele>85</ele>
        <time>2013-07-07T16:28:57Z</time>
      </trkpt>
      <trkpt lat="44.74744" lon="-0.35559">
        <ele>85</ele>
        <time>2013-07-07T16:29:05Z</time>
      </trkpt>
      <trkpt lat="44.7474" lon="-0.35565">
        <ele>85</ele>
        <time>2013-07-07T16:29:11Z</time>
      </trkpt>
      <trkpt lat="44.74731" lon="-0.35581">
        <ele>85</ele>
        <time>2013-07-07T16:29:18Z</time>
      </trkpt>
      <trkpt lat="44.74717" lon="-0.35604">
        <ele>85</ele>
        <time>2013-07-07T16:29:27Z</time>
      </trkpt>
      <trkpt lat="44.747" lon="-0.35634">
        <ele>82</ele>
        <time>2013-07-07T16:29:36Z</time>
      </trkpt>
      <trkpt lat="44.74681" lon="-0.35668">
        <ele>79</ele>
        <time>2013-07-07T16:29:43Z</time>
      </trkpt>
      <trkpt lat="44.74665" lon="-0.35695">
        <ele>77</ele>
        <time>2013-07-07T16:29:49Z</time>
      </trkpt>
      <trkpt lat="44.74651" lon="-0.35724">
        <ele>75</ele>
        <time>2013-07-07T16:29:56Z</time>
      </trkpt>
      <trkpt lat="44.7463" lon="-0.35775">
        <ele>71</ele>
        <time>2013-07-07T16:30:04Z</time>
      </trkpt>
      <trkpt lat="44.74615" lon="-0.35811">
        <ele>67</ele>
        <time>2013-07-07T16:30:11Z</time>
      </trkpt>
      <trkpt lat="44.7461" lon="-0.35815">
        <ele>67</ele>
        <time>2013-07-07T16:30:13Z</time>
      </trkpt>
      <trkpt lat="44.74601" lon="-0.35811">
        <ele>67</ele>
        <time>2013-07-07T16:30:17Z</time>
      </trkpt>
      <trkpt lat="44.74592" lon="-0.35804">
        <ele>68</ele>
        <time>2013-07-07T16:30:25Z</time>
      </trkpt>
      <trkpt lat="44.74592" lon="-0.35803">
        <ele>68</ele>
        <time>2013-07-07T16:30:35Z</time>
      </trkpt>
      <trkpt lat="44.74593" lon="-0.35802">
        <ele>68</ele>
        <time>2013-07-07T16:30:47Z</time>
      </trkpt>
      <trkpt lat="44.74593" lon="-0.35802">
        <ele>68</ele>
        <time>2013-07-07T16:30:58Z</time>
      </trkpt>
      <trkpt lat="44.74583" lon="-0.35797">
        <ele>68</ele>
        <time>2013-07-07T16:31:06Z</time>
      </trkpt>
      <trkpt lat="44.74563" lon="-0.35785">
        <ele>67</ele>
        <time>2013-07-07T16:31:16Z</time>
      </trkpt>
      <trkpt lat="44.74545" lon="-0.35774">
        <ele>66</ele>
        <time>2013-07-07T16:31:24Z</time>
      </trkpt>
      <trkpt lat="44.74514" lon="-0.35754">
        <ele>67</ele>
        <time>2013-07-07T16:31:37Z</time>
      </trkpt>
      <trkpt lat="44.74495" lon="-0.35739">
        <ele>69</ele>
        <time>2013-07-07T16:31:45Z</time>
      </trkpt>
      <trkpt lat="44.74477" lon="-0.35729">
        <ele>69</ele>
        <time>2013-07-07T16:31:54Z</time>
      </trkpt>
      <trkpt lat="44.74463" lon="-0.35717">
        <ele>70</ele>
        <time>2013-07-07T16:32:04Z</time>
      </trkpt>
      <trkpt lat="44.74456" lon="-0.35714">
        <ele>70</ele>
        <time>2013-07-07T16:32:09Z</time>
      </trkpt>
      <trkpt lat="44.74442" lon="-0.35718">
        <ele>69</ele>
        <time>2013-07-07T16:32:17Z</time>
      </trkpt>
      <trkpt lat="44.7443" lon="-0.35714">
        <ele>69</ele>
        <time>2013-07-07T16:32:24Z</time>
      </trkpt>
      <trkpt lat="44.74425" lon="-0.35712">
        <ele>69</ele>
        <time>2013-07-07T16:32:34Z</time>
      </trkpt>
      <trkpt lat="44.74424" lon="-0.35714">
        <ele>69</ele>
        <time>2013-07-07T16:32:45Z</time>
      </trkpt>
      <trkpt lat="44.74419" lon="-0.35724">
        <ele>70</ele>
        <time>2013-07-07T16:32:54Z</time>
      </trkpt>
      <trkpt lat="44.74413" lon="-0.35723">
        <ele>70</ele>
        <time>2013-07-07T16:33:04Z</time>
      </trkpt>
      <trkpt lat="44.74411" lon="-0.35718">
        <ele>70</ele>
        <time>2013-07-07T16:33:15Z</time>
      </trkpt>
      <trkpt lat="44.74409" lon="-0.35712">
        <ele>70</ele>
        <time>2013-07-07T16:33:24Z</time>
      </trkpt>
      <trkpt lat="44.74407" lon="-0.3571">
        <ele>70</ele>
        <time>2013-07-07T16:33:33Z</time>
      </trkpt>
      <trkpt lat="44.744" lon="-0.35709">
        <ele>70</ele>
        <time>2013-07-07T16:33:43Z</time>
      </trkpt>
      <trkpt lat="44.74395" lon="-0.35711">
        <ele>70</ele>
        <time>2013-07-07T16:33:52Z</time>
      </trkpt>
      <trkpt lat="44.74386" lon="-0.35708">
        <ele>71</ele>
        <time>2013-07-07T16:34:01Z</time>
      </trkpt>
      <trkpt lat="44.74377" lon="-0.35702">
        <ele>71</ele>
        <time>2013-07-07T16:34:10Z</time>
      </trkpt>
      <trkpt lat="44.74366" lon="-0.35698">
        <ele>73</ele>
        <time>2013-07-07T16:34:19Z</time>
      </trkpt>
      <trkpt lat="44.7436" lon="-0.35705">
        <ele>73</ele>
        <time>2013-07-07T16:34:27Z</time>
      </trkpt>
      <trkpt lat="44.74348" lon="-0.35715">
        <ele>75</ele>
        <time>2013-07-07T16:34:36Z</time>
      </trkpt>
      <trkpt lat="44.74345" lon="-0.35718">
        <ele>76</ele>
        <time>2013-07-07T16:34:39Z</time>
      </trkpt>
      <trkpt lat="44.74329" lon="-0.35729">
        <ele>78</ele>
        <time>2013-07-07T16:34:49Z</time>
      </trkpt>
      <trkpt lat="44.74328" lon="-0.3573">
        <ele>79</ele>
        <time>2013-07-07T16:34:50Z</time>
      </trkpt>
      <trkpt lat="44.74325" lon="-0.35733">
        <ele>79</ele>
        <time>2013-07-07T16:34:53Z</time>
      </trkpt>
      <trkpt lat="44.74315" lon="-0.35744">
        <ele>81</ele>
        <time>2013-07-07T16:35:01Z</time>
      </trkpt>
      <trkpt lat="44.74303" lon="-0.35749">
        <ele>83</ele>
        <time>2013-07-07T16:35:10Z</time>
      </trkpt>
      <trkpt lat="44.74299" lon="-0.35764">
        <ele>85</ele>
        <time>2013-07-07T16:35:18Z</time>
      </trkpt>
      <trkpt lat="44.74297" lon="-0.35768">
        <ele>85</ele>
        <time>2013-07-07T16:35:20Z</time>
      </trkpt>
      <trkpt lat="44.74288" lon="-0.35789">
        <ele>87</ele>
        <time>2013-07-07T16:35:31Z</time>
      </trkpt>
      <trkpt lat="44.74277" lon="-0.35812">
        <ele>88</ele>
        <time>2013-07-07T16:35:43Z</time>
      </trkpt>
      <trkpt lat="44.74266" lon="-0.35835">
        <ele>89</ele>
        <time>2013-07-07T16:35:52Z</time>
      </trkpt>
      <trkpt lat="44.74257" lon="-0.35853">
        <ele>91</ele>
        <time>2013-07-07T16:36:00Z</time>
      </trkpt>
      <trkpt lat="44.74247" lon="-0.35876">
        <ele>93</ele>
        <time>2013-07-07T16:36:10Z</time>
      </trkpt>
      <trkpt lat="44.74241" lon="-0.35888">
        <ele>94</ele>
        <time>2013-07-07T16:36:17Z</time>
      </trkpt>
      <trkpt lat="44.74245" lon="-0.35897">
        <ele>94</ele>
        <time>2013-07-07T16:36:22Z</time>
      </trkpt>
      <trkpt lat="44.74261" lon="-0.3592">
        <ele>94</ele>
        <time>2013-07-07T16:36:34Z</time>
      </trkpt>
      <trkpt lat="44.7428" lon="-0.35943">
        <ele>94</ele>
        <time>2013-07-07T16:36:45Z</time>
      </trkpt>
      <trkpt lat="44.74293" lon="-0.35959">
        <ele>95</ele>
        <time>2013-07-07T16:36:53Z</time>
      </trkpt>
      <trkpt lat="44.74302" lon="-0.35971">
        <ele>95</ele>
        <time>2013-07-07T16:37:00Z</time>
      </trkpt>
      <trkpt lat="44.74311" lon="-0.35993">
        <ele>95</ele>
        <time>2013-07-07T16:37:08Z</time>
      </trkpt>
      <trkpt lat="44.74306" lon="-0.36">
        <ele>96</ele>
        <time>2013-07-07T16:37:12Z</time>
      </trkpt>
      <trkpt lat="44.74289" lon="-0.36017">
        <ele>97</ele>
        <time>2013-07-07T16:37:22Z</time>
      </trkpt>
      <trkpt lat="44.74277" lon="-0.36033">
        <ele>98</ele>
        <time>2013-07-07T16:37:30Z</time>
      </trkpt>
      <trkpt lat="44.74253" lon="-0.36059">
        <ele>98</ele>
        <time>2013-07-07T16:37:42Z</time>
      </trkpt>
      <trkpt lat="44.74233" lon="-0.36076">
        <ele>99</ele>
        <time>2013-07-07T16:37:52Z</time>
      </trkpt>
      <trkpt lat="44.74221" lon="-0.3609">
        <ele>99</ele>
        <time>2013-07-07T16:38:01Z</time>
      </trkpt>
      <trkpt lat="44.74211" lon="-0.3609">
        <ele>100</ele>
        <time>2013-07-07T16:38:08Z</time>
      </trkpt>
      <trkpt lat="44.74197" lon="-0.36076">
        <ele>101</ele>
        <time>2013-07-07T16:38:16Z</time>
      </trkpt>
      <trkpt lat="44.74179" lon="-0.36053">
        <ele>100</ele>
        <time>2013-07-07T16:38:25Z</time>
      </trkpt>
      <trkpt lat="44.74165" lon="-0.36039">
        <ele>100</ele>
        <time>2013-07-07T16:38:33Z</time>
      </trkpt>
      <trkpt lat="44.74163" lon="-0.36035">
        <ele>100</ele>
        <time>2013-07-07T16:38:35Z</time>
      </trkpt>
      <trkpt lat="44.74155" lon="-0.36036">
        <ele>100</ele>
        <time>2013-07-07T16:38:39Z</time>
      </trkpt>
      <trkpt lat="44.74145" lon="-0.3605">
        <ele>100</ele>
        <time>2013-07-07T16:38:46Z</time>
      </trkpt>
      <trkpt lat="44.74141" lon="-0.36059">
        <ele>99</ele>
        <time>2013-07-07T16:38:50Z</time>
      </trkpt>
      <trkpt lat="44.74139" lon="-0.36067">
        <ele>99</ele>
        <time>2013-07-07T16:38:54Z</time>
      </trkpt>
      <trkpt lat="44.74144" lon="-0.36075">
        <ele>100</ele>
        <time>2013-07-07T16:38:59Z</time>
      </trkpt>
      <trkpt lat="44.74155" lon="-0.36093">
        <ele>100</ele>
        <time>2013-07-07T16:39:08Z</time>
      </trkpt>
      <trkpt lat="44.74163" lon="-0.3611">
        <ele>100</ele>
        <time>2013-07-07T16:39:15Z</time>
      </trkpt>
      <trkpt lat="44.74156" lon="-0.36132">
        <ele>100</ele>
        <time>2013-07-07T16:39:22Z</time>
      </trkpt>
      <trkpt lat="44.74155" lon="-0.36135">
        <ele>100</ele>
        <time>2013-07-07T16:39:23Z</time>
      </trkpt>
      <trkpt lat="44.74142" lon="-0.36161">
        <ele>99</ele>
        <time>2013-07-07T16:39:31Z</time>
      </trkpt>
      <trkpt lat="44.74141" lon="-0.36163">
        <ele>99</ele>
        <time>2013-07-07T16:39:32Z</time>
      </trkpt>
      <trkpt lat="44.74148" lon="-0.36172">
        <ele>99</ele>
        <time>2013-07-07T16:39:37Z</time>
      </trkpt>
      <trkpt lat="44.7417" lon="-0.36182">
        <ele>98</ele>
        <time>2013-07-07T16:39:45Z</time>
      </trkpt>
      <trkpt lat="44.74168" lon="-0.36185">
        <ele>98</ele>
        <time>2013-07-07T16:39:50Z</time>
      </trkpt>
      <trkpt lat="44.74158" lon="-0.36178">
        <ele>99</ele>
        <time>2013-07-07T16:39:59Z</time>
      </trkpt>
      <trkpt lat="44.74157" lon="-0.36177">
        <ele>99</ele>
        <time>2013-07-07T16:40:00Z</time>
      </trkpt>
      <trkpt lat="44.7415" lon="-0.36187">
        <ele>98</ele>
        <time>2013-07-07T16:40:06Z</time>
      </trkpt>
      <trkpt lat="44.74136" lon="-0.36217">
        <ele>98</ele>
        <time>2013-07-07T16:40:14Z</time>
      </trkpt>
      <trkpt lat="44.74125" lon="-0.36245">
        <ele>97</ele>
        <time>2013-07-07T16:40:22Z</time>
      </trkpt>
      <trkpt lat="44.74118" lon="-0.36283">
        <ele>96</ele>
        <time>2013-07-07T16:40:31Z</time>
      </trkpt>
      <trkpt lat="44.74106" lon="-0.36322">
        <ele>95</ele>
        <time>2013-07-07T16:40:40Z</time>
      </trkpt>
      <trkpt lat="44.74098" lon="-0.36348">
        <ele>94</ele>
        <time>2013-07-07T16:40:47Z</time>
      </trkpt>
      <trkpt lat="44.74087" lon="-0.36385">
        <ele>92</ele>
        <time>2013-07-07T16:40:56Z</time>
      </trkpt>
      <trkpt lat="44.74074" lon="-0.36383">
        <ele>92</ele>
        <time>2013-07-07T16:41:01Z</time>
      </trkpt>
      <trkpt lat="44.7406" lon="-0.36387">
        <ele>91</ele>
        <time>2013-07-07T16:41:06Z</time>
      </trkpt>
      <trkpt lat="44.74041" lon="-0.36427">
        <ele>88</ele>
        <time>2013-07-07T16:41:14Z</time>
      </trkpt>
      <trkpt lat="44.74023" lon="-0.36463">
        <ele>86</ele>
        <time>2013-07-07T16:41:22Z</time>
      </trkpt>
      <trkpt lat="44.74023" lon="-0.36486">
        <ele>85</ele>
        <time>2013-07-07T16:41:27Z</time>
      </trkpt>
      <trkpt lat="44.74029" lon="-0.36518">
        <ele>83</ele>
        <time>2013-07-07T16:41:34Z</time>
      </trkpt>
      <trkpt lat="44.74034" lon="-0.36558">
        <ele>82</ele>
        <time>2013-07-07T16:41:43Z</time>
      </trkpt>
      <trkpt lat="44.74033" lon="-0.36594">
        <ele>81</ele>
        <time>2013-07-07T16:41:51Z</time>
      </trkpt>
      <trkpt lat="44.74024" lon="-0.36631">
        <ele>82</ele>
        <time>2013-07-07T16:41:59Z</time>
      </trkpt>
      <trkpt lat="44.74023" lon="-0.36661">
        <ele>82</ele>
        <time>2013-07-07T16:42:06Z</time>
      </trkpt>
      <trkpt lat="44.74017" lon="-0.36686">
        <ele>82</ele>
        <time>2013-07-07T16:42:12Z</time>
      </trkpt>
      <trkpt lat="44.74006" lon="-0.36699">
        <ele>83</ele>
        <time>2013-07-07T16:42:17Z</time>
      </trkpt>
      <trkpt lat="44.73992" lon="-0.3671">
        <ele>84</ele>
        <time>2013-07-07T16:42:24Z</time>
      </trkpt>
      <trkpt lat="44.73984" lon="-0.36722">
        <ele>83</ele>
        <time>2013-07-07T16:42:31Z</time>
      </trkpt>
      <trkpt lat="44.73983" lon="-0.36738">
        <ele>82</ele>
        <time>2013-07-07T16:42:38Z</time>
      </trkpt>
      <trkpt lat="44.73965" lon="-0.36763">
        <ele>80</ele>
        <time>2013-07-07T16:42:48Z</time>
      </trkpt>
      <trkpt lat="44.73943" lon="-0.36793">
        <ele>79</ele>
        <time>2013-07-07T16:42:56Z</time>
      </trkpt>
      <trkpt lat="44.73936" lon="-0.368">
        <ele>78</ele>
        <time>2013-07-07T16:43:01Z</time>
      </trkpt>
      <trkpt lat="44.73932" lon="-0.36803">
        <ele>78</ele>
        <time>2013-07-07T16:43:07Z</time>
      </trkpt>
      <trkpt lat="44.73928" lon="-0.368">
        <ele>78</ele>
        <time>2013-07-07T16:43:11Z</time>
      </trkpt>
      <trkpt lat="44.73928" lon="-0.368">
        <ele>78</ele>
        <time>2013-07-07T16:43:26Z</time>
      </trkpt>
      <trkpt lat="44.73928" lon="-0.368">
        <ele>78</ele>
        <time>2013-07-07T16:43:37Z</time>
      </trkpt>
      <trkpt lat="44.73928" lon="-0.368">
        <ele>78</ele>
        <time>2013-07-07T16:43:51Z</time>
      </trkpt>
      <trkpt lat="44.73927" lon="-0.368">
        <ele>78</ele>
        <time>2013-07-07T16:44:00Z</time>
      </trkpt>
      <trkpt lat="44.73927" lon="-0.368">
        <ele>78</ele>
        <time>2013-07-07T16:44:18Z</time>
      </trkpt>
      <trkpt lat="44.73925" lon="-0.36801">
        <ele>78</ele>
        <time>2013-07-07T16:44:28Z</time>
      </trkpt>
      <trkpt lat="44.7392" lon="-0.36814">
        <ele>77</ele>
        <time>2013-07-07T16:44:34Z</time>
      </trkpt>
      <trkpt lat="44.73907" lon="-0.36833">
        <ele>75</ele>
        <time>2013-07-07T16:44:43Z</time>
      </trkpt>
      <trkpt lat="44.73872" lon="-0.36863">
        <ele>71</ele>
        <time>2013-07-07T16:44:53Z</time>
      </trkpt>
      <trkpt lat="44.73839" lon="-0.36889">
        <ele>66</ele>
        <time>2013-07-07T16:45:04Z</time>
      </trkpt>
      <trkpt lat="44.73819" lon="-0.36901">
        <ele>63</ele>
        <time>2013-07-07T16:45:13Z</time>
      </trkpt>
      <trkpt lat="44.73814" lon="-0.36905">
        <ele>62</ele>
        <time>2013-07-07T16:45:15Z</time>
      </trkpt>
      <trkpt lat="44.73805" lon="-0.36891">
        <ele>62</ele>
        <time>2013-07-07T16:45:24Z</time>
      </trkpt>
      <trkpt lat="44.73806" lon="-0.36882">
        <ele>63</ele>
        <time>2013-07-07T16:45:30Z</time>
      </trkpt>
      <trkpt lat="44.73811" lon="-0.36866">
        <ele>64</ele>
        <time>2013-07-07T16:45:39Z</time>
      </trkpt>
      <trkpt lat="44.73818" lon="-0.36851">
        <ele>66</ele>
        <time>2013-07-07T16:45:47Z</time>
      </trkpt>
      <trkpt lat="44.73814" lon="-0.36828">
        <ele>67</ele>
        <time>2013-07-07T16:45:56Z</time>
      </trkpt>
      <trkpt lat="44.73807" lon="-0.36804">
        <ele>67</ele>
        <time>2013-07-07T16:46:05Z</time>
      </trkpt>
      <trkpt lat="44.73798" lon="-0.36769">
        <ele>67</ele>
        <time>2013-07-07T16:46:16Z</time>
      </trkpt>
      <trkpt lat="44.73783" lon="-0.36722">
        <ele>64</ele>
        <time>2013-07-07T16:46:28Z</time>
      </trkpt>
      <trkpt lat="44.73776" lon="-0.3669">
        <ele>62</ele>
        <time>2013-07-07T16:46:37Z</time>
      </trkpt>
      <trkpt lat="44.7377" lon="-0.36665">
        <ele>61</ele>
        <time>2013-07-07T16:46:44Z</time>
      </trkpt>
      <trkpt lat="44.73756" lon="-0.36662">
        <ele>58</ele>
        <time>2013-07-07T16:46:50Z</time>
      </trkpt>
      <trkpt lat="44.73733" lon="-0.36664">
        <ele>53</ele>
        <time>2013-07-07T16:46:58Z</time>
      </trkpt>
      <trkpt lat="44.7373" lon="-0.36664">
        <ele>52</ele>
        <time>2013-07-07T16:46:59Z</time>
      </trkpt>
      <trkpt lat="44.73725" lon="-0.36651">
        <ele>51</ele>
        <time>2013-07-07T16:47:04Z</time>
      </trkpt>
      <trkpt lat="44.73731" lon="-0.36617">
        <ele>52</ele>
        <time>2013-07-07T16:47:15Z</time>
      </trkpt>
      <trkpt lat="44.73739" lon="-0.36579">
        <ele>55</ele>
        <time>2013-07-07T16:47:26Z</time>
      </trkpt>
      <trkpt lat="44.73752" lon="-0.36538">
        <ele>57</ele>
        <time>2013-07-07T16:47:39Z</time>
      </trkpt>
      <trkpt lat="44.73761" lon="-0.36505">
        <ele>58</ele>
        <time>2013-07-07T16:47:51Z</time>
      </trkpt>
      <trkpt lat="44.73767" lon="-0.36474">
        <ele>57</ele>
        <time>2013-07-07T16:48:02Z</time>
      </trkpt>
      <trkpt lat="44.73768" lon="-0.36443">
        <ele>56</ele>
        <time>2013-07-07T16:48:11Z</time>
      </trkpt>
      <trkpt lat="44.73754" lon="-0.36406">
        <ele>58</ele>
        <time>2013-07-07T16:48:17Z</time>
      </trkpt>
      <trkpt lat="44.73742" lon="-0.36388">
        <ele>58</ele>
        <time>2013-07-07T16:48:23Z</time>
      </trkpt>
      <trkpt lat="44.73732" lon="-0.36374">
        <ele>58</ele>
        <time>2013-07-07T16:48:31Z</time>
      </trkpt>
      <trkpt lat="44.73728" lon="-0.3637">
        <ele>59</ele>
        <time>2013-07-07T16:48:39Z</time>
      </trkpt>
      <trkpt lat="44.73726" lon="-0.36372">
        <ele>59</ele>
        <time>2013-07-07T16:48:48Z</time>
      </trkpt>
      <trkpt lat="44.73722" lon="-0.36375">
        <ele>60</ele>
        <time>2013-07-07T16:48:57Z</time>
      </trkpt>
      <trkpt lat="44.73718" lon="-0.36381">
        <ele>60</ele>
        <time>2013-07-07T16:49:06Z</time>
      </trkpt>
      <trkpt lat="44.73717" lon="-0.36382">
        <ele>60</ele>
        <time>2013-07-07T16:49:12Z</time>
      </trkpt>
      <trkpt lat="44.73704" lon="-0.36391">
        <ele>63</ele>
        <time>2013-07-07T16:49:21Z</time>
      </trkpt>
      <trkpt lat="44.73689" lon="-0.364">
        <ele>65</ele>
        <time>2013-07-07T16:49:32Z</time>
      </trkpt>
      <trkpt lat="44.7368" lon="-0.36404">
        <ele>67</ele>
        <time>2013-07-07T16:49:40Z</time>
      </trkpt>
      <trkpt lat="44.7367" lon="-0.36409">
        <ele>69</ele>
        <time>2013-07-07T16:49:50Z</time>
      </trkpt>
      <trkpt lat="44.73659" lon="-0.36415">
        <ele>70</ele>
        <time>2013-07-07T16:50:00Z</time>
      </trkpt>
      <trkpt lat="44.73649" lon="-0.36421">
        <ele>72</ele>
        <time>2013-07-07T16:50:08Z</time>
      </trkpt>
      <trkpt lat="44.73637" lon="-0.36427">
        <ele>73</ele>
        <time>2013-07-07T16:50:18Z</time>
      </trkpt>
      <trkpt lat="44.73626" lon="-0.36433">
        <ele>75</ele>
        <time>2013-07-07T16:50:28Z</time>
      </trkpt>
      <trkpt lat="44.73615" lon="-0.36438">
        <ele>76</ele>
        <time>2013-07-07T16:50:37Z</time>
      </trkpt>
      <trkpt lat="44.73602" lon="-0.36443">
        <ele>77</ele>
        <time>2013-07-07T16:50:46Z</time>
      </trkpt>
      <trkpt lat="44.73593" lon="-0.36447">
        <ele>78</ele>
        <time>2013-07-07T16:50:53Z</time>
      </trkpt>
      <trkpt lat="44.73579" lon="-0.3645">
        <ele>79</ele>
        <time>2013-07-07T16:51:01Z</time>
      </trkpt>
      <trkpt lat="44.73562" lon="-0.36455">
        <ele>80</ele>
        <time>2013-07-07T16:51:11Z</time>
      </trkpt>
      <trkpt lat="44.73546" lon="-0.36458">
        <ele>81</ele>
        <time>2013-07-07T16:51:20Z</time>
      </trkpt>
      <trkpt lat="44.73528" lon="-0.36464">
        <ele>82</ele>
        <time>2013-07-07T16:51:30Z</time>
      </trkpt>
      <trkpt lat="44.73511" lon="-0.36468">
        <ele>83</ele>
        <time>2013-07-07T16:51:40Z</time>
      </trkpt>
      <trkpt lat="44.73498" lon="-0.36471">
        <ele>84</ele>
        <time>2013-07-07T16:51:47Z</time>
      </trkpt>
      <trkpt lat="44.73482" lon="-0.36476">
        <ele>84</ele>
        <time>2013-07-07T16:51:55Z</time>
      </trkpt>
      <trkpt lat="44.73463" lon="-0.36491">
        <ele>85</ele>
        <time>2013-07-07T16:52:06Z</time>
      </trkpt>
      <trkpt lat="44.7345" lon="-0.36498">
        <ele>85</ele>
        <time>2013-07-07T16:52:12Z</time>
      </trkpt>
      <trkpt lat="44.73438" lon="-0.36496">
        <ele>85</ele>
        <time>2013-07-07T16:52:20Z</time>
      </trkpt>
      <trkpt lat="44.73424" lon="-0.36496">
        <ele>85</ele>
        <time>2013-07-07T16:52:28Z</time>
      </trkpt>
      <trkpt lat="44.73414" lon="-0.3649">
        <ele>85</ele>
        <time>2013-07-07T16:52:35Z</time>
      </trkpt>
      <trkpt lat="44.73413" lon="-0.36488">
        <ele>85</ele>
        <time>2013-07-07T16:52:40Z</time>
      </trkpt>
      <trkpt lat="44.73412" lon="-0.36483">
        <ele>85</ele>
        <time>2013-07-07T16:52:47Z</time>
      </trkpt>
      <trkpt lat="44.73413" lon="-0.36479">
        <ele>85</ele>
        <time>2013-07-07T16:52:58Z</time>
      </trkpt>
      <trkpt lat="44.73409" lon="-0.36473">
        <ele>85</ele>
        <time>2013-07-07T16:53:07Z</time>
      </trkpt>
      <trkpt lat="44.73408" lon="-0.36469">
        <ele>85</ele>
        <time>2013-07-07T16:53:14Z</time>
      </trkpt>
      <trkpt lat="44.73405" lon="-0.36464">
        <ele>84</ele>
        <time>2013-07-07T16:53:22Z</time>
      </trkpt>
      <trkpt lat="44.73405" lon="-0.36464">
        <ele>84</ele>
        <time>2013-07-07T16:53:37Z</time>
      </trkpt>
      <trkpt lat="44.73406" lon="-0.36464">
        <ele>84</ele>
        <time>2013-07-07T16:53:57Z</time>
      </trkpt>
      <trkpt lat="44.73406" lon="-0.36464">
        <ele>84</ele>
        <time>2013-07-07T16:54:05Z</time>
      </trkpt>
      <trkpt lat="44.73406" lon="-0.36463">
        <ele>84</ele>
        <time>2013-07-07T16:54:14Z</time>
      </trkpt>
      <trkpt lat="44.73407" lon="-0.36461">
        <ele>85</ele>
        <time>2013-07-07T16:54:28Z</time>
      </trkpt>
      <trkpt lat="44.73407" lon="-0.36461">
        <ele>85</ele>
        <time>2013-07-07T16:54:30Z</time>
      </trkpt>
      <trkpt lat="44.73407" lon="-0.36446">
        <ele>85</ele>
        <time>2013-07-07T16:54:37Z</time>
      </trkpt>
      <trkpt lat="44.73405" lon="-0.36423">
        <ele>85</ele>
        <time>2013-07-07T16:54:47Z</time>
      </trkpt>
      <trkpt lat="44.73402" lon="-0.36401">
        <ele>85</ele>
        <time>2013-07-07T16:54:54Z</time>
      </trkpt>
      <trkpt lat="44.73401" lon="-0.36381">
        <ele>85</ele>
        <time>2013-07-07T16:55:02Z</time>
      </trkpt>
      <trkpt lat="44.73397" lon="-0.36362">
        <ele>85</ele>
        <time>2013-07-07T16:55:09Z</time>
      </trkpt>
      <trkpt lat="44.73393" lon="-0.36337">
        <ele>85</ele>
        <time>2013-07-07T16:55:19Z</time>
      </trkpt>
      <trkpt lat="44.73389" lon="-0.36311">
        <ele>85</ele>
        <time>2013-07-07T16:55:30Z</time>
      </trkpt>
      <trkpt lat="44.73386" lon="-0.36279">
        <ele>85</ele>
        <time>2013-07-07T16:55:39Z</time>
      </trkpt>
      <trkpt lat="44.73382" lon="-0.36241">
        <ele>85</ele>
        <time>2013-07-07T16:55:47Z</time>
      </trkpt>
      <trkpt lat="44.73376" lon="-0.36206">
        <ele>86</ele>
        <time>2013-07-07T16:55:54Z</time>
      </trkpt>
      <trkpt lat="44.73374" lon="-0.36195">
        <ele>86</ele>
        <time>2013-07-07T16:55:56Z</time>
      </trkpt>
      <trkpt lat="44.73373" lon="-0.36189">
        <ele>86</ele>
        <time>2013-07-07T16:55:57Z</time>
      </trkpt>
      <trkpt lat="44.7336" lon="-0.36128">
        <ele>85</ele>
        <time>2013-07-07T16:56:08Z</time>
      </trkpt>
      <trkpt lat="44.73349" lon="-0.36072">
        <ele>86</ele>
        <time>2013-07-07T16:56:19Z</time>
      </trkpt>
      <trkpt lat="44.73348" lon="-0.3604">
        <ele>87</ele>
        <time>2013-07-07T16:56:26Z</time>
      </trkpt>
      <trkpt lat="44.7335" lon="-0.36017">
        <ele>88</ele>
        <time>2013-07-07T16:56:33Z</time>
      </trkpt>
      <trkpt lat="44.73362" lon="-0.36004">
        <ele>88</ele>
        <time>2013-07-07T16:56:38Z</time>
      </trkpt>
      <trkpt lat="44.73366" lon="-0.36002">
        <ele>88</ele>
        <time>2013-07-07T16:56:39Z</time>
      </trkpt>
      <trkpt lat="44.73402" lon="-0.35988">
        <ele>89</ele>
        <time>2013-07-07T16:56:49Z</time>
      </trkpt>
      <trkpt lat="44.73433" lon="-0.35976">
        <ele>89</ele>
        <time>2013-07-07T16:56:58Z</time>
      </trkpt>
      <trkpt lat="44.73467" lon="-0.35962">
        <ele>90</ele>
        <time>2013-07-07T16:57:08Z</time>
      </trkpt>
      <trkpt lat="44.73483" lon="-0.35952">
        <ele>90</ele>
        <time>2013-07-07T16:57:14Z</time>
      </trkpt>
    </trkseg>
  </trk>
</gpx>